[[{"header":{"parameterUnit":"m.s-1","parameterCategory":1,"la1":30.6,"la2":29.2853,"lo1":-89.7004,"lo2":-87.6739,"dy":0.0162,"dx":0.0183,"nx":112,"ny":82,"refTime":"2024-09-17T06:00:00:Z","depth":0,"parameterNumber":2,"parameterNumberName":"U-component_of_WINDS"},"data":[0.0,0.0,0.0,0.0,0.0,0.0,0.0,0.0,0.0,0.0,0.0,0.0,0.0,0.0,0.0,0.0,0.0,0.0,0.0,0.0,0.0,0.0,0.0,0.0,0.0,0.0,0.0,0.0,0.0,0.0,0.0,0.0,0.0,0.0,0.0,0.0,0.0,0.0,0.0,0.0,0.0,0.0,0.0,0.0,0.0,0.0,0.0,0.0,0.0,0.0,0.0,0.0,0.0,0.0,0.0,0.0,0.0,0.0,0.0,0.0,0.0,0.0,0.0,0.0,0.0,0.0,0.0,0.0,0.0,0.0,0.0,0.0,0.0,0.0,0.0,0.0,0.0,0.0,0.0,0.0,0.0,0.0,0.0,0.0,0.0,0.0,0.0,0.0,0.0,0.0,1.7258,1.8377,1.9637,2.006,1.9207,1.8552,1.7225,1.4886,0.0,0.0,0.0,0.0,0.0,0.0,0.0,0.0,0.0,0.0,0.0,0.0,0.0,0.0,0.0,0.0,0.0,0.0,0.0,0.0,0.0,0.0,0.0,0.0,0.0,0.0,0.0,0.0,0.0,0.0,0.0,0.0,0.0,0.0,0.0,0.0,0.0,0.0,0.0,0.0,0.0,0.0,0.0,0.0,0.0,0.0,0.0,0.0,0.0,0.0,0.0,0.0,0.0,0.0,0.0,0.0,0.0,0.0,0.0,0.0,0.0,0.0,0.0,0.0,0.0,0.0,0.0,0.0,0.0,0.0,0.0,0.0,0.0,0.0,0.0,0.0,0.0,0.0,0.0,0.0,0.0,0.0,0.0,0.0,0.0,0.0,0.0,0.0,0.0,0.0,0.0,0.0,0.0,0.0,0.0,0.0,0.0,0.0,0.0,0.0,0.0,0.0,0.0,0.0,1.7378,2.0843,2.1109,2.1074,2.108,1.9665,1.78,1.55,0.0,0.0,0.0,0.0,0.0,0.0,0.0,0.0,0.0,0.0,0.0,0.0,0.0,0.0,0.0,0.0,0.0,0.0,0.0,0.0,0.0,0.0,0.0,0.0,0.0,0.0,0.0,0.0,0.0,0.0,0.0,0.0,0.0,0.0,0.0,0.0,0.0,0.0,0.0,0.0,0.0,0.0,0.0,0.0,0.0,0.0,0.0,0.0,0.0,0.0,0.0,0.0,0.0,0.0,0.0,0.0,0.0,0.0,0.0,0.0,0.0,0.0,0.0,0.0,0.0,0.0,0.0,0.0,0.0,0.0,0.0,0.0,0.0,0.0,0.0,0.0,0.0,0.0,0.0,0.0,0.0,0.0,0.0,0.0,0.0,0.0,0.0,0.0,0.0,0.0,0.0,0.0,0.0,0.0,0.0,0.0,0.0,0.0,0.0,0.0,0.0,0.0,0.0,1.6863,1.8597,2.106,2.1599,2.1549,2.1018,1.9672,1.7931,1.563,1.3566,0.0,0.0,0.0,0.0,0.0,0.0,0.0,0.0,0.0,0.0,0.0,0.0,0.0,0.0,0.0,0.0,0.0,0.0,0.0,0.0,0.0,0.0,0.0,0.0,0.0,0.0,0.0,0.0,0.0,0.0,0.0,0.0,0.0,0.0,0.0,0.0,0.0,0.0,0.0,0.0,0.0,0.0,0.0,0.0,0.0,0.0,0.0,0.0,0.0,0.0,0.0,0.0,0.0,0.0,0.0,0.0,0.0,0.0,0.0,0.0,0.0,0.0,0.0,0.0,0.0,0.0,0.0,0.0,0.0,0.0,0.0,0.0,0.0,0.0,0.0,0.0,0.0,0.0,0.0,0.0,0.0,0.0,0.0,0.0,0.0,0.0,0.0,0.0,0.0,0.0,0.0,0.0,0.0,0.0,0.0,0.0,0.0,0.0,0.0,0.0,0.0,0.0,1.8873,2.0135,2.1032,2.1799,2.1875,2.0758,1.9341,1.7578,1.5421,1.2959,0.0,0.0,0.0,0.0,0.0,0.0,0.0,0.0,0.0,0.0,0.0,0.0,0.0,0.0,0.0,0.0,0.0,0.0,0.0,0.0,0.0,0.0,0.0,0.0,0.0,0.0,0.0,0.0,0.0,0.0,0.0,0.0,0.0,0.0,0.0,0.0,0.0,0.0,0.0,0.0,0.0,0.0,0.0,0.0,0.0,0.0,0.0,0.0,0.0,0.0,0.0,0.0,0.0,0.0,0.0,0.0,0.0,0.0,0.0,0.0,0.0,0.0,0.0,0.0,0.0,0.0,0.0,0.0,0.0,0.0,0.0,0.0,0.0,0.0,0.0,0.0,0.0,0.0,0.0,0.0,0.0,0.0,0.0,0.0,0.0,0.0,0.0,0.0,0.0,0.0,0.0,0.0,0.0,0.0,0.0,0.0,0.0,0.0,0.0,0.0,0.0,0.0,1.955,2.185,2.1753,2.2062,2.2027,2.1316,1.8841,1.6558,1.4768,1.1981,0.0,0.0,0.0,0.0,0.0,0.0,0.0,0.0,0.0,0.0,0.0,0.0,0.0,0.0,0.0,0.0,0.0,0.0,0.0,0.0,0.0,0.0,0.0,0.0,0.0,0.0,0.0,0.0,0.0,0.0,0.0,0.0,0.0,0.0,0.0,0.0,0.0,0.0,0.0,0.0,0.0,0.0,0.0,0.0,0.0,0.0,0.0,0.0,0.0,0.0,0.0,0.0,0.0,0.0,0.0,0.0,0.0,0.0,0.0,0.0,0.0,0.0,0.0,0.0,0.0,0.0,0.0,0.0,0.0,0.0,0.0,0.0,0.0,0.0,0.0,0.0,0.0,0.0,0.0,0.0,0.0,0.0,0.0,0.0,0.0,0.0,0.0,0.0,0.0,0.0,0.0,0.0,0.0,0.0,0.0,0.0,0.0,0.0,0.0,0.0,0.0,0.0,1.8958,2.109,2.1321,2.1989,2.1981,2.0896,1.9226,1.7212,1.4755,0.0,0.0,0.0,0.0,0.0,0.0,0.0,0.0,0.0,0.0,0.0,0.0,0.0,0.0,0.0,0.0,0.0,0.0,0.0,0.0,0.0,0.0,0.0,0.0,0.0,0.0,0.0,0.0,0.0,0.0,0.0,0.0,0.0,0.0,0.0,0.0,0.0,0.0,0.0,0.0,0.0,0.0,0.0,0.0,0.0,0.0,0.0,0.0,0.0,0.0,0.0,0.0,0.0,0.0,0.0,0.0,0.0,0.0,0.0,0.0,0.0,0.0,0.0,0.0,0.0,0.0,0.0,0.0,0.0,0.0,0.0,0.0,0.0,0.0,0.0,0.0,0.0,0.0,0.0,0.0,0.0,0.0,0.0,0.0,0.0,0.0,0.0,0.0,0.0,0.0,0.0,0.0,0.0,0.0,0.0,0.0,0.0,0.0,0.0,0.0,0.0,0.0,1.5832,1.8745,2.0828,2.1357,2.17,2.1549,2.0605,1.9026,1.7029,1.4529,0.0,0.0,0.0,0.0,0.0,0.0,0.0,0.0,0.0,0.0,0.0,0.0,0.0,0.0,0.0,0.0,0.0,0.0,0.0,0.0,0.0,0.0,0.0,0.0,0.0,0.0,0.0,0.0,0.0,0.0,0.0,0.0,0.0,0.0,0.0,0.0,0.0,0.0,0.0,0.0,0.0,0.0,0.0,0.0,0.0,0.0,0.0,0.0,0.0,0.0,0.0,0.0,0.0,0.0,0.0,0.0,0.0,0.0,0.0,0.0,0.0,0.0,0.0,0.0,0.0,0.0,0.0,0.0,0.0,0.0,0.0,0.0,0.0,0.0,0.0,0.0,0.0,0.0,0.0,0.0,0.0,0.0,0.0,0.0,0.0,0.0,0.0,0.0,0.0,0.0,0.0,0.0,0.0,0.0,0.0,0.0,0.0,0.0,0.0,0.0,0.0,0.0,1.6025,1.9177,2.1495,2.2026,2.119,2.0598,2.0584,1.8004,1.5694,0.0,0.0,0.0,0.0,0.0,0.0,0.0,0.0,0.0,0.0,0.0,0.0,0.0,0.0,0.0,0.0,0.0,0.0,0.0,0.0,0.0,0.0,0.0,0.0,0.0,0.0,0.0,0.0,0.0,0.0,0.0,0.0,0.0,0.0,0.0,0.0,0.0,0.0,0.0,0.0,0.0,0.0,0.0,0.0,0.0,0.0,0.0,0.0,0.0,0.0,0.0,0.0,0.0,0.0,0.0,0.0,0.0,0.0,0.0,0.0,0.0,0.0,0.0,0.0,0.0,0.0,0.0,0.0,0.0,0.0,0.0,0.0,0.0,0.0,0.0,0.0,0.0,0.0,0.0,0.0,0.0,0.0,0.0,0.0,0.0,0.0,0.0,0.0,0.0,0.0,0.0,0.0,0.0,0.0,0.0,0.0,0.0,0.0,0.0,0.0,0.0,0.0,0.0,1.6025,1.8946,2.0775,2.0529,2.0314,1.9849,1.8965,1.811,1.6506,1.3978,0.0,0.0,0.0,0.0,0.0,0.0,0.0,0.0,0.0,0.0,0.0,0.0,0.0,0.0,0.0,0.0,0.0,0.0,0.0,0.0,0.0,0.0,0.0,0.0,0.0,0.0,0.0,0.0,0.0,0.0,0.0,0.0,0.0,0.0,0.0,0.0,0.0,0.0,0.0,0.0,0.0,0.0,0.0,0.0,0.0,0.0,0.0,0.0,0.0,0.0,0.0,0.0,0.0,0.0,0.0,0.0,0.0,0.0,0.0,0.0,0.0,0.0,0.0,0.0,0.0,0.0,0.0,0.0,0.0,0.0,0.0,0.0,0.0,0.0,0.0,0.0,0.0,0.0,0.0,0.0,0.0,0.0,0.0,0.0,0.0,0.0,0.0,0.0,0.0,0.0,0.0,0.0,0.0,0.0,0.0,0.0,0.0,0.0,0.0,0.0,0.0,0.0,1.6025,1.8735,2.0452,2.0211,1.9812,1.9294,1.8638,1.8123,1.6756,1.4319,0.0,0.0,0.0,0.0,0.0,0.0,0.0,0.0,0.0,0.0,0.0,0.0,0.0,0.0,0.0,0.0,0.0,0.0,0.0,0.0,0.0,0.0,0.0,0.0,0.0,0.0,0.0,0.0,0.0,0.0,0.0,0.0,0.0,0.0,0.0,0.0,0.0,0.0,0.0,0.0,0.0,0.0,0.0,0.0,0.0,0.0,0.0,0.0,0.0,0.0,0.0,0.0,0.0,0.0,0.0,0.0,0.0,0.0,0.0,0.0,0.0,0.0,0.0,0.0,0.0,0.0,0.0,0.0,0.0,0.0,0.0,0.0,0.0,0.0,0.0,0.0,0.0,0.0,0.0,0.0,0.0,0.0,0.0,0.0,0.0,0.0,0.0,0.0,0.0,0.0,0.0,0.0,0.0,0.0,0.0,0.0,0.0,0.0,0.0,0.0,0.0,0.0,1.6047,1.8573,2.036,2.0639,1.9613,1.8953,1.9127,1.8084,1.6639,1.4905,0.0,0.0,0.0,0.0,0.0,0.0,0.0,0.0,0.0,0.0,0.0,0.0,0.0,0.0,0.0,0.0,0.0,0.0,0.0,0.0,0.0,0.0,0.0,0.0,0.0,0.0,0.0,0.0,0.0,0.0,0.0,0.0,0.0,0.0,0.0,0.0,0.0,0.0,0.0,0.0,0.0,0.0,0.0,0.0,0.0,0.0,0.0,0.0,0.0,0.0,0.0,0.0,0.0,0.0,0.0,0.0,0.0,0.0,0.0,0.0,1.6637,0.0,0.0,0.0,0.0,0.0,0.0,0.0,0.0,0.0,0.0,0.0,0.0,0.0,0.0,0.0,0.0,0.0,0.0,0.0,0.0,0.0,0.0,0.0,0.0,0.0,0.0,0.0,0.0,0.0,0.0,0.0,0.0,0.0,0.0,0.0,0.0,0.0,0.0,0.0,0.0,0.0,1.6323,1.8543,2.0167,2.0356,1.9378,1.8643,1.8582,1.7834,1.681,1.5432,1.4267,0.0,0.0,0.0,0.0,0.0,0.0,0.0,0.0,0.0,0.0,0.0,0.0,0.0,0.0,0.0,0.0,0.0,0.0,0.0,0.0,0.0,0.0,0.0,0.0,0.0,0.0,0.0,0.0,0.0,0.0,0.0,0.0,0.0,0.0,0.0,0.0,0.0,0.0,0.0,0.0,0.0,0.0,0.0,0.0,0.0,0.0,0.0,0.0,0.0,0.0,0.0,0.0,0.0,0.0,0.0,0.0,0.0,0.0,0.0,0.0,1.8422,0.0,0.0,0.0,0.0,0.0,0.0,0.0,0.0,0.0,0.0,0.0,0.0,0.0,0.0,0.0,0.0,0.0,0.0,0.0,0.0,0.0,0.0,0.0,0.0,0.0,0.0,0.0,0.0,0.0,0.0,0.0,0.0,0.0,0.0,0.0,0.0,0.0,0.0,0.0,0.0,1.7151,1.9049,2.0371,2.0598,1.9879,1.9162,1.8564,1.8129,1.734,1.6047,1.5118,0.0,0.0,0.0,0.0,0.0,0.0,0.0,0.0,0.0,0.0,0.0,0.0,0.0,0.0,0.0,0.0,0.0,0.0,0.0,0.0,0.0,0.0,0.0,0.0,0.0,0.0,0.0,0.0,0.0,0.0,0.0,0.0,0.0,0.0,0.0,0.0,0.0,0.0,0.0,0.0,0.0,0.0,0.0,0.0,0.0,0.0,0.0,0.0,0.0,0.0,0.0,0.0,0.0,2.1984,2.2272,2.3405,2.2444,2.2767,2.3984,2.2036,2.1369,2.16,2.014,0.0,0.0,0.0,0.0,0.0,0.0,0.0,0.0,0.0,0.0,0.0,0.0,0.0,0.0,0.0,0.0,0.0,0.0,0.0,0.0,0.0,0.0,0.0,0.0,2.0481,2.0806,0.0,0.0,0.0,0.0,0.0,0.0,0.0,0.0,0.0,0.0,0.0,0.0,1.8205,1.9816,2.0931,2.118,2.0684,1.9956,1.8987,1.8602,1.794,1.6863,1.61,1.4951,0.0,0.0,0.0,0.0,0.0,0.0,0.0,0.0,0.0,0.0,0.0,0.0,0.0,0.0,0.0,0.0,0.0,0.0,0.0,0.0,0.0,0.0,0.0,0.0,0.0,0.0,0.0,0.0,0.0,0.0,0.0,0.0,1.4992,1.58,0.0,0.0,0.0,0.0,0.0,0.0,0.0,0.0,0.0,0.0,0.0,0.0,0.0,2.2343,2.3702,2.4292,2.4673,2.4883,2.5218,2.5155,2.4752,2.4534,2.4888,2.5678,2.5186,0.0,2.3176,2.1589,0.0,0.0,0.0,0.0,0.0,0.0,0.0,0.0,0.0,0.0,0.0,0.0,0.0,0.0,0.0,0.0,0.0,0.0,0.0,0.0,0.0,0.0,2.1858,2.1821,2.2,2.2077,0.0,1.9646,1.7399,1.5433,1.4984,0.0,0.0,0.0,0.0,0.0,0.0,0.0,1.9231,2.072,2.1802,2.2013,2.1089,2.0392,2.0172,1.907,1.8286,1.8081,1.694,1.5931,1.5186,1.3618,0.0,0.0,0.0,0.0,0.0,0.0,0.0,0.0,0.0,0.0,0.0,0.0,0.0,0.0,0.0,0.0,0.0,0.0,0.0,0.0,0.0,0.0,0.0,0.0,0.0,0.0,0.0,0.0,0.0,1.479,1.6947,1.7185,1.8528,1.8823,0.0,0.0,0.0,0.0,0.0,0.0,0.0,0.0,0.0,2.2967,2.3601,2.4435,2.5444,2.5662,2.5993,2.6445,2.6671,2.6609,2.6299,2.6172,2.6553,2.7257,2.6683,2.6311,2.5968,2.3952,2.2711,2.1993,0.0,0.0,0.0,0.0,2.1404,2.172,2.1922,2.1955,0.0,2.096,0.0,0.0,0.0,0.0,0.0,0.0,0.0,0.0,0.0,0.0,2.3305,2.3049,2.3242,2.3412,2.2948,2.1954,2.0539,0.0,1.7896,1.7102,1.5345,0.0,0.0,0.0,0.0,1.9293,2.0528,2.1398,2.1973,2.2161,2.1464,2.0847,2.0475,1.9825,1.9248,1.8897,1.7929,1.7081,1.648,1.5095,1.3657,0.0,0.0,0.0,0.0,0.0,0.0,0.0,0.0,0.0,0.0,0.0,0.0,0.0,0.0,0.0,0.0,0.0,0.0,0.0,0.0,0.0,0.0,0.0,0.0,0.0,0.0,0.0,0.0,1.6439,1.8665,1.9031,2.0552,2.0967,0.0,0.0,0.0,0.0,0.0,0.0,2.2392,2.3756,2.4665,2.4935,2.5495,2.6196,2.7061,2.6813,2.7195,2.8161,2.7954,2.7851,2.7851,2.7751,2.8028,2.8561,2.7894,2.7929,2.8254,2.5902,2.4628,2.4032,2.3306,2.3061,2.3192,2.3682,2.4023,2.4254,2.4775,2.4745,2.4409,2.3716,0.0,2.2142,2.1345,0.0,0.0,0.0,0.0,2.2183,2.2428,2.3394,2.4205,2.3881,2.4166,2.4318,2.3752,2.3603,2.3048,0.0,2.0516,1.9698,1.7973,0.0,0.0,0.0,0.0,2.0345,2.168,2.1914,2.2012,2.2175,2.1698,2.1247,2.0752,2.0388,2.0027,1.9554,1.8758,1.8048,1.7447,1.6467,1.5186,1.3592,0.0,0.0,0.0,0.0,0.0,0.0,0.0,0.0,0.0,0.0,0.0,0.0,0.0,0.0,0.0,0.0,0.0,0.0,0.0,0.0,0.0,0.0,0.0,0.0,0.0,0.0,0.0,0.0,0.0,2.2064,2.354,0.0,0.0,0.0,0.0,2.3268,2.4096,2.4831,2.544,2.6988,2.7402,2.6422,2.7051,2.8025,2.9418,2.866,2.9041,3.0506,2.9748,2.9403,2.9403,2.9386,2.942,2.942,2.9351,2.9282,2.9145,2.6815,2.5811,2.5695,2.5047,2.4785,2.4785,2.468,2.5145,2.5678,2.4825,2.5014,2.5573,2.518,2.4414,2.3605,2.3523,2.3062,0.0,0.0,2.2996,2.3999,2.3629,2.4037,2.4567,2.4542,2.4508,2.4482,2.4451,2.4451,2.3993,0.0,2.2163,2.1938,2.127,0.0,2.1075,2.1193,2.1371,2.1754,2.2473,2.2321,2.2189,2.2217,2.1698,2.141,2.1382,2.063,2.0201,2.0174,1.9324,1.8623,1.8074,1.7447,1.6558,1.5382,1.3683,0.0,0.0,0.0,0.0,0.0,0.0,0.0,0.0,0.0,0.0,0.0,0.0,0.0,0.0,0.0,0.0,0.0,0.0,0.0,0.0,0.0,0.0,0.0,0.0,0.0,0.0,0.0,0.0,2.3656,2.5225,0.0,2.4019,2.4813,2.5028,2.4177,2.525,2.626,2.6936,2.8505,2.9215,2.8846,2.9909,3.0472,3.0438,3.0542,3.0851,3.1386,3.111,3.0972,3.0972,3.0972,3.1248,3.1662,3.116,3.1212,3.1522,2.9643,2.8511,2.7896,2.7179,2.7179,2.7606,2.7639,2.7776,2.7828,2.6843,2.6621,2.6753,2.6379,2.6052,2.5795,2.5966,2.5841,2.5571,2.529,2.5535,2.5914,2.5879,2.568,2.5466,2.5342,2.4932,2.4523,2.44,2.4359,2.422,2.3686,2.3319,2.2863,2.2093,2.2339,2.2463,2.2031,2.2823,2.3436,2.3392,2.334,2.3013,2.2317,2.2092,2.1794,2.1304,2.0944,2.0518,2.0099,1.9331,1.8662,1.8114,1.7525,1.6846,1.6088,1.5082,1.3631,0.0,0.0,0.0,0.0,0.0,0.0,0.0,0.0,0.0,0.0,0.0,0.0,0.0,0.0,0.0,0.0,0.0,0.0,0.0,0.0,0.0,0.0,0.0,0.0,0.0,2.1885,2.3892,2.5314,2.6747,2.7139,2.59,2.665,2.6969,2.6372,2.7449,2.8491,2.9246,3.0545,3.1142,3.0896,3.169,3.1986,3.1672,3.2031,3.2337,3.2576,3.2576,3.2576,3.2576,3.2576,3.2835,3.3283,3.2783,3.2852,3.3197,3.1826,3.1045,3.0557,2.9004,2.8693,2.9144,2.9098,2.8958,2.8673,2.8018,2.7628,2.7421,2.7196,2.7055,2.6993,2.7189,2.7248,2.7206,2.704,2.6954,2.6997,2.7056,2.6751,2.633,2.6204,2.5571,2.4973,2.4823,2.4555,2.4359,2.4302,2.3989,2.3582,2.3055,2.3332,2.3486,2.3079,2.3586,2.3879,2.3545,2.3441,2.3096,2.2396,2.2305,2.2092,2.1601,2.1077,2.0593,2.0099,1.939,1.8721,1.8114,1.7525,1.695,1.6402,1.5604,1.4337,1.2594,0.0,0.0,0.0,0.0,0.0,0.0,0.0,0.0,0.0,0.0,0.0,0.0,0.0,0.0,0.0,0.0,0.0,0.0,0.0,0.0,0.0,0.0,0.0,2.1619,2.3973,2.6142,2.714,2.8227,2.8675,2.8052,2.7895,2.8473,3.0053,3.0826,3.1581,3.2388,3.3125,3.3196,3.2493,3.2371,3.2633,3.3271,3.3214,3.3536,3.4162,3.4162,3.4162,3.4162,3.4162,3.4162,3.4162,3.4162,3.4162,3.4093,3.3223,3.3321,3.3659,3.0529,2.935,2.9304,2.8908,2.8495,2.8165,2.8165,2.7908,2.7563,2.7671,2.747,2.7209,2.7225,2.7225,2.7225,2.7225,2.7225,2.7225,2.7209,2.7194,2.7162,2.7146,2.6461,2.5801,2.5748,2.5108,2.4519,2.439,2.4333,2.4333,2.4302,2.4317,2.439,2.4457,2.364,0.0,2.3024,2.2608,2.2332,2.2332,2.2383,2.2332,2.2305,2.1164,2.0348,2.0187,1.9456,1.8753,1.81,1.7512,1.6963,1.6428,1.5238,1.435,1.3814,0.0,0.0,0.0,0.0,0.0,0.0,0.0,0.0,0.0,0.0,0.0,0.0,0.0,0.0,0.0,0.0,0.0,0.0,0.0,0.0,0.0,2.363,2.5,2.4761,2.6239,2.767,2.849,2.8853,2.9412,3.0344,3.0325,3.065,3.1686,3.1949,3.2388,3.3143,3.3389,3.367,3.4056,3.4526,3.4798,3.4874,3.5312,3.5613,3.5697,3.5697,3.5697,3.5697,3.5697,3.5697,3.5697,3.5697,3.5697,3.5628,3.4823,3.4943,3.5397,3.2823,3.2119,3.2582,3.2148,3.1207,3.0032,3.0004,2.9416,2.8767,2.9321,2.9404,2.9437,2.9943,3.0085,3.0085,3.0085,3.0085,2.9975,2.9469,2.8948,2.8397,2.7832,2.7039,2.6451,2.6451,2.6153,2.5759,2.5261,2.5068,2.4887,2.4394,2.4718,2.4872,2.4421,2.4313,0.0,2.3615,2.323,2.3125,2.3557,2.3607,2.3325,2.2746,2.1939,2.0832,1.9337,1.8726,1.8118,1.7473,1.729,1.7133,1.6977,1.584,1.4951,0.0,0.0,0.0,0.0,0.0,0.0,0.0,0.0,0.0,0.0,0.0,0.0,0.0,0.0,0.0,0.0,0.0,0.0,0.0,0.0,0.0,0.0,2.5758,2.7085,2.7022,2.7888,2.8816,2.9597,2.997,3.0663,3.1906,3.1901,3.2137,3.293,3.3196,3.3687,3.4424,3.4776,3.5162,3.5636,3.6054,3.6164,3.6068,3.64,3.6502,3.6402,3.6343,3.6301,3.6301,3.6301,3.6301,0.0,3.6301,3.6301,3.6266,3.5811,3.588,0.0,0.0,0.0,0.0,0.0,3.2159,3.1269,3.1005,3.0513,3.0069,3.048,3.0622,3.0686,3.1097,3.1223,3.1223,3.1223,3.1223,3.1128,3.0717,3.0306,2.9848,2.9391,2.8715,2.8042,2.7654,2.702,2.6298,2.5571,2.513,0.0,2.4379,2.4625,2.4764,2.4421,2.4164,2.3847,2.3516,2.3091,2.2937,2.3331,2.3331,2.3128,2.2633,2.176,0.0,0.0,0.0,1.7751,1.6898,1.6859,0.0,0.0,0.0,0.0,0.0,0.0,0.0,0.0,1.5071,1.4872,0.0,0.0,0.0,0.0,0.0,0.0,0.0,0.0,0.0,0.0,0.0,0.0,0.0,0.0,0.0,0.0,2.7253,2.8608,2.8637,2.9215,2.9873,3.0469,3.1267,3.2125,3.3077,3.3054,3.3328,3.4145,3.4693,3.5287,3.5917,0.0,0.0,0.0,0.0,3.6948,3.6788,3.6725,3.6643,3.6502,3.6402,3.6301,3.6301,3.6301,3.6301,3.6301,3.6301,3.6301,3.6301,3.6301,3.6301,3.6163,3.4665,3.4024,3.3845,3.2741,3.2237,3.2063,3.1593,0.0,0.0,3.146,3.146,3.146,3.146,3.146,3.146,3.146,3.146,3.1428,3.1349,3.1334,3.1318,3.1239,3.0749,3.0053,2.9108,2.7905,2.6694,2.5638,2.4948,2.4487,2.4333,2.4302,2.4359,2.4457,2.361,2.2965,2.2995,2.2572,2.2324,2.2392,0.0,0.0,2.2406,2.1253,2.0449,2.018,1.898,1.7781,1.6715,1.6676,1.6911,1.7382,1.7382,1.7848,1.8727,1.8727,1.8673,1.8559,1.6708,1.6388,0.0,0.0,0.0,0.0,0.0,0.0,0.0,0.0,0.0,0.0,0.0,0.0,0.0,0.0,0.0,2.7434,2.8842,2.9832,3.0,3.1082,3.1601,3.0844,3.1588,3.2918,3.481,3.486,3.5313,3.6518,3.6728,3.6794,3.6781,3.69,3.6987,3.6987,3.6987,3.6948,3.6788,3.6788,3.6708,3.6502,0.0,0.0,3.6301,3.6301,3.6301,3.6301,3.6301,3.6301,3.6301,3.6301,3.6301,3.6266,3.5931,3.5331,3.4629,3.4341,3.3762,3.3038,3.295,3.2898,3.2898,3.2898,3.2898,3.2898,3.2898,3.2898,0.0,3.2898,3.2898,3.2771,3.2218,3.2111,3.1918,3.1349,3.0998,3.0649,2.994,2.9387,2.8512,2.6636,2.613,2.5626,2.4502,2.4302,2.4302,2.4317,2.3824,2.3334,2.2979,2.2502,2.2454,2.2944,2.3049,2.3,2.2853,2.2062,2.1158,2.0112,1.9225,1.8649,1.8427,1.8427,1.8466,1.8571,1.8571,1.8689,1.8865,1.8727,1.8939,1.9378,1.8369,1.8029,0.0,0.0,0.0,0.0,0.0,0.0,0.0,0.0,0.0,0.0,0.0,2.4374,2.5412,0.0,2.9066,3.0349,3.1506,3.2231,3.2255,3.3272,3.3607,3.2392,3.3413,3.475,3.6121,3.6479,3.6862,3.7541,3.7037,3.6657,3.6526,3.6098,3.5829,3.5829,3.5829,3.5829,3.5752,3.5657,3.558,3.5439,3.5781,3.5873,3.5766,3.6128,3.6301,3.6301,3.6301,3.6301,3.6301,3.6301,3.6301,3.6301,3.6301,3.5837,3.5161,3.4927,3.435,3.3658,3.3398,3.3309,3.3309,3.3309,3.3309,3.3245,3.2882,3.2787,3.2787,3.2787,3.2534,3.2266,3.2266,3.2013,3.165,3.1302,3.1158,3.0919,3.0145,2.9624,2.8872,2.7378,2.6745,2.6099,2.5064,2.4852,2.4702,2.4364,2.3909,2.3421,2.2979,2.2495,2.2203,2.2318,2.2297,2.2249,2.22,2.1718,2.1056,2.0065,1.9606,1.9211,1.8911,1.8911,1.9041,1.9342,1.9355,1.9452,1.969,1.9642,1.9652,1.9773,1.9443,1.9302,0.0,0.0,0.0,0.0,0.0,0.0,0.0,2.2264,2.2996,2.3824,2.5333,2.6985,2.8544,3.0219,3.1756,3.2998,3.4003,3.4548,3.4408,3.5318,3.5583,3.4412,3.5532,3.6595,3.7174,3.7514,3.77,3.7665,3.6577,3.5899,3.5863,3.5115,3.4688,3.4688,3.4688,3.4688,3.4688,3.4596,3.4521,3.4425,3.4901,3.5077,3.5031,3.5594,3.587,3.587,3.587,3.587,3.587,3.587,3.587,3.587,3.587,3.5497,3.4987,3.4858,3.4464,3.3899,3.345,3.3309,3.3309,3.3309,3.3214,3.2993,3.244,3.2222,3.2111,3.2111,3.165,3.1349,3.1918,3.165,3.1223,3.1223,3.1223,3.0984,3.0193,2.9564,2.8873,2.789,2.7176,2.6481,2.5799,2.5481,2.5087,2.441,2.3994,2.3508,2.2979,2.2586,2.2077,2.1471,2.1423,2.1375,2.1375,2.1131,2.0748,2.0188,2.0066,1.9747,1.9264,1.9251,1.9473,1.9956,1.9969,2.0156,2.0562,2.0461,2.0296,2.0042,2.0104,2.0206,1.9771,1.9215,1.939,2.226,2.1992,2.2068,0.0,2.6142,2.6069,2.821,2.9636,3.0826,3.2035,3.3194,3.4018,3.4204,3.487,3.5373,3.5416,3.6623,3.7192,3.6463,3.6989,3.7588,3.8023,3.7486,3.7025,3.6838,3.5862,3.5225,3.5049,3.4815,3.4688,3.4688,3.4688,3.4688,3.4688,3.4688,3.4596,3.4504,3.4495,3.4415,3.4298,3.4323,3.4335,3.4335,3.4335,3.4335,3.4335,3.4335,3.4335,3.4335,3.4335,3.3777,3.3117,3.4336,3.4202,3.3398,3.3309,3.3309,3.3309,3.3309,3.2882,3.2428,3.2349,3.1823,3.1334,3.1334,3.127,3.1239,3.1302,3.127,3.1223,3.1223,3.1223,3.0984,3.0193,2.994,2.9453,2.7907,2.7534,2.7225,2.6425,2.5733,2.5087,2.441,2.4261,2.3909,2.3024,2.2844,2.248,2.1506,2.1423,2.1375,2.1229,2.1082,2.0934,2.0795,2.067,2.0581,2.0515,2.0515,2.0542,2.0607,2.0607,2.0646,2.0662,2.0398,2.0233,2.0195,2.0496,2.063,2.2044,2.2578,2.3243,2.418,2.4595,2.5505,2.8291,2.8721,2.9113,3.1186,3.2274,3.3121,3.4035,3.507,3.5987,3.6569,3.736,3.7903,3.7928,3.7895,3.7586,3.6775,3.6822,3.6904,3.6966,3.7093,3.689,3.623,3.5256,3.464,3.4574,3.3861,3.3494,3.3494,3.3407,3.3564,3.3986,3.3564,3.3528,3.384,3.3838,3.3726,3.3557,3.3986,3.4155,3.4093,3.4093,3.4093,3.4093,3.4093,3.4093,3.4093,3.4093,3.3481,3.268,3.3309,3.2901,3.2092,3.2092,3.2092,3.2092,3.2092,3.1902,3.1586,3.1176,3.0844,3.0607,3.0607,3.0322,3.0101,3.0512,3.0306,3.0006,3.0006,2.9895,2.9769,2.9422,2.9343,2.9092,2.842,2.8264,2.7938,2.721,2.6764,2.6287,2.561,2.4825,2.4189,2.3941,2.3302,2.2526,2.152,2.1423,2.1375,2.1326,2.1131,2.0997,2.0961,2.0812,2.0699,2.0699,2.0699,2.0699,2.0699,2.0612,2.0562,2.0562,2.0695,2.0693,2.0614,2.104,2.1428,2.401,2.4994,2.5873,2.6169,2.7191,2.8549,3.0202,3.1041,3.1967,3.3712,3.4347,3.4866,3.5803,3.6466,3.713,3.7845,3.8676,3.9239,3.9239,3.8315,3.7355,3.6578,3.6092,3.5687,3.5312,3.6098,3.6316,3.553,3.4542,3.3962,3.3962,3.3105,3.2606,3.2606,3.2685,3.295,3.3476,3.3178,3.3265,3.3773,3.3717,3.3644,3.3457,3.3731,3.3809,3.3749,3.3542,3.3455,3.3455,3.3455,3.3455,3.3455,3.3455,3.2951,3.219,3.2061,3.1667,3.1223,3.1223,3.1223,3.1223,3.1223,3.1081,3.0828,3.0338,3.0038,2.9896,2.9896,2.9516,2.9201,2.9753,2.9501,2.9075,2.9075,2.9013,2.8904,2.8904,2.8858,2.8794,2.8747,2.8684,2.8418,2.7938,2.7612,2.7288,2.6995,2.5764,2.4826,2.4686,2.3543,2.2433,2.1725,2.1471,2.1375,2.1375,2.1131,2.0997,2.0947,2.0812,2.0699,2.0699,2.0699,2.0699,2.0699,2.0562,2.0589,2.0694,2.0964,2.1087,2.1145,2.1622,2.2034,2.5338,2.5348,2.5681,2.8402,2.9499,3.038,3.2205,3.339,3.4516,3.5988,3.5994,3.618,3.7653,3.7461,3.7099,3.7117,3.7812,3.8338,3.8338,3.7412,3.6541,3.5983,3.5002,3.4041,3.3259,3.4263,3.4882,3.4643,3.3713,3.3122,3.3122,3.2802,3.2606,3.2606,3.3143,3.3494,3.3476,3.4249,3.4635,3.4653,3.4524,3.4449,3.4335,3.3381,3.2938,3.2904,3.2179,3.1869,3.1869,3.1869,3.1869,3.1869,3.1869,3.1572,3.1112,3.0708,3.0823,3.1223,3.1223,3.1223,3.1223,3.1223,3.0765,3.0212,3.018,2.9706,2.9107,2.9107,2.9107,2.9091,2.9107,2.9107,2.9075,2.9075,2.9013,2.8904,2.8904,2.8858,2.8747,2.8636,2.8573,2.8525,2.8381,2.7827,2.7611,2.8242,2.7196,2.5971,2.4955,2.3322,2.2295,2.2194,2.1712,2.1375,2.1229,2.1082,2.0961,2.0901,2.0775,2.0699,2.0699,2.0699,2.0699,2.0699,2.0562,2.0733,2.1289,2.1011,2.117,2.169,2.2078,2.2297,2.5448,2.6624,2.8088,2.942,3.0796,3.2428,3.4641,3.5688,3.6269,3.6547,3.6756,3.6616,3.581,3.5578,3.5684,3.6268,3.7013,3.7493,3.7493,3.7081,3.6341,3.518,3.4596,3.3995,3.3171,3.3845,3.4211,3.4006,3.3567,3.3521,3.4063,3.3749,3.3766,3.43,3.4323,3.453,3.5021,3.4811,3.4951,3.5425,3.4786,3.4466,3.437,3.3474,3.298,3.2869,3.211,3.18,3.18,3.18,3.2093,3.2576,3.311,3.274,3.1894,3.1933,3.1254,3.022,2.9911,2.9832,2.9832,2.9832,2.9674,2.9485,2.9485,2.9327,2.9075,2.9075,2.9075,2.9075,2.9075,2.9075,2.9075,2.9075,2.8951,2.8811,2.8811,2.8684,2.8508,2.8493,2.8444,2.8444,2.8411,2.8211,2.7975,2.7815,2.704,2.6063,2.4932,2.3964,2.323,2.2899,2.2351,2.1957,2.1807,2.1309,2.0961,2.0888,2.0762,2.0699,2.0699,2.0699,2.0882,2.1211,2.103,2.1144,2.1684,2.1805,2.1914,2.2103,2.2598,2.2862,2.6749,2.835,3.0122,3.1403,3.3123,3.4933,3.655,3.7209,3.7296,3.6723,3.6115,3.5382,3.4372,3.3504,3.3429,3.4941,3.5539,3.602,3.6622,3.6362,3.5716,3.4714,3.4233,3.3769,3.3265,3.3685,3.3921,3.3726,3.3764,3.4063,3.457,3.4476,3.4686,3.5186,3.5117,3.532,3.5811,3.5618,3.5759,3.6233,3.5609,3.5304,3.5209,3.4328,3.3865,3.3775,3.2976,3.2455,3.2179,3.2179,3.2472,3.2955,3.3455,3.3368,3.29,3.2656,3.1653,3.0293,2.9414,2.9075,2.9075,2.9075,2.9075,2.9075,2.9075,2.9075,2.9075,2.9075,2.9075,2.9075,2.9075,2.9075,2.9075,2.9029,2.8905,2.8794,2.8747,2.8556,2.8411,2.8411,2.8411,2.8411,2.8411,2.8411,2.8284,2.7894,2.727,2.6451,2.5247,2.4639,2.4058,2.3502,2.2964,2.2542,2.2387,2.195,2.1584,2.1444,2.1379,2.1328,2.1328,2.1328,2.1485,2.1799,2.1546,2.1668,2.2219,2.2248,2.241,2.2611,2.2915,2.3078,2.9112,3.0466,3.1804,3.4301,3.6274,3.764,3.7836,3.7849,3.751,3.6379,3.4227,3.2692,3.3163,3.1315,3.0561,3.3108,3.3507,3.4051,3.5692,3.5334,3.486,3.4698,3.4038,3.3588,3.3588,3.3905,3.405,3.3835,0.0,3.4643,3.4733,3.5083,3.5293,3.5328,3.5664,3.5864,3.5881,3.6619,3.6987,3.6987,3.6851,3.6788,3.6753,3.5844,3.5434,3.5342,3.4501,3.3701,3.2972,3.2972,3.2955,3.2972,3.3041,3.349,3.3968,3.2849,3.206,3.1351,2.9694,2.9121,2.9075,2.9075,2.9075,2.9075,2.9075,2.9075,2.9075,2.9075,2.9075,2.9075,2.9075,2.9075,2.9075,2.8967,2.8858,2.8747,2.8636,2.8493,2.8411,2.8411,2.8411,2.8411,2.8348,2.8396,2.8396,2.8299,2.7845,2.7075,2.5952,2.5383,2.4755,2.4063,2.3543,2.3124,2.2871,2.2791,2.2657,2.2415,2.2415,2.2374,2.24,2.2387,2.2428,2.24,2.2115,2.2232,2.2834,2.2475,2.2623,2.3078,2.3078,2.3078,3.0421,3.2327,3.4394,3.6156,3.7051,3.7547,3.7603,3.7252,3.6144,3.3321,3.2235,3.1078,2.8744,2.8677,2.9382,3.0648,3.2317,3.378,3.4814,3.5848,3.628,3.5634,3.5916,3.616,3.616,3.5938,3.5789,3.5735,3.5027,3.5131,3.6309,3.6348,3.6521,3.6952,3.6927,3.6844,3.6689,3.6882,3.6987,3.6987,3.6851,3.6788,3.6753,3.5866,3.5479,3.5427,3.464,3.415,3.3865,3.3865,3.3844,3.3886,3.5007,3.4887,3.4088,3.3989,3.2959,3.1437,3.008,2.938,2.9075,2.9075,2.9075,2.9075,2.9075,2.9075,2.9075,2.9075,2.9075,2.9075,2.9075,2.9075,2.9075,2.9075,2.8905,2.8794,2.8747,2.8556,2.8411,2.8411,2.8411,2.8235,2.7795,2.8122,2.8137,2.7276,2.7363,2.7405,2.7075,2.6251,2.553,2.5173,2.43,2.3635,2.336,2.2921,2.2603,2.2415,2.2415,2.2415,2.2428,2.2387,2.2528,2.2834,2.2665,2.2789,2.3246,2.2984,2.3,2.3078,2.3078,2.3078,3.2499,3.4566,3.6583,3.7719,3.785,3.7534,3.6793,3.5496,3.358,3.0516,2.9283,2.8204,2.6278,2.6529,2.7574,2.9159,3.109,3.2785,3.3932,3.527,3.6039,3.5916,3.661,3.7099,3.7099,3.7017,3.6953,3.6934,3.6133,3.6037,3.6957,3.707,3.7238,3.7577,3.7334,3.7105,3.6987,3.6987,3.6987,3.6987,3.693,3.6869,3.6771,3.6255,3.5983,3.5908,0.0,3.5013,3.4622,3.4622,3.4639,3.4645,3.5231,3.4976,3.4216,3.3828,3.2646,3.1178,3.0124,2.9499,2.9122,2.9485,2.9374,2.9138,2.9485,2.9374,2.9075,2.9075,2.9075,2.9075,2.9075,2.9075,2.9091,2.8998,2.8873,2.8747,2.8652,2.8508,2.8411,2.8411,2.8411,2.8299,2.7959,2.8186,2.8073,2.721,2.7246,2.7348,2.7108,2.6283,2.5646,2.5314,2.4637,2.4126,2.3887,2.354,2.33,2.3132,2.3132,2.3132,2.3132,2.3145,2.3245,2.3501,2.327,2.3249,2.3509,2.321,2.3078,2.3078,2.3078,2.3078,3.458,3.6588,3.8131,3.8714,3.8339,3.7334,3.543,3.3122,3.059,2.7876,2.6154,2.5009,2.4613,2.474,2.5693,2.8046,2.9834,3.1525,3.326,3.4221,3.5084,3.5976,3.6761,3.7286,3.7418,3.7713,3.7877,3.7784,3.7405,3.7207,3.7174,3.7503,3.7667,3.7577,3.7203,3.6987,3.6987,3.6987,3.6987,3.6987,3.6987,3.6891,3.6788,3.6725,3.6661,3.6502,3.6402,0.0,3.5376,3.5376,3.5283,3.5156,3.4729,3.4472,3.4218,3.3023,3.1884,3.0778,3.0036,2.9499,2.9232,2.9848,2.969,2.939,3.0006,2.9753,2.9264,2.9264,2.9154,2.9075,2.9075,2.9075,2.9045,2.8826,2.8794,2.87,2.8508,2.8396,2.8411,2.8411,2.8411,2.8348,2.8299,2.8348,2.8186,2.7464,2.7348,2.7093,2.6443,2.5906,2.5412,2.4878,2.4664,2.4492,2.4305,2.4292,2.4189,2.4112,2.4112,2.4112,2.4054,2.4054,2.4054,2.3995,2.3688,2.3569,2.3497,2.3258,2.3078,2.3078,2.3078,2.3078,3.4916,3.6699,3.8027,3.8131,3.755,3.6122,3.3064,3.0891,2.864,2.5409,2.4466,2.3592,2.1473,2.3206,2.5321,2.6403,2.8501,3.0809,3.3103,3.4116,3.5187,3.6704,3.7606,3.8375,3.9113,3.9037,3.8869,3.8689,3.8401,3.8168,3.8008,3.8068,3.7916,3.7631,3.7203,3.6987,3.6987,3.6987,3.6987,3.6987,3.6908,3.6811,3.6788,3.6725,3.6702,3.6643,3.6643,0.0,3.6253,3.6253,3.5849,3.5208,3.5324,3.4668,3.3525,3.284,3.1884,3.0778,3.0036,2.9499,2.9107,2.9264,2.9627,3.0022,3.0148,3.0085,3.0006,3.0006,2.958,2.9075,2.8967,2.892,2.892,2.8842,2.8732,2.8636,2.8589,2.8493,2.8411,2.8411,2.8411,2.8235,2.773,2.8073,2.8039,2.6864,2.7056,2.6872,2.5728,2.5508,2.5356,2.5133,2.4681,2.4305,2.4157,2.4099,2.4112,2.4112,2.4112,2.4067,2.3949,2.3949,2.3819,2.3522,2.3463,2.333,2.3198,2.3138,2.3078,2.3078,2.3078,2.3078,3.5053,3.6749,3.7901,3.7478,3.6733,3.5084,3.1218,2.8679,2.6178,2.2812,2.1729,2.1011,1.9748,2.1472,2.3479,2.4701,2.6915,2.9341,3.1807,3.2801,3.4226,3.6798,3.7437,3.8169,3.9489,3.9362,3.912,3.8939,3.8634,3.8433,3.8225,3.8003,3.7703,3.7279,3.7087,3.6987,3.6987,3.6987,3.6987,3.6987,3.6851,3.6788,3.6748,3.6643,3.6544,3.6502,3.6502,0.0,3.6402,3.6402,3.6136,3.5759,3.5674,3.457,3.2981,3.2451,3.128,2.9902,2.9582,2.9289,2.9075,2.9075,2.9358,2.9769,3.0496,3.0212,2.9706,3.0069,2.9612,2.8967,2.8904,2.8873,2.8811,2.8732,2.8589,2.8493,2.8493,2.8444,2.8411,2.8411,2.8411,2.8299,2.8008,2.7894,2.7545,2.6616,2.6308,2.5863,2.4951,2.4751,2.4751,2.4738,2.4421,2.4157,2.4112,2.4112,2.4112,2.4112,2.4112,2.4067,2.3891,2.3891,2.3772,2.3509,2.3463,2.333,2.3271,2.3138,2.3078,2.3078,2.3078,2.3301,3.46,3.6112,3.7005,3.6196,3.547,3.3846,2.9536,2.6746,2.4082,2.0716,1.9335,1.8716,1.8655,1.9964,2.1659,2.351,2.565,2.794,3.0394,3.1563,3.3308,3.646,3.6986,3.7779,3.9451,3.9406,3.9175,3.8939,3.8603,3.8368,3.8225,3.781,3.7466,3.7126,3.7048,3.6987,3.6987,3.6987,3.6987,3.6987,3.6891,3.6788,3.6702,3.6602,3.6444,3.6301,3.6301,0.0,0.0,3.6301,3.6301,3.6241,3.5562,3.4314,3.2773,3.203,3.0698,2.9259,2.9121,2.9075,2.9075,2.9075,2.9232,2.958,3.0844,3.0354,2.9501,3.0212,2.9675,2.892,2.8873,2.8858,2.8747,2.8589,2.8493,2.8411,2.8411,2.8299,2.8186,2.8186,2.8137,2.8039,2.8039,2.753,2.7004,2.6496,2.5837,2.5175,2.4523,2.4376,2.4274,2.4247,2.4157,2.4112,2.4112,2.4112,2.4112,2.4112,2.4112,2.3995,2.3832,2.3832,2.37,2.3509,2.339,2.333,2.333,2.3198,2.3078,2.3078,2.3078,2.3439,3.307,3.3963,3.4441,3.3573,3.3292,3.2116,2.7807,2.5466,2.3242,1.9831,1.8424,1.7814,1.7804,1.9186,2.1072,2.3415,2.5266,2.7224,2.9581,3.128,3.322,3.5691,3.6648,3.7779,3.9451,3.9577,3.938,3.8921,3.8483,3.8207,3.8192,3.781,3.7577,3.7558,3.7164,3.6987,3.6987,3.6987,3.6987,3.6987,3.6987,3.6869,3.6702,3.6702,3.6544,3.6301,3.6301,0.0,0.0,3.6301,3.6301,3.6172,3.4967,3.4049,3.3144,3.1504,3.0429,2.9677,2.9259,2.9075,2.9075,2.9075,2.9564,3.0227,3.0986,3.0686,3.0227,3.0923,3.0116,2.9045,2.8873,2.8794,2.8747,2.8508,2.8411,2.8411,2.8411,2.7959,2.7565,2.7565,2.721,2.6834,2.6834,2.6707,2.651,2.6336,2.6094,2.5714,2.5048,2.4948,2.4734,2.4171,2.4112,2.4112,2.4112,2.4112,2.4112,2.4112,2.4112,2.3936,2.3628,2.3628,2.3509,2.3138,2.3138,2.3138,2.3138,2.3138,2.3078,2.3078,2.3078,2.3439,3.201,3.2965,3.3376,3.2488,3.2254,3.1102,2.6844,2.4128,2.1713,1.8811,1.7144,1.6509,1.7516,1.8209,1.9619,2.2588,2.3602,2.5025,2.801,2.9401,3.1391,3.4781,3.5929,3.728,3.9395,3.9602,3.9406,3.8939,3.859,3.8271,3.8038,3.7739,3.7466,3.7259,3.7087,3.6987,3.6987,3.6987,3.6987,3.6987,3.6908,3.6829,3.6702,3.6602,3.6502,3.6301,3.6301,0.0,0.0,3.6111,3.5766,3.4973,3.4888,3.3997,3.2621,3.1653,3.0658,2.9722,2.9243,2.9075,2.9075,2.9075,2.9327,2.9674,3.0385,3.0101,2.969,3.0401,2.9832,2.8936,2.8826,2.87,2.8556,2.8411,2.8411,2.8411,2.8411,2.8186,2.791,2.7464,2.7195,2.6923,2.6453,2.604,2.5673,2.5673,2.5189,2.4751,2.4505,2.4447,2.439,2.4112,2.4112,2.4112,2.4112,2.4112,2.4112,2.4112,2.4112,2.3936,2.3628,2.3628,2.3437,2.3138,2.3078,2.3078,2.3078,2.3078,2.3078,2.3078,2.3489,2.3954,3.077,3.1748,3.2231,3.1622,3.1234,3.0015,2.6275,2.3405,2.0808,1.8241,1.6381,1.574,1.7399,1.7653,1.8647,2.178,2.2637,2.3895,2.6763,2.8245,3.0305,3.3638,3.4749,3.6214,3.8649,3.9252,3.9335,3.9007,3.8615,3.8267,3.7933,3.7649,3.7372,3.7105,3.7027,3.6987,3.6987,3.6987,3.6987,3.6987,3.6891,3.6788,3.6702,3.6602,3.6444,3.6301,3.6301,0.0,0.0,3.5766,3.5232,3.4111,3.4404,3.3694,3.24,3.17,3.0849,2.9924,2.947,2.9213,2.9075,2.9075,2.9029,2.9155,2.9879,2.9596,2.9264,3.0164,2.9674,2.8795,2.8732,2.8556,2.8411,2.8411,2.8411,2.8411,2.8411,2.8235,2.791,2.7399,2.7144,2.6768,2.6079,2.555,2.5119,2.4951,2.4492,2.4112,2.4112,2.4112,2.4112,2.4112,2.4112,2.4112,2.4112,2.4112,2.4054,2.4067,2.4067,2.3878,2.3569,2.3509,2.339,2.3138,2.3078,2.3165,2.3389,2.3389,2.3477,2.3578,2.4054,2.4531,2.9199,3.0021,3.0636,3.0694,3.0018,2.8657,2.6081,2.3488,2.085,1.8241,1.6422,1.5797,1.7394,1.769,1.8544,2.1105,2.2852,2.445,2.6072,2.8436,3.0592,3.2237,3.3072,3.4485,3.6971,3.844,3.921,3.9183,3.8597,0.0,3.7893,3.7504,3.7297,3.7314,3.7105,3.6987,3.6987,3.6987,3.6987,3.6987,3.6987,3.6869,3.6702,3.6702,3.6544,3.6301,0.0,0.0,0.0,3.5197,3.4766,3.4007,3.3231,3.2921,3.2762,3.1567,3.0845,3.0435,2.9968,2.9499,2.9075,2.8967,2.8904,2.8999,2.959,2.9469,2.9359,3.0633,2.9857,2.8573,2.8573,2.8493,2.8411,2.8411,2.8411,2.8411,2.8411,2.7845,2.7297,2.7297,2.673,2.6122,2.5508,2.5287,2.5007,2.4408,2.4216,2.4112,2.4112,2.4112,2.4112,2.4112,2.4112,2.4112,2.4112,2.4112,2.4067,2.3891,2.3891,2.3772,2.3403,2.3403,2.333,2.3078,2.3078,2.3414,2.3991,2.3991,2.4268,2.4808,2.4808,2.5096,2.6569,2.742,2.7919,2.7354,2.6537,2.551,2.4115,2.1764,1.948,1.8053,1.6424,1.5564,1.6688,1.7298,1.8663,2.1808,2.3216,2.469,2.6937,2.8827,3.0595,3.22,3.4973,3.7314,3.8705,3.9233,3.9362,3.9156,3.8942,3.8517,3.7879,3.7721,3.7485,3.7105,3.7009,3.6987,3.6987,3.6987,3.6987,3.6987,3.6987,3.6908,3.6748,3.6725,3.6602,0.0,0.0,0.0,0.0,3.499,3.4128,3.2541,3.28,3.2593,3.2035,3.1049,3.0601,3.0393,2.9589,2.9152,2.8967,2.8904,2.9202,2.9654,3.0276,3.006,2.9671,3.006,3.0102,2.9751,2.8821,2.8832,2.8981,2.8519,2.8411,2.8348,2.8299,2.7745,2.7129,2.6544,2.5918,2.5356,2.465,2.4492,2.4376,2.4216,2.4112,2.4112,2.4112,2.4112,2.4112,2.4112,2.4112,2.4112,2.4112,2.4112,2.4067,2.3891,2.4008,2.3819,2.3403,2.3509,2.3568,2.3715,2.3728,2.4004,2.4556,2.4556,2.4833,2.536,2.536,2.5649,2.4163,2.5286,2.5906,2.5697,2.4716,2.3583,2.2745,2.0502,1.8373,1.7525,1.6245,1.5636,1.6802,1.7406,1.8621,2.1353,2.2719,2.4208,2.6384,2.8351,3.0352,3.2561,3.5536,3.7765,3.8587,3.9245,3.9502,3.9256,3.897,3.8609,3.8165,3.7739,3.7394,3.7223,3.7087,3.6987,3.6987,3.6948,3.693,3.693,3.6908,3.6829,3.6708,3.6643,3.6544,0.0,0.0,0.0,0.0,3.4697,3.3766,3.2231,3.2421,3.2121,3.1466,3.0925,3.0518,3.014,2.9499,2.9106,2.8951,2.9124,2.9728,3.0499,3.0902,3.0798,3.0425,3.0161,3.0107,2.9929,2.9144,2.8953,2.8935,2.8504,2.8186,2.7959,2.7894,2.7297,2.6649,2.6119,2.57,2.5189,2.4549,2.4447,2.4332,2.4112,2.4112,2.4112,2.4112,2.4112,2.4054,2.4008,2.4008,2.3995,2.3936,2.3995,2.3949,2.3819,2.3819,2.37,2.333,2.3606,2.3824,2.3991,2.4205,2.4569,2.5109,2.5335,2.5598,2.5925,2.5925,2.6113,0.0,2.333,2.4213,2.4961,2.3893,2.245,2.1701,1.955,0.0,1.6759,1.5955,1.5927,1.7665,1.7944,1.8504,2.0379,2.1916,2.3437,2.5044,2.7438,3.0205,3.3298,3.5049,3.6268,3.7028,3.8544,3.9477,3.942,3.877,3.8436,3.864,3.765,3.7185,3.7469,3.7147,3.6987,3.6987,3.6869,3.6788,3.6788,3.6725,3.6643,3.6502,3.6502,3.6444,0.0,0.0,0.0,0.0,3.4387,3.3628,3.2835,3.2038,3.1504,3.1083,3.1044,3.0502,2.975,2.9617,2.9273,2.8936,2.9474,3.0438,3.1397,3.1443,3.1581,3.1495,3.0768,3.0099,2.952,2.9381,2.8904,2.8473,2.8411,2.7845,2.7348,2.7297,2.6596,2.5957,2.5957,2.5769,2.5522,2.5005,2.4948,2.4721,2.4171,2.4112,2.4112,2.4112,2.4112,2.4067,2.3891,2.3929,2.3896,2.368,2.3785,2.376,2.3569,2.345,2.333,2.3138,2.369,2.4017,2.4054,2.4644,2.5172,2.5661,2.6201,2.6533,2.6533,2.6533,2.6533,1.7806,0.0,2.0391,1.9935,1.9497,1.914,0.0,1.7888,1.6904,1.6714,1.5991,1.6127,1.8452,1.8313,1.9239,2.3573,2.4471,2.5393,2.7663,3.001,3.243,3.5021,3.5675,3.622,3.7028,3.7976,3.8503,3.8427,3.8775,3.8778,3.8281,3.7982,3.7613,3.7147,3.693,3.6869,3.6869,3.6829,3.6788,3.6725,3.6702,3.6684,3.6643,3.6544,3.6502,0.0,0.0,0.0,3.5128,3.4387,3.3628,3.2779,3.1701,3.1201,3.1044,3.0335,2.9924,2.9572,2.9227,2.8873,2.8871,2.9898,3.0735,3.149,3.1997,3.2222,3.1975,3.0803,3.0658,3.0582,2.9027,2.8904,2.9058,2.8535,2.8186,2.7845,2.7276,2.6558,2.5863,2.53,2.4821,2.4434,2.4332,2.4287,2.4287,2.4112,2.4112,2.4112,2.4112,2.4112,2.4067,2.3891,2.4279,2.4416,2.4208,2.3885,2.3628,2.3463,2.3509,2.345,2.3138,2.3813,2.4318,2.4619,2.5586,2.6138,2.6264,2.6458,2.6533,2.6533,2.6533,2.6533,1.5971,1.7671,1.9274,1.9216,1.8899,1.8603,1.8602,1.7294,1.6102,1.6095,1.6052,1.6653,1.8846,1.9437,2.0768,2.4321,2.5369,2.6701,2.9467,3.1274,3.3201,3.5597,3.5897,3.6216,0.0,3.7422,3.7617,3.7511,3.7726,3.7747,3.7484,3.6979,3.6609,3.6328,3.6309,3.6479,3.6788,3.6708,3.6626,3.6602,3.6544,3.6502,3.6502,3.6444,3.6402,0.0,0.0,0.0,3.5111,3.4007,3.3283,3.2779,3.1567,3.1004,3.0747,3.0038,2.9572,2.9227,2.8936,2.9136,2.9543,3.0181,3.1074,3.1921,3.2275,3.2182,3.1782,3.1059,3.0905,3.0628,2.9227,2.8904,2.8808,2.8391,2.7974,2.7479,2.673,2.604,2.5356,2.4721,2.4345,2.4204,2.4465,2.4282,2.4204,2.4465,2.4282,2.4112,2.4112,2.4067,2.404,2.412,2.4295,2.4528,2.4595,2.4342,2.4164,2.4102,2.4164,2.404,2.3904,2.4494,2.5048,2.5561,2.6163,2.6533,2.6533,2.6533,2.6533,2.6533,2.6533,2.6533,1.5714,1.7616,1.9589,1.9919,1.9642,1.9267,1.9129,1.7392,1.5792,1.5792,1.6494,1.7661,1.9522,2.0994,2.2546,2.4488,2.6025,2.8003,3.0977,3.1996,3.3277,3.5428,3.5709,3.5931,3.656,3.6723,3.6726,3.6552,3.6389,3.6334,3.6463,3.5625,3.52,3.5331,3.5453,3.5793,3.6382,3.6359,3.6329,3.6288,3.6067,3.5956,3.5956,3.5956,3.5956,3.5921,0.0,0.0,3.4921,3.3611,3.3007,3.2796,3.1703,3.0945,3.0435,2.9924,2.9393,2.8826,2.8779,2.9425,3.0274,3.0274,3.1105,3.209,3.209,3.169,3.1213,3.1052,3.0637,3.0104,2.9443,2.8793,2.8299,2.8122,2.7545,2.6849,2.6079,2.5412,2.4835,2.4229,2.4112,2.4295,2.487,2.4491,2.4334,2.4988,2.4609,2.4282,2.4301,2.4196,2.4197,2.4489,2.4493,2.4621,2.4908,2.5021,2.5136,2.5189,2.4973,2.4858,2.4933,2.536,2.5875,2.6521,2.6533,2.6533,2.6533,2.6533,2.6533,2.6533,2.6533,2.6533,1.72,1.8964,1.991,1.7826,1.831,1.9106,1.8368,1.7881,1.7608,1.7608,1.829,1.9628,2.199,2.2684,2.3893,2.6993,2.8636,3.0357,3.2789,3.3181,3.3627,3.4658,3.4789,3.4824,3.4892,3.5497,3.5746,3.5401,3.5873,3.5999,3.5468,3.5252,3.503,3.4654,3.4626,3.4613,3.4584,3.526,3.5509,3.5393,3.4731,3.4421,3.4421,3.4421,3.4421,3.4421,0.0,3.4249,3.4231,3.4007,3.3507,3.2848,3.2298,3.1357,3.0251,2.9793,2.9182,2.8621,2.8493,2.8919,2.9566,2.9566,3.0089,3.0668,3.0547,3.047,3.0219,2.9565,2.9439,2.9412,2.8735,2.8376,2.8122,2.7565,2.721,2.664,2.555,2.5147,2.4835,2.4229,2.4112,2.4295,2.487,2.4491,2.4406,2.5325,2.5136,2.494,2.5099,2.5226,2.5202,2.4925,2.5356,2.5595,2.5473,2.5925,2.6282,2.6269,2.5335,2.5021,2.546,2.5548,2.5875,2.6521,2.6533,2.6533,2.6533,2.6533,2.6533,2.6533,2.6533,2.6533,1.6379,1.8203,1.9614,1.8405,1.9732,2.1232,2.0809,1.9992,1.9487,1.9965,2.0753,2.1954,2.3923,2.5026,2.6525,2.9231,3.0638,3.1895,3.3259,3.3463,3.3744,3.4467,0.0,3.4517,3.4386,3.4736,3.4797,3.442,3.4715,3.4673,3.4191,3.3967,3.3752,3.3495,3.3609,3.363,3.3498,3.3861,3.4219,3.4594,3.4249,3.4093,3.4093,3.4093,3.4093,3.4059,0.0,3.3455,3.3421,3.3007,3.259,3.217,3.1726,3.1024,3.0081,2.9364,2.8889,2.8573,2.8444,2.8842,2.9412,2.9296,2.9756,3.0256,3.0121,2.9824,2.9489,2.9082,2.9109,2.9007,2.8335,2.789,2.7545,2.7159,2.673,2.6201,2.53,2.5048,2.4835,2.4229,2.436,2.4766,2.5328,2.4949,2.4797,2.5444,2.5156,2.4822,2.482,2.5052,2.5294,2.5483,2.5658,2.5791,2.6105,2.637,2.6533,2.6533,2.5988,2.5812,2.605,2.6063,2.6189,2.6521,2.6533,2.6533,2.6533,2.6533,2.6533,2.6533,2.6533,2.6533,1.5894,1.7461,1.915,1.9768,2.1372,2.2912,2.3257,2.2185,2.1405,2.2484,2.338,2.4319,2.5517,2.7028,2.881,3.1018,3.1984,3.2746,3.3534,3.3686,3.3932,3.4442,3.4495,3.4409,3.4293,3.4269,3.4099,3.368,3.3652,3.3465,3.3032,3.2734,3.2521,3.242,3.2702,3.2758,3.2645,3.2645,3.3041,3.3818,3.3628,3.3542,3.3503,3.3503,3.3503,3.3446,3.2827,3.2569,3.2534,3.2156,3.1751,3.1389,3.1269,3.0692,2.9777,2.8873,2.8525,2.8541,2.846,2.875,2.9116,2.9016,2.9302,2.9715,2.9544,2.9158,2.8713,2.8662,2.8662,2.8541,2.7926,2.7408,2.6953,2.6573,2.6133,2.5605,2.4935,2.4778,2.4677,2.4171,2.4583,2.5145,2.572,2.5397,2.5283,2.5871,2.5432,2.4985,2.4912,2.5179,2.5545,2.5975,2.5866,2.5975,2.6496,2.6533,2.6533,2.6533,2.6533,2.6533,2.6533,2.6533,2.6533,2.6533,2.6533,2.6533,2.6533,2.6533,2.6533,2.6533,2.6533,2.6533,1.7363,1.7948,1.8687,2.1103,2.1844,2.239,2.3946,2.3586,2.338,2.5077,2.6009,2.6572,2.6683,2.7903,2.9704,3.2095,3.2395,3.2808,3.422,3.4423,3.4461,3.4476,3.445,3.434,3.4221,3.4197,3.391,3.3202,3.3142,3.2862,3.2232,3.2179,3.2091,3.1966,3.1982,3.1962,3.1869,3.1869,3.2248,3.299,3.2283,3.1918,3.1788,3.1788,3.1768,3.1671,3.1619,3.1585,3.1637,3.2269,3.1902,3.0912,3.1582,3.0767,2.9196,2.8605,2.8396,2.8396,2.8396,2.8442,2.8424,2.8311,2.8278,2.829,2.8041,2.7896,2.7866,2.775,2.77,2.7619,2.724,2.7071,2.664,2.555,2.5203,2.4892,2.4287,2.4171,2.4171,2.4112,2.4583,2.5145,2.572,2.5584,2.5807,2.6729,2.6396,2.6085,2.635,2.6506,2.6557,2.6471,2.6471,2.6483,2.6533,2.6533,2.6533,2.6533,2.6533,2.6533,2.6533,2.6533,2.6533,2.6533,2.6533,2.6533,2.6533,2.6533,2.6533,2.6533,2.6533,2.6533,1.6191,1.7577,1.9175,2.0713,2.1883,2.3086,2.4752,2.5313,2.5956,2.7639,2.8196,2.8492,2.8962,2.9633,3.0473,3.1504,3.2354,3.306,3.3612,3.4132,3.4409,3.4363,3.4316,3.4245,3.4148,3.4099,3.3895,3.3426,3.322,3.2894,3.2438,3.2126,3.1948,3.1894,3.1839,3.1819,3.18,3.18,3.1901,3.2084,3.1883,3.1709,3.1617,3.1617,3.1559,3.1517,3.1517,3.1517,3.1496,3.1501,3.1177,3.0642,3.0185,2.9646,2.9074,2.851,2.8299,2.8299,2.8299,2.8201,2.8103,2.7989,2.794,2.794,2.7725,2.7675,2.7675,2.7625,2.7625,2.7575,2.7458,2.7086,2.6549,2.5783,2.5258,2.4778,2.4112,2.4008,2.3949,2.3806,2.4554,2.5239,2.5458,2.5717,2.596,2.6276,2.6095,2.5952,2.5967,2.6307,2.6589,2.6533,2.6533,2.6533,2.6533,2.6533,2.6533,2.6533,2.6533,2.6533,2.6533,2.6533,2.6533,2.6533,2.6533,2.6533,2.6533,2.6533,2.6533,2.6533,2.6533,2.6533,1.5817,1.7319,1.9168,2.0293,2.1835,2.3603,2.5576,2.6476,2.7444,2.941,2.9771,2.9865,3.0243,3.0441,3.0638,3.0973,3.2011,3.287,3.3131,3.3859,3.434,3.4269,3.4221,3.4124,3.4049,3.3998,3.3842,3.353,3.3202,3.2862,3.2521,3.2073,3.1821,3.1875,3.1783,3.1746,3.18,3.1746,3.1709,3.1617,3.1671,3.1634,3.1504,3.1504,3.1483,3.1402,3.1402,3.1402,3.1346,3.0902,3.046,2.9978,2.9028,2.8732,2.8685,2.8268,2.8137,2.8137,2.8137,2.8103,2.7955,2.784,2.779,2.779,2.7625,2.7625,2.7575,2.7524,2.7524,2.7524,2.7473,2.7049,2.6457,2.5618,2.5147,2.4664,2.3936,2.3819,2.376,2.3628,2.4525,2.5294,2.5294,2.5857,2.6276,2.6155,2.6155,2.6022,2.5862,2.6214,2.6533,2.6533,2.6533,2.6533,2.6533,2.6533,2.6533,2.6533,2.6533,2.6533,2.6533,2.6533,2.6533,2.6533,2.6533,2.6533,2.6533,2.6533,2.6533,2.6533,2.6533,2.6533,1.669,1.7339,1.8401,2.0071,2.1815,2.38,2.6325,2.6919,2.7634,3.0178,3.0698,3.0574,3.0171,3.0051,3.0194,3.0788,3.1442,3.2173,3.2952,3.3771,3.425,3.4179,3.413,3.4049,3.3921,3.3895,3.3716,3.335,3.3001,3.2651,3.2318,3.1875,3.1671,3.18,3.1671,3.1671,3.18,3.1671,3.1617,3.1579,3.1538,3.1423,3.1295,3.1295,3.1274,3.119,3.119,3.119,3.1151,3.0699,2.9865,2.8873,2.8365,2.8103,2.802,2.802,2.802,2.802,2.802,2.802,2.7955,2.784,2.779,2.779,2.7625,2.7625,2.7575,2.7437,2.7401,2.735,2.7233,2.6841,2.6176,2.5007,2.4624,2.435,2.3734,2.3628,2.3628,2.3628,2.4525,2.5294,2.5294,2.6098,2.6714,2.6714,2.6589,2.6533,2.6533,2.6533,2.6533,2.6533,2.6533,2.6533,2.6533,2.6533,2.6533,2.6533,2.6533,2.6533,2.6533,2.6533,2.6533,2.6533,2.6533,2.6533,2.6533,2.6533,2.6533,2.6533,2.6533,2.6533,1.5782,1.7326,1.9155,2.0184,2.266,2.5379,2.7297,2.8246,2.9055,3.0255,3.0414,3.0271,3.0061,2.9815,2.9755,3.0017,3.058,3.1043,3.124,3.2465,3.3271,3.3222,3.3666,3.3947,3.3895,3.386,3.3762,3.3597,3.3063,3.2669,3.2521,3.1875,3.1576,3.1671,3.1559,3.1559,3.1671,3.1559,3.1483,3.1372,3.1389,3.1351,3.1295,3.1295,3.1274,3.119,3.119,3.119,3.1151,3.0251,2.9287,2.8365,2.8039,2.7955,2.8005,2.7905,2.7855,2.7855,2.7855,2.779,2.7725,2.7675,2.7675,2.7625,2.7625,2.7625,2.7575,2.7437,2.7401,2.735,2.7233,2.7026,2.6592,2.5467,2.5175,2.4851,2.3675,2.3463,2.339,2.3258,2.3851,2.4482,2.4873,2.5517,2.6055,2.6539,2.6521,2.6533,2.6533,2.6533,2.6533,2.6533,2.6533,2.6533,2.6533,2.6533,2.6533,2.6533,2.6533,2.6533,2.6533,2.6533,2.6533,2.6533,2.6533,2.6533,2.6533,2.6533,2.6533,2.6533,2.6533,2.6533,1.6239,1.8069,2.0133,2.1595,2.4044,2.6641,2.8677,2.9505,2.9943,3.0297,3.0256,3.0094,2.988,2.9697,2.957,2.957,3.0122,3.055,3.0506,3.1575,3.2366,3.2293,3.2668,3.2937,3.2912,3.2852,3.28,3.2747,3.2234,3.184,3.165,3.1359,3.1151,3.1113,3.1329,3.1462,3.1559,3.1445,3.1368,3.1295,3.1274,3.1274,3.1274,3.1274,3.1252,3.119,3.119,3.0975,3.0518,2.9848,2.8966,2.8039,2.784,2.784,2.784,2.774,2.774,2.774,2.774,2.7675,2.7575,2.7524,2.7539,2.7539,2.7473,2.7423,2.7423,2.7299,2.7248,2.7196,2.7093,2.6989,2.6659,2.5577,2.5287,2.4894,2.3543,2.3271,2.3258,2.3138,2.3778,2.4431,2.4757,2.5435,2.605,2.6483,2.6533,2.6533,2.6533,2.6533,2.6533,2.6533,2.6533,2.6533,2.6533,2.6533,2.6533,2.6533,2.6533,2.6533,2.6533,2.6533,2.6533,2.6533,2.6533,2.6533,2.6533,2.6533,2.6533,2.6533,2.6533,2.6533,1.7404,1.911,2.097,2.3456,2.5546,2.764,3.0128,3.0535,3.0364,3.0287,3.0171,2.9961,2.9644,2.9626,2.9607,2.9429,2.9956,3.0394,3.0354,3.1016,3.1468,3.1396,3.1446,3.1458,3.1403,3.1327,3.1302,3.1276,3.0893,3.0505,3.0216,3.0418,3.0453,3.027,3.0789,3.1181,3.1376,3.1249,3.1227,3.1295,3.1213,3.119,3.119,3.119,3.119,3.119,3.119,3.0559,2.9585,2.9569,2.8857,2.779,2.779,2.7725,2.7625,2.7575,2.7575,2.7575,2.7575,2.7575,2.7524,2.7437,2.7401,2.735,2.7233,2.7181,2.7181,2.7055,2.7003,2.6951,2.6832,2.6779,2.6553,2.5522,2.5133,2.4667,2.3365,2.3078,2.3078,2.3078,2.3966,2.4707,2.4808,2.5649,2.6352,2.6508,2.6533,2.6533,2.6533,2.6533,2.6533,2.6533,2.6533,2.6533,2.6533,2.6533,2.6533,2.6533,2.6533,2.6533,2.6533,2.6533,2.6533,2.6533,2.6533,2.6533,2.6533,2.6533,2.6533,2.6533,2.6533,2.6533,1.6512,1.8192,1.9931,2.1798,2.5027,2.8276,3.0253,3.0413,3.0164,3.0152,2.9985,2.9777,2.9494,2.9454,2.9414,2.9344,2.9431,2.9521,2.9411,3.0093,3.0544,3.0491,3.0992,3.1352,3.1327,3.1258,3.1206,3.1146,3.0575,3.0185,3.0047,2.961,2.9377,2.9396,2.9457,2.9793,3.0483,3.0404,3.0654,0.0,3.119,3.119,3.119,3.119,3.119,3.119,3.1112,3.0477,2.9569,2.9374,2.8717,2.779,2.7675,2.7625,2.7575,2.7488,2.7437,2.7437,2.7335,2.7284,2.7284,2.7233,2.7233,2.7233,2.7233,2.7181,2.7181,2.7055,2.7003,2.6951,2.6832,2.6779,2.6606,2.5934,2.537,2.4667,2.3365,2.3078,2.3078,2.3078,2.3265,2.3778,2.4669,2.5021,2.5473,2.6395,2.6533,2.6533,2.6533,2.6533,2.6533,2.6533,2.6533,2.6533,2.6533,2.6533,2.6533,2.6533,2.6533,2.6533,2.6533,2.6533,2.6533,2.6533,2.6533,2.6533,2.6533,2.6533,2.6533,2.6533,2.6533,2.6533,1.6464,1.8514,2.0534,2.3453,2.6449,2.8916,2.987,3.0089,3.0089,3.0051,2.981,2.957,2.9414,2.9411,2.9388,2.9323,2.9262,2.9218,2.9112,2.9435,2.9646,2.9575,2.9917,3.0124,3.01,3.0031,2.993,2.9728,2.9362,2.8994,2.8676,2.868,2.8612,2.8471,2.8772,2.9161,2.9607,2.9492,2.9825,3.0572,3.0572,3.0757,3.1095,3.1095,3.1072,3.1032,3.0992,3.0335,2.939,2.9239,2.8622,2.7675,2.7539,2.7473,2.7488,2.7335,2.7284,2.7284,2.7233,2.7181,2.7181,2.7144,2.7093,2.7093,2.7041,2.7041,2.6974,2.6951,2.6899,2.6899,2.6832,2.6779,2.6674,2.6056,2.5425,2.4724,2.3767,2.3318,2.3078,2.3078,2.3516,2.413,2.472,2.5259,2.5799,2.6445,2.6533,2.6533,2.6533,2.6533,2.6533,2.6533,2.6533,2.6533,2.6533,2.6533,2.6533,2.6533,2.6533,2.6533,2.6533,2.6533,2.6533,2.6533,2.6533,2.6533,2.6533,2.6533,2.6533,2.6533,2.6533,2.6533,1.6194,1.8831,2.1483,2.564,2.7815,2.9036,2.9323,2.9644,2.9875,2.9969,2.9662,2.9392,2.9372,2.9388,2.9365,2.928,2.9218,2.9156,2.9089,2.904,2.8952,2.8905,2.8881,2.8839,2.8785,2.8669,2.8482,2.821,2.8047,2.7707,2.7213,2.7702,2.7878,2.7568,2.8104,2.8508,2.8752,2.8589,2.8921,2.9703,2.9703,3.0,3.0566,3.0566,3.07,3.0912,3.0773,3.0166,2.9178,2.9102,2.8465,2.7575,2.7437,2.7401,2.7401,2.7233,2.7181,2.7181,2.713,2.713,2.713,2.7003,2.6951,2.6951,2.6832,2.6779,2.6779,2.6779,2.6779,2.6779,2.6779,2.6779,2.6674,2.6056,2.5425,2.4851,2.4234,2.3603,2.3078,2.3078,2.4042,2.4845,2.4908,2.5774,2.6533,2.6533,2.6533,2.6533,2.6533,2.6533,2.6533,2.6533,2.6533,2.6533,2.6533,2.6533,2.6533,2.6533,2.6533,2.6533,2.6533,2.6533,2.6533,2.6533,2.6533,2.6533,2.6533,2.6533,2.6533,2.6533,2.6533,2.6533,1.403,1.7495,2.1357,2.489,2.6482,2.752,2.8971,2.9094,2.9083,2.9775,2.9644,2.9372,2.9326,2.9304,2.9262,2.9152,2.913,2.9108,2.9017,2.8952,2.8905,2.8905,2.881,2.8718,2.8718,2.8386,2.8156,2.8129,2.7636,2.7276,2.7117,2.691,2.6792,2.6671,2.6754,2.7106,2.778,2.7743,2.8129,2.885,2.885,2.8824,2.8848,2.8848,2.9571,3.0871,3.0342,2.9761,2.9148,2.8654,2.8125,2.7575,2.7437,2.7401,2.735,2.7107,2.7055,2.7003,2.6884,2.6832,2.6832,2.6832,2.6832,2.6832,2.6779,2.6779,2.6779,2.6779,2.6779,2.6779,2.6779,2.6779,2.6674,2.6056,2.5425,2.4851,2.4234,2.3603,2.3078,2.3078,2.4042,2.4921,2.5234,2.6017,2.6533,2.6533,2.6533,2.6533,2.6533,2.6533,2.6533,2.6533,2.6533,2.6533,2.6533,2.6533,2.6533,2.6533,2.6533,2.6533,2.6533,2.6533,2.6533,2.6533,2.6533,2.6533,2.6533,2.6533,2.6533,2.6533,2.6533,2.6533,1.4525,1.7952,2.1197,2.4135,2.5485,2.6366,2.7489,2.7884,2.8217,2.8909,2.8821,2.8771,2.9272,2.9323,2.928,2.9156,2.9112,2.9044,2.8952,2.8929,2.8863,2.881,2.8743,2.8601,2.8404,2.821,2.7946,2.7577,2.7289,2.7038,2.6759,2.6606,2.652,2.6485,2.6434,2.6584,2.6989,2.6847,2.7214,2.7968,2.8251,2.8373,2.834,2.8162,2.8451,2.9066,2.882,2.8281,2.7653,2.7721,2.7415,2.6932,2.7187,2.7248,2.7159,2.6951,2.6899,2.6899,2.6832,2.6779,2.6779,2.6779,2.6779,2.6779,2.6779,2.6779,2.6779,2.6779,2.6779,2.6727,2.6394,2.6286,2.6233,2.5839,2.509,2.4452,2.4292,2.3649,2.3265,2.3954,2.4305,2.4808,2.5812,2.6319,2.6533,2.6533,2.6533,2.6533,2.6533,2.6533,2.6533,2.6533,2.6533,2.6533,2.6533,2.6533,2.6533,2.6533,2.6533,2.6533,2.6533,2.6533,2.6533,2.6533,2.6533,2.6533,2.6533,2.6533,2.6533,2.6533,2.6533,2.6533,1.4709,1.7555,1.9852,2.2629,2.3921,2.4834,2.5957,2.6546,2.7101,2.7972,2.7904,2.7894,2.8604,2.9005,2.9218,2.9175,2.9089,2.9021,2.891,2.8863,2.8815,2.8718,2.8601,2.843,2.8129,2.7964,2.7648,2.7149,2.7038,2.6825,2.6468,2.6434,2.645,2.6415,2.6329,2.6329,2.6415,2.6239,2.6432,2.7018,2.7317,2.7502,2.7547,2.725,2.7034,2.688,2.7249,2.6988,2.6319,2.6673,2.6509,2.6179,2.6503,2.6593,2.6535,2.6526,2.6533,2.6547,2.6721,2.6779,2.6779,2.6779,2.6779,2.6779,2.6779,2.6779,2.6779,2.6779,2.6674,2.6447,2.6002,2.5893,2.5839,2.5495,2.4978,2.4465,2.4118,2.3658,2.364,2.4632,2.4657,2.4933,2.6239,2.6533,2.6533,2.6533,2.6533,2.6533,2.6533,2.6533,2.6533,2.6533,2.6533,2.6533,2.6533,2.6533,2.6533,2.6533,2.6533,2.6533,2.6533,2.6533,2.6533,2.6533,2.6533,2.6533,2.6533,2.6533,2.6533,2.6533,2.6533,2.6533,1.3275,1.4921,1.6463,1.9773,2.1268,2.252,2.4904,2.5233,2.5489,2.7119,2.7135,2.6894,2.6931,2.8144,2.9085,2.9017,2.8952,2.8905,2.8905,2.8791,2.8694,2.8694,2.836,2.8129,2.8102,2.7577,2.7213,2.7117,2.6792,2.6521,2.633,2.6295,2.6277,2.622,2.6203,2.6203,2.622,2.6007,2.595,2.5983,2.5815,2.5718,2.5718,2.5397,2.4989,2.4657,2.5994,2.6348,2.5986,2.555,2.5405,2.5357,2.5228,2.5194,2.5267,2.5668,2.5836,2.5923,2.6562,2.6779,2.6779,2.6779,2.6779,2.6779,2.6779,2.6779,2.6779,2.6779,2.6394,2.5948,2.5893,2.5893,2.577,2.5189,2.5425,2.5314,2.3531,2.3565,2.413,2.4707,2.5084,2.5615,2.6395,2.6533,2.6533,2.6533,2.6533,2.6533,2.6533,2.6533,2.6533,2.6533,2.6533,2.6533,2.6533,2.6533,2.6533,2.6533,2.6533,2.6533,2.6533,2.6533,2.6533,2.6533,2.6533,2.6533,2.6533,2.6533,2.6533,2.6533,2.6533,2.6533,1.1429,1.3836,1.6592,1.8358,1.9774,2.1086,2.2403,2.3372,2.4289,2.533,2.5763,2.6132,2.6628,2.7601,2.8312,2.8227,2.8622,2.8881,2.8767,2.8718,2.8669,2.8637,2.8273,2.7964,2.7747,2.7269,2.6889,2.659,0.0,2.6347,2.6222,2.6222,2.6239,2.622,2.6059,2.5934,2.5807,2.5749,2.5712,2.5696,2.5508,2.5394,2.5394,2.4926,2.4508,2.4151,2.4394,2.4431,2.4298,2.4532,2.4631,2.4567,2.493,2.5043,2.4912,2.511,2.5197,2.527,2.5923,2.6141,2.6213,2.6649,2.6779,2.6779,2.6779,2.6779,2.6727,2.634,2.634,2.6272,2.5536,2.5605,2.566,2.4637,2.4292,2.3943,2.3258,2.359,2.4167,2.472,2.4933,2.5322,2.6302,2.6533,2.6533,2.6533,2.6533,2.6533,2.6533,2.6533,2.6533,2.6533,2.6533,2.6533,2.6533,2.6533,2.6533,2.6533,2.6533,2.6533,2.6533,2.6533,2.6533,2.6533,2.6533,2.6533,2.6533,2.6533,2.6533,2.6533,2.6533,2.6533,1.0021,1.2506,1.5675,1.7103,1.8009,1.9023,2.0853,2.1798,2.2641,2.3873,2.4429,2.493,2.572,2.6489,2.7093,2.7303,2.7712,2.7989,2.7846,2.8057,2.8171,2.807,2.7895,2.7678,2.7452,2.7034,2.6657,2.633,0.0,0.0,2.6203,2.6132,2.6059,2.6007,2.5881,2.5733,2.5605,2.5524,2.5486,2.5508,2.5162,2.5021,2.5021,2.4385,2.4009,2.3797,2.3392,2.3216,2.3186,2.364,2.3771,2.3754,2.4192,2.4305,2.4177,2.4457,2.4481,2.4457,2.5156,2.5503,2.5749,2.6197,2.6538,2.6779,2.6779,2.6779,2.6727,2.6286,2.634,2.6272,2.5245,2.5147,2.5147,2.4523,2.3884,2.3424,2.3424,2.37,2.4167,2.472,2.5121,2.5598,2.6395,2.6533,2.6533,2.6533,2.6533,2.6533,2.6533,2.6533,2.6533,2.6533,2.6533,2.6533,2.6533,2.6533,2.6533,2.6533,2.6533,2.6533,2.6533,2.6533,2.6533,2.6533,2.6533,2.6533,2.6533,2.6533,2.6533,2.6533,2.6533,2.6533,0.0,0.0,0.0,1.5913,1.5926,1.6381,2.0353,2.0527,2.0505,2.2816,2.3143,2.327,2.3988,2.4719,2.5466,2.6169,2.6285,2.6254,2.6116,2.6705,2.7107,2.6986,2.711,2.7234,2.7269,2.6774,2.6417,0.0,2.6295,2.6277,2.6168,2.6007,2.5807,2.5605,2.5605,2.5605,2.5567,2.5394,2.5294,2.5256,2.4742,2.4498,2.4457,2.3724,2.3406,2.3363,2.3053,2.2888,2.2888,2.2888,2.2888,2.2888,2.2888,2.2888,2.2975,2.363,2.3706,2.3555,2.4226,2.4876,2.5363,2.5377,2.5992,2.675,2.675,2.6765,2.6779,2.6779,2.634,2.5784,2.5189,2.4567,2.4292,2.4851,2.4509,2.4073,2.4073,2.3991,2.4142,2.4695,2.5699,2.6533,2.6533,2.6533,2.6533,2.6533,2.6533,2.6533,2.6533,2.6533,2.6533,2.6533,2.6533,2.6533,2.6533,2.6533,2.6533,2.6533,2.6533,2.6533,2.6533,2.6533,2.6533,2.6533,2.6533,2.6533,2.6533,2.6533,2.6533,2.6533,2.6533,2.6533,1.026,0.0,0.0,0.0,0.0,0.0,1.7538,1.8383,1.9273,2.0431,2.1067,2.1634,2.2281,2.2995,2.3538,2.3694,2.5081,2.6134,2.6099,2.6182,2.6165,2.5932,2.5701,2.5717,2.6082,2.5615,2.5466,0.0,2.6026,2.5954,2.577,2.5733,2.5584,2.5394,2.5394,2.5317,2.5162,2.5123,2.4966,2.4742,2.458,2.4374,2.4109,2.3638,2.3406,2.3363,2.3053,2.2888,2.2888,2.2888,2.2888,2.2888,2.2752,2.2661,2.2675,2.2662,2.2625,2.2663,2.3251,2.3723,2.4083,2.4619,2.5344,2.6068,2.6068,2.6402,2.6727,2.6286,2.634,2.6394,2.5825,2.5189,2.4681,2.4408,2.3826,2.3365,2.3365,2.3371,2.354,2.4117,2.5435,2.6533,2.6533,2.6533,2.6533,2.6533,2.6533,2.6533,2.6533,2.6533,2.6533,2.6533,2.6533,2.6533,2.6533,2.6533,2.6533,2.6533,2.6533,2.6533,2.6533,2.6533,2.6533,2.6533,2.6533,2.6533,2.6533,2.6533,2.6533,2.6533,2.6533,2.6533,1.1218,1.2714,1.4718,1.4574,0.0,0.0,1.6598,1.7205,1.7836,1.8814,1.9643,2.0388,2.1038,2.1735,2.2204,2.2124,2.3426,2.458,2.4956,2.5183,2.5187,2.4857,2.4809,2.4868,2.5019,2.463,2.4601,2.5265,2.5314,2.5371,2.5492,2.547,2.5394,2.5178,2.5162,2.5123,2.5005,2.4846,2.4701,2.4498,2.4177,2.3952,2.3739,2.3348,2.3216,2.3172,2.2963,2.2843,2.2752,2.2752,2.2752,2.2752,2.2661,2.2509,2.2417,2.2278,2.2137,2.2085,2.2544,2.2983,2.341,2.394,2.4681,2.5386,2.5386,2.585,2.6307,2.5979,2.5884,2.5851,2.5591,2.4851,2.4047,2.3767,2.3365,2.3078,2.3078,2.3078,2.3178,2.3577,2.4418,2.5372,2.637,2.6533,2.6533,2.6533,2.6533,2.6533,2.6533,2.6533,2.6533,2.6533,2.6533,2.6533,2.6533,2.6533,2.6533,2.6533,2.6533,2.6533,2.6533,2.6533,2.6533,2.6533,2.6533,2.6533,2.6533,2.6533,2.6533,2.6533,2.6533,2.6533,1.2215,1.3005,1.4437,1.5119,1.4849,0.0,1.6731,1.6626,1.6498,1.7701,1.8495,1.9158,1.9892,2.0572,2.1005,2.093,2.1447,2.2189,2.3204,2.391,2.4214,2.3796,2.415,2.4299,2.3979,2.3671,2.3746,2.4321,2.4414,2.4664,2.5134,2.5246,2.5162,2.5005,2.5005,2.5005,2.5005,2.4661,2.4498,2.4457,2.3724,2.3363,2.3319,2.3053,2.2888,2.2843,2.2843,2.2752,2.2555,2.2555,2.2555,2.2555,2.2509,2.237,2.2137,2.2137,2.1996,2.1841,2.2091,2.2536,2.3096,2.3336,2.3971,2.4684,2.4684,2.5177,2.5691,2.5712,2.5227,2.4754,2.4838,2.3989,2.3078,2.3078,2.3078,2.3078,2.3078,2.3078,2.3017,2.3017,2.3078,2.3766,2.5749,2.6302,2.6533,2.6533,2.6533,2.6533,2.6533,2.6533,2.6533,2.6533,2.6533,2.6533,2.6533,2.6533,2.6533,2.6533,2.6533,2.6533,2.6533,2.6533,2.6533,2.6533,2.6533,2.6533,2.6533,2.6533,2.6533,2.6533,2.6533,2.6533,1.3788,1.4734,1.5878,1.5352,1.6152,0.0,1.5849,1.6042,1.6433,1.6497,1.6613,1.6899,1.7477,1.8161,1.8642,1.856,1.956,2.0815,2.2189,2.2959,2.3204,2.2811,2.2705,2.2769,2.293,2.2621,2.271,2.3398,2.3777,2.4121,2.4383,2.4805,2.5045,2.5005,2.5005,2.5005,2.5005,2.4661,2.4359,2.4109,2.3638,2.3246,2.3023,2.2933,2.2797,2.2661,2.2661,2.2509,2.2278,2.2278,2.2278,2.2278,2.2044,2.1949,2.1841,2.1664,2.1664,2.1793,2.1841,2.2255,2.2694,2.274,2.3216,2.3779,2.3779,2.4433,2.517,2.5312,2.501,2.4584,2.4137,2.4047,2.3943,2.3245,2.3078,2.3078,2.3078,2.2726,2.2371,2.2371,2.2787,2.3215,2.3703,2.5272,2.6533,2.6533,2.6533,2.6533,2.6533,2.6533,2.6533,2.6533,2.6533,2.6533,2.6533,2.6533,2.6533,2.6533,2.6533,2.6533,2.6533,2.6533,2.6533,2.6533,2.6533,2.6533,2.6533,2.6533,2.6533,2.6533,2.6533,2.6533,1.4835,1.5529,1.6411,1.5962,1.6509,0.0,0.0,1.5725,1.5757,1.5958,1.5929,1.6065,1.6721,1.7096,1.7258,1.7181,1.8253,1.9235,1.9656,2.0853,2.1596,2.1301,2.1349,2.1379,2.1355,2.1521,2.1837,2.2452,2.3043,2.3581,2.4026,2.4331,2.4602,2.5005,2.5005,2.4926,2.4742,2.44,2.4067,2.3696,2.3348,2.3008,2.2752,2.2752,2.2615,2.2417,2.2417,2.2231,2.1996,2.2137,2.2044,2.1793,2.1793,2.1698,2.1616,2.1616,2.1664,2.1793,2.1949,2.2184,2.2417,2.2417,2.263,2.2838,2.2838,2.3441,2.4221,2.4491,2.4356,2.4079,2.3859,2.3682,2.3518,2.3185,2.3078,2.3017,2.2726,2.2432,2.2197,2.2197,2.2665,2.3017,2.2726,2.3879,2.5184,2.6357,2.6533,2.6533,2.6533,2.6533,2.6533,2.6533,2.6533,2.6533,2.6533,2.6533,2.6533,2.6533,2.6533,2.6533,2.6533,2.6533,2.6533,2.6533,2.6533,2.6533,2.6533,2.6533,2.6533,2.6533,2.6533,2.6396,1.5906,1.6329,0.0,0.0,0.0,1.6797,0.0,0.0,0.0,1.5583,1.5519,1.5587,1.6228,1.624,0.0,1.6031,0.0,0.0,0.0,1.8263,0.0,1.9617,2.007,2.023,1.9911,2.0238,2.0767,2.1568,2.1916,2.2501,2.3465,2.3781,2.4176,2.4784,2.4863,2.4766,2.4498,2.4109,2.3739,2.3406,2.3008,2.2752,2.2615,2.2555,2.237,2.2137,2.2137,2.1996,2.1746,2.1996,2.1841,2.1423,2.1712,2.1664,2.1423,2.1664,2.1746,2.1841,2.2044,2.2184,2.2184,2.2184,2.2123,2.201,2.2074,2.2374,2.2857,2.339,2.3384,2.3259,2.3479,2.316,2.2823,2.2957,2.2957,2.2775,2.2309,2.2197,2.2197,2.2197,2.2604,2.2787,2.2432,2.2787,2.374,2.5548,2.5824,2.5824,2.5824,2.5824,2.5988,2.6483,2.6533,2.6533,2.6533,2.6533,2.6533,2.6533,2.6533,2.6533,2.6533,2.6533,2.6533,2.6533,2.6533,2.6383,2.6245,2.6383,2.6533,2.6533,2.6465,2.6258,1.7623,0.0,0.0,0.0,1.7531,0.0,0.0,0.0,1.5881,1.4949,0.0,1.4718,1.4678,0.0,0.0,0.0,0.0,0.0,1.4641,1.5523,1.6767,1.8224,1.9027,1.9432,1.9381,1.8591,1.8851,2.0763,1.983,2.0036,2.2011,2.3259,2.3954,2.4033,2.4373,2.4539,2.4498,2.3809,2.345,2.3406,2.2859,2.2615,2.2615,2.237,2.2091,2.1841,2.1841,2.1712,2.1471,2.1746,2.1664,2.1423,2.1712,2.1664,2.1423,2.1423,2.1616,2.1793,2.1841,2.1996,2.2184,2.2184,2.1779,2.138,2.1645,2.1263,2.0941,2.2027,2.2043,2.1932,2.2408,2.2531,2.2592,2.2739,2.2494,2.2247,2.2197,2.2197,2.2197,2.2197,2.2247,2.2432,2.2896,2.3078,2.3165,2.3477,2.3514,2.3514,2.3514,2.3514,2.4268,2.6251,2.6533,2.6533,2.6533,2.6533,2.6533,2.6533,2.6533,2.6533,2.6533,2.6533,2.6533,2.6533,2.6533,2.6164,2.5453,2.6164,2.6533,2.6452,2.6245,2.6037,0.0,0.0,0.0,0.0,0.0,0.0,1.6117,0.0,1.5395,0.0,0.0,0.0,0.0,0.0,0.0,0.0,1.4709,0.0,0.0,0.0,1.5727,0.0,0.0,0.0,1.8361,0.0,0.0,0.0,1.8706,1.907,2.1142,2.2201,2.3101,2.3891,2.3881,2.3983,2.4193,2.3681,2.3246,2.2949,2.2692,2.2417,2.2137,2.2044,2.1793,2.1568,2.1568,2.152,2.1423,2.1712,2.1664,2.1423,2.1712,2.1664,2.1423,2.1568,2.1712,2.1793,2.1793,2.1841,2.1888,2.1492,2.1188,2.0898,2.0605,2.0441,2.0531,2.1153,2.1492,2.1739,2.2286,2.2482,2.2469,2.2432,2.2321,2.2197,2.2197,2.2197,2.2309,2.2665,2.2726,2.2775,2.3078,2.3078,2.3078,2.3078,2.3078,2.3078,2.3078,2.3078,2.3489,2.4431,2.5686,2.6533,2.6533,2.6533,2.6533,2.6533,2.6533,2.6533,2.6533,2.6533,2.6533,2.6533,2.6025,2.5664,2.5312,2.5664,2.5886,2.6188,2.6107,2.6037,1.8129,0.0,0.0,0.0,0.0,0.0,0.0,0.0,0.0,0.0,0.0,0.0,0.0,0.0,1.4824,1.4467,0.0,1.4496,0.0,1.4088,0.0,0.0,0.0,0.0,0.0,0.0,0.0,0.0,0.0,1.7753,2.0383,2.1205,2.2102,2.3195,2.3266,2.3381,2.3583,2.3347,2.2994,2.2615,2.2463,2.2184,2.1793,2.1698,2.1568,2.1423,2.1423,2.1423,2.1423,2.1712,2.1664,2.1423,2.1712,2.1664,2.1423,2.1616,2.1712,2.1712,2.1712,2.1712,2.1554,2.0858,2.066,2.051,1.9811,1.9784,2.0146,2.0633,2.1049,2.1498,2.2189,2.2359,2.2359,2.2247,2.2197,2.2197,2.2197,2.2247,2.2432,2.2787,2.3017,2.3078,2.2896,2.2836,2.2896,2.3078,2.2957,2.2896,2.3078,2.2957,2.2896,2.3078,2.4582,2.5799,2.6483,2.6314,2.6176,2.6176,2.6383,2.6533,2.6533,2.6314,2.6176,2.6176,2.5594,2.5312,2.5312,2.5382,2.5535,2.5828,2.5886,2.5898,0.0,0.0,0.0,1.7603,0.0,0.0,0.0,0.0,1.6379,0.0,0.0,0.0,0.0,1.5911,1.6096,1.5294,1.513,0.0,0.0,0.0,0.0,0.0,0.0,0.0,0.0,1.4083,1.4137,0.0,1.5241,0.0,1.9609,2.0462,2.1023,2.1466,2.2408,2.2787,2.2557,2.2614,2.2615,2.2615,2.2091,2.1793,2.1793,2.152,2.1423,2.1423,2.1423,2.1423,2.1423,2.1712,2.1664,2.1423,2.1712,2.1664,2.1423,2.1423,2.1423,2.1423,2.1423,2.1423,2.1277,2.0472,2.0233,2.0131,1.9708,1.9368,1.9239,2.031,2.061,2.0897,2.1909,2.2197,2.2197,2.2197,2.2197,2.2197,2.2197,2.2445,2.2616,2.2321,2.2726,2.2896,2.2309,2.2247,2.2432,2.3017,2.2604,2.2432,2.3017,2.2604,2.2432,2.3017,2.314,2.4117,2.6345,2.5816,2.5312,2.5312,2.6094,2.6533,2.6533,2.5734,2.5312,2.5312,2.5312,2.5312,2.5312,2.5594,2.5676,2.5606,2.5606,2.5606,0.0,0.0,2.1156,1.9059,0.0,0.0,0.0,0.0,0.0,0.0,0.0,0.0,0.0,1.5882,1.6118,1.5272,1.5117,1.4556,0.0,0.0,0.0,0.0,0.0,1.4155,0.0,0.0,0.0,0.0,1.5066,0.0,0.0,1.9296,2.0071,2.0736,2.1523,2.2081,2.2217,2.2465,2.2417,2.2091,2.1902,2.1712,2.152,2.1423,2.1423,2.1423,2.1423,2.1423,2.1423,2.152,2.1471,2.1423,2.152,2.1471,2.1423,2.1423,2.1423,2.1423,2.1423,2.1215,2.0908,2.0372,2.0029,1.9708,1.9303,1.9093,1.9215,2.031,2.0586,2.0873,2.1909,2.2197,2.2197,2.2197,2.2197,2.2197,2.2197,2.2321,2.2321,2.2185,2.2371,2.2432,2.2259,2.2197,2.2247,2.2494,2.2309,2.2432,2.3017,2.2896,2.2726,2.2543,2.2482,2.3347,2.5481,2.5453,2.5523,2.6025,2.5886,2.511,2.3704,2.4715,2.5312,2.5312,2.5312,2.5312,2.5312,2.5382,2.5453,2.5382,2.5382,2.5453,2.1534,2.1842,0.0,1.9831,1.9255,0.0,1.6309,0.0,1.6695,0.0,0.0,0.0,0.0,0.0,1.6165,1.5766,1.5344,1.4616,0.0,1.3,0.0,0.0,1.3429,1.3376,1.3527,1.1969,1.2036,1.4717,1.4072,0.0,0.0,0.0,1.9242,1.9854,2.0617,2.1234,2.1612,2.1853,2.1913,2.1793,2.1712,2.1568,2.1423,2.1423,2.1423,2.1423,2.1423,2.1423,2.1423,2.1423,2.1423,2.1423,2.1423,2.1423,2.1423,2.1423,2.1423,2.1375,2.1215,2.1104,2.0908,2.022,1.9926,1.972,1.9146,1.8987,1.9179,2.0069,2.0442,2.0791,2.168,2.2053,2.2197,2.2197,2.2197,2.2197,2.2197,2.2197,2.2197,2.2197,2.2197,2.2197,2.2197,2.2197,2.2197,2.2197,2.2197,2.2309,2.2726,2.2775,2.2604,2.2247,2.2197,2.2739,2.4085,2.4206,2.4408,2.4954,2.4475,2.3592,2.2246,2.3484,2.4206,2.4206,2.4927,2.5312,2.5312,2.5312,2.5312,2.5312,2.5312,2.5382]},{"header":{"parameterUnit":"m.s-1","parameterCategory":1,"la1":30.6,"la2":29.2853,"lo1":-89.7004,"lo2":-87.6739,"dy":0.0162,"dx":0.0183,"nx":112,"ny":82,"refTime":"2024-09-17T06:00:00:Z","depth":0,"parameterNumber":3,"parameterNumberName":"V-component_of_WINDS"},"data":[0.0,0.0,0.0,0.0,0.0,0.0,0.0,0.0,0.0,0.0,0.0,0.0,0.0,0.0,0.0,0.0,0.0,0.0,0.0,0.0,0.0,0.0,0.0,0.0,0.0,0.0,0.0,0.0,0.0,0.0,0.0,0.0,0.0,0.0,0.0,0.0,0.0,0.0,0.0,0.0,0.0,0.0,0.0,0.0,0.0,0.0,0.0,0.0,0.0,0.0,0.0,0.0,0.0,0.0,0.0,0.0,0.0,0.0,0.0,0.0,0.0,0.0,0.0,0.0,0.0,0.0,0.0,0.0,0.0,0.0,0.0,0.0,0.0,0.0,0.0,0.0,0.0,0.0,0.0,0.0,0.0,0.0,0.0,0.0,0.0,0.0,0.0,0.0,0.0,0.0,1.4038,1.5014,1.7916,1.9713,1.9545,1.9981,1.913,1.6532,0.0,0.0,0.0,0.0,0.0,0.0,0.0,0.0,0.0,0.0,0.0,0.0,0.0,0.0,0.0,0.0,0.0,0.0,0.0,0.0,0.0,0.0,0.0,0.0,0.0,0.0,0.0,0.0,0.0,0.0,0.0,0.0,0.0,0.0,0.0,0.0,0.0,0.0,0.0,0.0,0.0,0.0,0.0,0.0,0.0,0.0,0.0,0.0,0.0,0.0,0.0,0.0,0.0,0.0,0.0,0.0,0.0,0.0,0.0,0.0,0.0,0.0,0.0,0.0,0.0,0.0,0.0,0.0,0.0,0.0,0.0,0.0,0.0,0.0,0.0,0.0,0.0,0.0,0.0,0.0,0.0,0.0,0.0,0.0,0.0,0.0,0.0,0.0,0.0,0.0,0.0,0.0,0.0,0.0,0.0,0.0,0.0,0.0,0.0,0.0,0.0,0.0,0.0,0.0,1.4261,1.7182,1.9258,2.0351,2.0092,2.0542,1.9769,1.7214,0.0,0.0,0.0,0.0,0.0,0.0,0.0,0.0,0.0,0.0,0.0,0.0,0.0,0.0,0.0,0.0,0.0,0.0,0.0,0.0,0.0,0.0,0.0,0.0,0.0,0.0,0.0,0.0,0.0,0.0,0.0,0.0,0.0,0.0,0.0,0.0,0.0,0.0,0.0,0.0,0.0,0.0,0.0,0.0,0.0,0.0,0.0,0.0,0.0,0.0,0.0,0.0,0.0,0.0,0.0,0.0,0.0,0.0,0.0,0.0,0.0,0.0,0.0,0.0,0.0,0.0,0.0,0.0,0.0,0.0,0.0,0.0,0.0,0.0,0.0,0.0,0.0,0.0,0.0,0.0,0.0,0.0,0.0,0.0,0.0,0.0,0.0,0.0,0.0,0.0,0.0,0.0,0.0,0.0,0.0,0.0,0.0,0.0,0.0,0.0,0.0,0.0,0.0,1.3594,1.533,1.8226,1.9966,2.09,2.0745,2.0912,1.9914,1.7359,1.5066,0.0,0.0,0.0,0.0,0.0,0.0,0.0,0.0,0.0,0.0,0.0,0.0,0.0,0.0,0.0,0.0,0.0,0.0,0.0,0.0,0.0,0.0,0.0,0.0,0.0,0.0,0.0,0.0,0.0,0.0,0.0,0.0,0.0,0.0,0.0,0.0,0.0,0.0,0.0,0.0,0.0,0.0,0.0,0.0,0.0,0.0,0.0,0.0,0.0,0.0,0.0,0.0,0.0,0.0,0.0,0.0,0.0,0.0,0.0,0.0,0.0,0.0,0.0,0.0,0.0,0.0,0.0,0.0,0.0,0.0,0.0,0.0,0.0,0.0,0.0,0.0,0.0,0.0,0.0,0.0,0.0,0.0,0.0,0.0,0.0,0.0,0.0,0.0,0.0,0.0,0.0,0.0,0.0,0.0,0.0,0.0,0.0,0.0,0.0,0.0,0.0,0.0,1.5147,1.6598,1.8526,2.0239,2.1125,2.1032,2.0741,1.9522,1.7127,1.4456,0.0,0.0,0.0,0.0,0.0,0.0,0.0,0.0,0.0,0.0,0.0,0.0,0.0,0.0,0.0,0.0,0.0,0.0,0.0,0.0,0.0,0.0,0.0,0.0,0.0,0.0,0.0,0.0,0.0,0.0,0.0,0.0,0.0,0.0,0.0,0.0,0.0,0.0,0.0,0.0,0.0,0.0,0.0,0.0,0.0,0.0,0.0,0.0,0.0,0.0,0.0,0.0,0.0,0.0,0.0,0.0,0.0,0.0,0.0,0.0,0.0,0.0,0.0,0.0,0.0,0.0,0.0,0.0,0.0,0.0,0.0,0.0,0.0,0.0,0.0,0.0,0.0,0.0,0.0,0.0,0.0,0.0,0.0,0.0,0.0,0.0,0.0,0.0,0.0,0.0,0.0,0.0,0.0,0.0,0.0,0.0,0.0,0.0,0.0,0.0,0.0,0.0,1.5551,1.7615,1.8012,1.9952,2.0994,2.0495,1.9682,1.839,1.6401,1.3365,0.0,0.0,0.0,0.0,0.0,0.0,0.0,0.0,0.0,0.0,0.0,0.0,0.0,0.0,0.0,0.0,0.0,0.0,0.0,0.0,0.0,0.0,0.0,0.0,0.0,0.0,0.0,0.0,0.0,0.0,0.0,0.0,0.0,0.0,0.0,0.0,0.0,0.0,0.0,0.0,0.0,0.0,0.0,0.0,0.0,0.0,0.0,0.0,0.0,0.0,0.0,0.0,0.0,0.0,0.0,0.0,0.0,0.0,0.0,0.0,0.0,0.0,0.0,0.0,0.0,0.0,0.0,0.0,0.0,0.0,0.0,0.0,0.0,0.0,0.0,0.0,0.0,0.0,0.0,0.0,0.0,0.0,0.0,0.0,0.0,0.0,0.0,0.0,0.0,0.0,0.0,0.0,0.0,0.0,0.0,0.0,0.0,0.0,0.0,0.0,0.0,0.0,1.4945,1.7002,1.8372,2.0061,2.1042,2.0896,2.0527,1.9116,1.6387,0.0,0.0,0.0,0.0,0.0,0.0,0.0,0.0,0.0,0.0,0.0,0.0,0.0,0.0,0.0,0.0,0.0,0.0,0.0,0.0,0.0,0.0,0.0,0.0,0.0,0.0,0.0,0.0,0.0,0.0,0.0,0.0,0.0,0.0,0.0,0.0,0.0,0.0,0.0,0.0,0.0,0.0,0.0,0.0,0.0,0.0,0.0,0.0,0.0,0.0,0.0,0.0,0.0,0.0,0.0,0.0,0.0,0.0,0.0,0.0,0.0,0.0,0.0,0.0,0.0,0.0,0.0,0.0,0.0,0.0,0.0,0.0,0.0,0.0,0.0,0.0,0.0,0.0,0.0,0.0,0.0,0.0,0.0,0.0,0.0,0.0,0.0,0.0,0.0,0.0,0.0,0.0,0.0,0.0,0.0,0.0,0.0,0.0,0.0,0.0,0.0,0.0,1.2537,1.4711,1.6642,1.824,1.9625,2.0449,2.0605,2.0314,1.8912,1.6065,0.0,0.0,0.0,0.0,0.0,0.0,0.0,0.0,0.0,0.0,0.0,0.0,0.0,0.0,0.0,0.0,0.0,0.0,0.0,0.0,0.0,0.0,0.0,0.0,0.0,0.0,0.0,0.0,0.0,0.0,0.0,0.0,0.0,0.0,0.0,0.0,0.0,0.0,0.0,0.0,0.0,0.0,0.0,0.0,0.0,0.0,0.0,0.0,0.0,0.0,0.0,0.0,0.0,0.0,0.0,0.0,0.0,0.0,0.0,0.0,0.0,0.0,0.0,0.0,0.0,0.0,0.0,0.0,0.0,0.0,0.0,0.0,0.0,0.0,0.0,0.0,0.0,0.0,0.0,0.0,0.0,0.0,0.0,0.0,0.0,0.0,0.0,0.0,0.0,0.0,0.0,0.0,0.0,0.0,0.0,0.0,0.0,0.0,0.0,0.0,0.0,0.0,1.2577,1.4983,1.6869,1.752,1.8583,1.9208,1.9279,1.8644,1.7354,0.0,0.0,0.0,0.0,0.0,0.0,0.0,0.0,0.0,0.0,0.0,0.0,0.0,0.0,0.0,0.0,0.0,0.0,0.0,0.0,0.0,0.0,0.0,0.0,0.0,0.0,0.0,0.0,0.0,0.0,0.0,0.0,0.0,0.0,0.0,0.0,0.0,0.0,0.0,0.0,0.0,0.0,0.0,0.0,0.0,0.0,0.0,0.0,0.0,0.0,0.0,0.0,0.0,0.0,0.0,0.0,0.0,0.0,0.0,0.0,0.0,0.0,0.0,0.0,0.0,0.0,0.0,0.0,0.0,0.0,0.0,0.0,0.0,0.0,0.0,0.0,0.0,0.0,0.0,0.0,0.0,0.0,0.0,0.0,0.0,0.0,0.0,0.0,0.0,0.0,0.0,0.0,0.0,0.0,0.0,0.0,0.0,0.0,0.0,0.0,0.0,0.0,0.0,1.2577,1.5274,1.7355,1.8003,1.9026,1.9677,1.9725,1.9591,1.8332,1.5457,0.0,0.0,0.0,0.0,0.0,0.0,0.0,0.0,0.0,0.0,0.0,0.0,0.0,0.0,0.0,0.0,0.0,0.0,0.0,0.0,0.0,0.0,0.0,0.0,0.0,0.0,0.0,0.0,0.0,0.0,0.0,0.0,0.0,0.0,0.0,0.0,0.0,0.0,0.0,0.0,0.0,0.0,0.0,0.0,0.0,0.0,0.0,0.0,0.0,0.0,0.0,0.0,0.0,0.0,0.0,0.0,0.0,0.0,0.0,0.0,0.0,0.0,0.0,0.0,0.0,0.0,0.0,0.0,0.0,0.0,0.0,0.0,0.0,0.0,0.0,0.0,0.0,0.0,0.0,0.0,0.0,0.0,0.0,0.0,0.0,0.0,0.0,0.0,0.0,0.0,0.0,0.0,0.0,0.0,0.0,0.0,0.0,0.0,0.0,0.0,0.0,0.0,1.2577,1.5037,1.701,1.7803,1.8475,1.9043,1.947,1.9606,1.8528,1.5833,0.0,0.0,0.0,0.0,0.0,0.0,0.0,0.0,0.0,0.0,0.0,0.0,0.0,0.0,0.0,0.0,0.0,0.0,0.0,0.0,0.0,0.0,0.0,0.0,0.0,0.0,0.0,0.0,0.0,0.0,0.0,0.0,0.0,0.0,0.0,0.0,0.0,0.0,0.0,0.0,0.0,0.0,0.0,0.0,0.0,0.0,0.0,0.0,0.0,0.0,0.0,0.0,0.0,0.0,0.0,0.0,0.0,0.0,0.0,0.0,0.0,0.0,0.0,0.0,0.0,0.0,0.0,0.0,0.0,0.0,0.0,0.0,0.0,0.0,0.0,0.0,0.0,0.0,0.0,0.0,0.0,0.0,0.0,0.0,0.0,0.0,0.0,0.0,0.0,0.0,0.0,0.0,0.0,0.0,0.0,0.0,0.0,0.0,0.0,0.0,0.0,0.0,1.2707,1.4708,1.6414,1.7395,1.7505,1.7907,1.8879,1.8973,1.8238,1.6409,0.0,0.0,0.0,0.0,0.0,0.0,0.0,0.0,0.0,0.0,0.0,0.0,0.0,0.0,0.0,0.0,0.0,0.0,0.0,0.0,0.0,0.0,0.0,0.0,0.0,0.0,0.0,0.0,0.0,0.0,0.0,0.0,0.0,0.0,0.0,0.0,0.0,0.0,0.0,0.0,0.0,0.0,0.0,0.0,0.0,0.0,0.0,0.0,0.0,0.0,0.0,0.0,0.0,0.0,0.0,0.0,0.0,0.0,0.0,0.0,0.8477,0.0,0.0,0.0,0.0,0.0,0.0,0.0,0.0,0.0,0.0,0.0,0.0,0.0,0.0,0.0,0.0,0.0,0.0,0.0,0.0,0.0,0.0,0.0,0.0,0.0,0.0,0.0,0.0,0.0,0.0,0.0,0.0,0.0,0.0,0.0,0.0,0.0,0.0,0.0,0.0,0.0,1.3758,1.612,1.8,1.9066,1.9126,1.9221,1.9496,1.9208,1.8425,1.7064,1.5775,0.0,0.0,0.0,0.0,0.0,0.0,0.0,0.0,0.0,0.0,0.0,0.0,0.0,0.0,0.0,0.0,0.0,0.0,0.0,0.0,0.0,0.0,0.0,0.0,0.0,0.0,0.0,0.0,0.0,0.0,0.0,0.0,0.0,0.0,0.0,0.0,0.0,0.0,0.0,0.0,0.0,0.0,0.0,0.0,0.0,0.0,0.0,0.0,0.0,0.0,0.0,0.0,0.0,0.0,0.0,0.0,0.0,0.0,0.0,0.0,0.995,0.0,0.0,0.0,0.0,0.0,0.0,0.0,0.0,0.0,0.0,0.0,0.0,0.0,0.0,0.0,0.0,0.0,0.0,0.0,0.0,0.0,0.0,0.0,0.0,0.0,0.0,0.0,0.0,0.0,0.0,0.0,0.0,0.0,0.0,0.0,0.0,0.0,0.0,0.0,0.0,1.4076,1.6341,1.8182,1.9208,1.9535,1.967,1.9648,1.9441,1.8841,1.7667,1.6717,0.0,0.0,0.0,0.0,0.0,0.0,0.0,0.0,0.0,0.0,0.0,0.0,0.0,0.0,0.0,0.0,0.0,0.0,0.0,0.0,0.0,0.0,0.0,0.0,0.0,0.0,0.0,0.0,0.0,0.0,0.0,0.0,0.0,0.0,0.0,0.0,0.0,0.0,0.0,0.0,0.0,0.0,0.0,0.0,0.0,0.0,0.0,0.0,0.0,0.0,0.0,0.0,0.0,1.0841,1.1226,1.1669,1.1871,1.2426,1.309,1.2215,1.1967,1.2035,1.1164,0.0,0.0,0.0,0.0,0.0,0.0,0.0,0.0,0.0,0.0,0.0,0.0,0.0,0.0,0.0,0.0,0.0,0.0,0.0,0.0,0.0,0.0,0.0,0.0,1.5433,1.6037,0.0,0.0,0.0,0.0,0.0,0.0,0.0,0.0,0.0,0.0,0.0,0.0,1.4481,1.6554,1.8195,1.9239,1.9714,1.9956,1.9921,1.9774,1.9323,1.8403,1.7725,1.6605,0.0,0.0,0.0,0.0,0.0,0.0,0.0,0.0,0.0,0.0,0.0,0.0,0.0,0.0,0.0,0.0,0.0,0.0,0.0,0.0,0.0,0.0,0.0,0.0,0.0,0.0,0.0,0.0,0.0,0.0,0.0,0.0,0.6519,0.72,0.0,0.0,0.0,0.0,0.0,0.0,0.0,0.0,0.0,0.0,0.0,0.0,0.0,0.9889,1.0677,1.1587,1.21,1.2204,1.3058,1.3305,1.3023,1.3183,1.3513,1.3942,1.4105,0.0,1.2979,1.2214,0.0,0.0,0.0,0.0,0.0,0.0,0.0,0.0,0.0,0.0,0.0,0.0,0.0,0.0,0.0,0.0,0.0,0.0,0.0,0.0,0.0,0.0,1.6848,1.6896,1.7111,1.7171,0.0,1.5143,1.3291,1.1842,1.1497,0.0,0.0,0.0,0.0,0.0,0.0,0.0,1.6065,1.8171,1.989,2.0981,2.1089,2.1117,2.1165,2.0272,1.9695,1.9645,1.865,1.7693,1.6866,1.5124,0.0,0.0,0.0,0.0,0.0,0.0,0.0,0.0,0.0,0.0,0.0,0.0,0.0,0.0,0.0,0.0,0.0,0.0,0.0,0.0,0.0,0.0,0.0,0.0,0.0,0.0,0.0,0.0,0.0,0.5938,0.6804,0.7251,0.7159,0.6758,0.0,0.0,0.0,0.0,0.0,0.0,0.0,0.0,0.0,1.0406,1.1131,1.1786,1.2479,1.3005,1.3387,1.362,1.4032,1.4148,1.3983,1.4137,1.4417,1.4799,1.479,1.4735,1.4468,1.3551,1.2849,1.2253,0.0,0.0,0.0,0.0,1.1865,1.2101,1.2849,1.3062,0.0,1.2594,0.0,0.0,0.0,0.0,0.0,0.0,0.0,0.0,0.0,0.0,1.7166,1.7606,1.7996,1.8127,1.7929,1.7075,1.5903,0.0,1.367,1.3004,1.1668,0.0,0.0,0.0,0.0,1.5278,1.7225,1.8848,2.0223,2.1307,2.1652,2.1682,2.1389,2.0983,2.0641,2.0353,1.9652,1.897,1.8303,1.6764,1.5168,0.0,0.0,0.0,0.0,0.0,0.0,0.0,0.0,0.0,0.0,0.0,0.0,0.0,0.0,0.0,0.0,0.0,0.0,0.0,0.0,0.0,0.0,0.0,0.0,0.0,0.0,0.0,0.0,0.66,0.7399,0.7641,0.8044,0.7944,0.0,0.0,0.0,0.0,0.0,0.0,0.9678,1.0701,1.1436,1.1827,1.2642,1.342,1.4087,1.4182,1.446,1.4974,1.4864,1.4808,1.4808,1.4911,1.5139,1.5427,1.5303,1.5402,1.5581,1.4506,1.3863,1.3528,1.2985,1.2783,1.2789,1.3195,1.3385,1.3652,1.474,1.4942,1.4666,1.4604,0.0,1.3769,1.2636,0.0,0.0,0.0,0.0,1.4963,1.5777,1.661,1.7425,1.7996,1.846,1.8744,1.839,1.8358,1.7927,0.0,1.5742,1.4979,1.3729,0.0,0.0,0.0,0.0,1.6402,1.8191,1.9473,2.0527,2.1321,2.1888,2.2002,2.1583,2.1579,2.1383,2.0969,2.0561,2.0045,1.9377,1.8288,1.6866,1.5095,0.0,0.0,0.0,0.0,0.0,0.0,0.0,0.0,0.0,0.0,0.0,0.0,0.0,0.0,0.0,0.0,0.0,0.0,0.0,0.0,0.0,0.0,0.0,0.0,0.0,0.0,0.0,0.0,0.0,0.9252,1.0174,0.0,0.0,0.0,0.0,0.9817,1.0166,1.0732,1.1527,1.2228,1.2778,1.3102,1.3635,1.4434,1.5396,1.5159,1.5441,1.6221,1.5817,1.5634,1.5634,1.5625,1.5643,1.5725,1.5771,1.5899,1.5824,1.4711,1.4308,1.4316,1.367,1.3457,1.3457,1.361,1.3938,1.4307,1.4189,1.4369,1.469,1.5279,1.533,1.5183,1.513,1.4763,0.0,0.0,1.5953,1.6804,1.7484,1.8113,1.8513,1.8578,1.8721,1.8786,1.8762,1.8762,1.8494,0.0,1.7315,1.7063,1.6395,0.0,1.6392,1.6335,1.7306,1.8254,1.8857,2.0364,2.1334,2.1361,2.1888,2.217,2.2142,2.1835,2.1568,2.1539,2.1181,2.0683,2.0074,1.9377,1.839,1.7084,1.5197,0.0,0.0,0.0,0.0,0.0,0.0,0.0,0.0,0.0,0.0,0.0,0.0,0.0,0.0,0.0,0.0,0.0,0.0,0.0,0.0,0.0,0.0,0.0,0.0,0.0,0.0,0.0,0.0,1.0347,1.1099,0.0,1.0444,1.0725,1.1013,1.0954,1.1707,1.2315,1.2848,1.3596,1.4013,1.4147,1.4994,1.5526,1.5677,1.6069,1.6404,1.6688,1.6541,1.6468,1.6468,1.6468,1.6615,1.6835,1.6655,1.6683,1.6849,1.6095,1.5723,1.5622,1.5143,1.5143,1.5381,1.5321,1.5476,1.5664,1.5654,1.5838,1.6075,1.6644,1.6757,1.6832,1.7597,1.7677,1.7656,1.8123,1.8552,1.8827,1.8975,1.8916,1.8844,1.901,1.8873,1.8732,1.8893,1.8946,1.8838,1.8506,1.8056,1.7623,1.7183,1.7375,1.7471,1.7135,1.8647,2.0016,2.0514,2.1765,2.2615,2.2512,2.2678,2.2667,2.2352,2.2264,2.21,2.1743,2.1281,2.0727,2.0117,1.9464,1.8709,1.7867,1.675,1.5139,0.0,0.0,0.0,0.0,0.0,0.0,0.0,0.0,0.0,0.0,0.0,0.0,0.0,0.0,0.0,0.0,0.0,0.0,0.0,0.0,0.0,0.0,0.0,0.0,0.0,0.9573,1.0825,1.1138,1.2049,1.2368,1.1599,1.2075,1.2504,1.2579,1.3314,1.3896,1.4264,1.4898,1.5189,1.5069,1.58,1.621,1.6225,1.6763,1.7104,1.7321,1.7321,1.7321,1.7321,1.7321,1.7458,1.7697,1.7431,1.7468,1.7651,1.719,1.7032,1.7026,1.6243,1.6316,1.6826,1.6631,1.6719,1.6974,1.7002,1.7264,1.7554,1.783,1.8078,1.8379,1.9126,1.9346,1.9406,1.9736,1.9854,1.9795,1.9748,1.9436,1.9218,1.939,1.9095,1.8818,1.9048,1.9012,1.8946,1.8987,1.8658,1.8259,1.8013,1.8229,1.835,1.7951,1.9443,2.0758,2.1107,2.2342,2.3197,2.3091,2.3097,2.2977,2.2663,2.2406,2.2083,2.1743,2.1253,2.07,2.0117,1.9464,1.8825,1.8216,1.733,1.5922,1.4049,0.0,0.0,0.0,0.0,0.0,0.0,0.0,0.0,0.0,0.0,0.0,0.0,0.0,0.0,0.0,0.0,0.0,0.0,0.0,0.0,0.0,0.0,0.0,0.89,1.0548,1.1776,1.159,1.3087,1.3831,1.323,1.338,1.3887,1.4658,1.5035,1.5403,1.5797,1.6156,1.6191,1.5848,1.5964,1.6359,1.7044,1.7198,1.7551,1.8164,1.8164,1.8164,1.8164,1.8164,1.8164,1.8164,1.8164,1.8164,1.8128,1.7851,1.7998,1.8276,1.6835,1.686,1.7782,1.7456,1.7719,1.8203,1.8203,1.8559,1.9033,1.8841,1.9235,1.9769,1.978,1.978,1.978,1.978,1.978,1.978,1.9769,1.9757,1.9734,1.9723,1.9402,1.9179,1.9315,1.9093,1.8899,1.897,1.9011,1.9011,1.8987,1.8999,1.897,1.8851,1.9836,0.0,2.0459,2.2024,2.3126,2.3126,2.3077,2.3126,2.3097,2.2108,2.1536,2.1554,2.114,2.0645,2.0103,1.9449,1.884,1.8245,1.6924,1.5937,1.5342,0.0,0.0,0.0,0.0,0.0,0.0,0.0,0.0,0.0,0.0,0.0,0.0,0.0,0.0,0.0,0.0,0.0,0.0,0.0,0.0,0.0,0.913,1.0483,1.0447,1.1751,1.2756,1.2983,1.3454,1.3872,1.4231,1.4545,1.4949,1.5454,1.5583,1.5797,1.6165,1.6285,1.6422,1.661,1.7026,1.7445,1.7769,1.8285,1.8638,1.8981,1.8981,1.8981,1.8981,1.8981,1.8981,1.8981,1.8981,1.8981,1.8944,1.8711,1.8776,1.892,1.7729,1.7713,1.8247,1.8654,1.9312,2.0162,2.0238,2.0406,2.0614,2.0914,2.1168,2.1388,2.1755,2.1858,2.1858,2.1858,2.1858,2.1778,2.141,2.1032,2.0726,2.0407,2.0099,1.9842,1.9842,1.9977,1.9945,1.9471,1.9497,1.9444,1.9059,1.9312,1.9432,1.8994,2.0583,0.0,2.1263,2.2729,2.3635,2.3149,2.3098,2.3022,2.2746,2.2034,2.1479,2.1196,2.0616,2.0034,1.9406,1.9203,1.9029,1.8854,1.7592,1.6605,0.0,0.0,0.0,0.0,0.0,0.0,0.0,0.0,0.0,0.0,0.0,0.0,0.0,0.0,0.0,0.0,0.0,0.0,0.0,0.0,0.0,0.0,1.0017,1.1219,1.147,1.2417,1.3208,1.3566,1.3737,1.4055,1.4624,1.496,1.5329,1.5707,1.6101,1.643,1.679,1.6961,1.715,1.7381,1.7682,1.8031,1.818,1.8647,1.9002,1.9152,1.9222,1.9301,1.9301,1.9301,1.9301,0.0,1.9301,1.9301,1.9283,1.9141,1.9178,0.0,0.0,0.0,0.0,0.0,2.0586,2.1191,2.161,2.1765,2.1847,2.2145,2.2249,2.2294,2.2593,2.2685,2.2685,2.2685,2.2685,2.2616,2.2317,2.2019,2.1786,2.155,2.1151,2.0845,2.0745,2.0547,2.027,1.971,1.9545,0.0,1.9047,1.9239,1.9348,1.8994,2.0456,2.1472,2.1081,2.2592,2.3546,2.3128,2.3128,2.3027,2.2831,2.2047,0.0,0.0,0.0,1.9628,1.8767,1.8724,0.0,0.0,0.0,0.0,0.0,0.0,0.0,0.0,1.6812,1.6518,0.0,0.0,0.0,0.0,0.0,0.0,0.0,0.0,0.0,0.0,0.0,0.0,0.0,0.0,0.0,0.0,1.0804,1.1777,1.1862,1.2552,1.3144,1.3486,1.3758,1.4135,1.464,1.4977,1.5364,1.5831,1.6548,1.7115,1.7518,0.0,0.0,0.0,0.0,1.8121,1.8442,1.8612,1.8772,1.9002,1.9152,1.9301,1.9301,1.9301,1.9301,1.9301,1.9301,1.9301,1.9301,1.9301,1.9301,1.9228,1.892,1.9348,2.0236,2.1161,2.1642,2.1934,2.2639,0.0,0.0,2.2857,2.2857,2.2857,2.2857,2.2857,2.2857,2.2857,2.2857,2.2834,2.2777,2.2765,2.2754,2.2696,2.234,2.1935,2.1736,2.1028,2.0299,1.9941,1.9492,1.9131,1.9011,1.8987,1.8946,1.8851,1.9811,2.0497,2.0434,2.1893,2.2916,2.2986,0.0,0.0,2.3,2.2104,2.1549,2.1641,2.0623,1.9575,1.8564,1.8521,1.8782,1.9304,1.9304,1.9909,2.1167,2.1167,2.1292,2.1444,1.8885,1.8281,0.0,0.0,0.0,0.0,0.0,0.0,0.0,0.0,0.0,0.0,0.0,0.0,0.0,0.0,0.0,0.9046,1.0355,1.1228,1.0771,1.1621,1.2448,1.3013,1.3004,1.3467,1.4866,1.5339,1.5907,1.7029,1.7224,1.7451,1.784,1.7997,1.804,1.804,1.804,1.8121,1.8442,1.8442,1.8603,1.9002,0.0,0.0,1.9301,1.9301,1.9301,1.9301,1.9301,1.9301,1.9301,1.9301,1.9301,1.9283,1.9206,2.0091,2.1429,2.1668,2.2559,2.3674,2.383,2.3902,2.3902,2.3902,2.3902,2.3902,2.3902,2.3902,0.0,2.3902,2.3902,2.381,2.3408,2.3223,2.319,2.2777,2.2728,2.2576,2.2155,2.2145,2.1779,2.0439,2.0232,2.0021,1.9143,1.8987,1.8987,1.8999,1.9552,2.0105,2.051,2.126,2.1874,2.2351,2.2355,2.2406,2.2556,2.1966,2.1625,2.1757,2.1166,2.0712,2.0465,2.0465,2.0509,2.0625,2.0625,2.0756,2.1044,2.1167,2.1501,2.1999,2.1039,2.074,0.0,0.0,0.0,0.0,0.0,0.0,0.0,0.0,0.0,0.0,0.0,0.8811,0.8564,0.0,0.9585,0.9934,1.0542,1.1019,1.0949,1.1294,1.1819,1.2678,1.291,1.3514,1.487,1.5484,1.6124,1.6714,1.6976,1.7191,1.7422,1.7412,1.7475,1.7475,1.7475,1.7475,1.7631,1.7778,1.7934,1.8252,1.8527,1.8774,1.9017,1.921,1.9301,1.9301,1.9301,1.9301,1.9301,1.9301,1.9301,1.9301,1.9301,2.007,2.1231,2.1614,2.2521,2.3677,2.4043,2.42,2.42,2.42,2.42,2.4154,2.389,2.3821,2.3821,2.3821,2.3638,2.3442,2.3442,2.3259,2.2995,2.2742,2.2741,2.2671,2.2306,2.2122,2.1757,2.0819,2.0522,2.0208,1.9407,1.9329,1.93,1.9035,1.9448,2.0003,2.051,2.1068,2.1629,2.2124,2.22,2.2249,2.2297,2.2197,2.1995,2.1801,2.1585,2.1336,2.1003,2.1003,2.1148,2.1481,2.1496,2.1698,2.2061,2.2104,2.2408,2.2847,2.2564,2.2401,0.0,0.0,0.0,0.0,0.0,0.0,0.0,0.8435,0.82,0.9384,0.9598,0.9689,0.9968,0.9892,1.0089,1.0881,1.0885,1.0976,1.1346,1.139,1.1648,1.2355,1.2933,1.3773,1.4925,1.5539,1.5906,1.5988,1.6381,1.6645,1.6723,1.6843,1.6918,1.6918,1.6918,1.6918,1.6918,1.7061,1.7212,1.7446,1.7975,1.8357,1.8528,1.8926,1.9072,1.9072,1.9072,1.9072,1.9072,1.9072,1.9072,1.9072,1.9072,1.9676,2.0609,2.1466,2.2381,2.3298,2.397,2.42,2.42,2.42,2.4131,2.3971,2.3569,2.3303,2.3223,2.3223,2.2995,2.2777,2.319,2.2995,2.2685,2.2685,2.2685,2.2615,2.224,2.1876,2.1463,2.1016,2.0665,2.032,1.9797,1.973,1.96,1.9071,1.9344,1.9901,2.051,2.097,2.1506,2.2137,2.2184,2.2231,2.2231,2.2463,2.2446,2.2032,2.2091,2.1931,2.1394,2.138,2.1627,2.2164,2.2178,2.2483,2.3037,2.3127,2.3246,2.3466,2.3643,2.3659,0.8751,0.8656,0.8837,0.9737,0.962,0.9883,0.0,1.1776,1.1066,1.2266,1.2049,1.1525,1.1109,1.0785,1.0644,1.0703,1.0995,1.1153,1.1082,1.1988,1.2444,1.1848,1.2556,1.3681,1.517,1.5145,1.5242,1.5637,1.5779,1.596,1.6343,1.6699,1.6918,1.6918,1.6918,1.6918,1.6918,1.6918,1.7061,1.7203,1.7481,1.7725,1.795,1.8154,1.8256,1.8256,1.8256,1.8256,1.8256,1.8256,1.8256,1.8256,1.8256,1.911,2.0494,2.1455,2.2745,2.4043,2.42,2.42,2.42,2.42,2.389,2.3452,2.3395,2.3121,2.2765,2.2765,2.2719,2.2696,2.2742,2.2719,2.2685,2.2685,2.2685,2.2615,2.224,2.2155,2.1894,2.1221,2.1033,2.089,2.0553,2.0105,1.96,1.9071,1.904,1.9448,2.0459,2.066,2.1055,2.2077,2.2184,2.2231,2.237,2.2509,2.2646,2.2694,2.2756,2.2757,2.2685,2.2685,2.2714,2.2786,2.2786,2.283,2.2947,2.3157,2.3275,2.3334,2.4104,2.4477,0.93,0.9642,0.9926,1.0016,1.0187,1.0695,1.2228,1.1604,1.1249,1.3157,1.2551,1.1729,1.1719,1.1395,1.1088,1.0919,1.1067,1.1227,1.1145,1.1857,1.2122,1.1772,1.232,1.3159,1.4282,1.4332,1.4531,1.4914,1.4965,1.5062,1.5213,1.57,1.5886,1.5886,1.6113,1.637,1.6576,1.637,1.6444,1.6872,1.6963,1.7184,1.7469,1.7787,1.797,1.8128,1.8128,1.8128,1.8128,1.8128,1.8128,1.8128,1.8128,1.9039,2.042,2.0814,2.1984,2.3316,2.3316,2.3316,2.3316,2.3316,2.3178,2.2949,2.265,2.2409,2.2237,2.2237,2.203,2.187,2.2168,2.2019,2.1801,2.1801,2.192,2.1927,2.1771,2.1812,2.1823,2.1513,2.1493,2.1437,2.0974,2.0816,2.0538,2.0009,1.9396,1.9413,2.0447,2.0616,2.1006,2.2091,2.2184,2.2231,2.2278,2.2463,2.2615,2.2675,2.2812,2.2888,2.2888,2.2888,2.2888,2.2888,2.2992,2.3037,2.3037,2.3598,2.391,2.403,2.4744,2.5312,0.9337,1.0035,1.0519,0.998,1.037,1.103,1.1518,1.0992,1.1007,1.311,1.2247,1.1329,1.1979,1.1585,1.1087,1.0941,1.109,1.1252,1.1252,1.1623,1.1688,1.1358,1.1727,1.2201,1.2678,1.3317,1.385,1.4355,1.4396,1.4416,1.4416,1.4913,1.5204,1.5204,1.5677,1.6071,1.6328,1.6182,1.6315,1.6655,1.6811,1.6958,1.7324,1.7559,1.7788,1.7944,1.7834,1.7789,1.7789,1.7789,1.7789,1.7789,1.7789,1.8548,1.9726,1.9937,2.1159,2.2685,2.2685,2.2685,2.2685,2.2685,2.2581,2.2398,2.2042,2.1824,2.172,2.172,2.1445,2.1314,2.1617,2.1433,2.1221,2.1221,2.1273,2.1388,2.1388,2.1549,2.1698,2.1761,2.1812,2.1806,2.1437,2.138,2.132,2.1091,2.0129,1.9836,2.0898,2.1198,2.1475,2.1916,2.2137,2.2231,2.2231,2.2463,2.2615,2.2661,2.2812,2.2888,2.2888,2.2888,2.2888,2.2888,2.3037,2.317,2.339,2.4011,2.4473,2.4758,2.5429,2.6027,0.8417,0.9163,1.0051,0.978,1.0374,1.0983,1.0854,1.0688,1.0883,1.2041,1.1263,1.0717,1.1782,1.1275,1.0638,1.0643,1.0842,1.0993,1.0993,1.1438,1.1346,1.0488,1.0701,1.0896,1.0646,1.2133,1.339,1.3996,1.405,1.4145,1.4145,1.4776,1.5204,1.5204,1.5986,1.6336,1.6328,1.6704,1.6893,1.6901,1.7119,1.7269,1.7495,1.747,1.7513,1.7495,1.711,1.6945,1.6945,1.6945,1.6945,1.6945,1.6945,1.7411,1.8144,1.8818,2.0595,2.2685,2.2685,2.2685,2.2685,2.2685,2.2352,2.195,2.1927,2.1583,2.1244,2.1244,2.1244,2.1233,2.1244,2.1244,2.1221,2.1221,2.1273,2.1388,2.1388,2.1549,2.1761,2.1874,2.1925,2.1987,2.2173,2.174,2.1572,2.2065,2.1247,2.0937,2.2079,2.2719,2.2589,2.1526,2.1902,2.2231,2.237,2.2509,2.2675,2.2809,2.2872,2.2888,2.2888,2.2888,2.2888,2.2888,2.3037,2.3434,2.4063,2.4384,2.4787,2.5396,2.6195,2.6572,0.87,0.9363,1.0085,1.0708,1.0981,1.1166,1.1759,1.0996,1.0486,1.1523,1.0627,0.9897,1.0523,1.0202,0.9896,1.0058,1.0439,1.0751,1.0751,1.1249,1.1197,1.0171,1.0494,1.0718,1.0538,1.1489,1.2452,1.3054,1.3477,1.3799,1.4022,1.4762,1.5299,1.5541,1.6279,1.6841,1.7081,1.6978,1.7047,1.7278,1.7249,1.7278,1.7512,1.7333,1.7351,1.7477,1.7073,1.6908,1.6908,1.6908,1.7064,1.7321,1.7605,1.7962,1.8507,1.9473,2.0296,2.1062,2.1533,2.1675,2.1675,2.1675,2.156,2.1422,2.1422,2.1307,2.1221,2.1221,2.1221,2.1221,2.1221,2.1221,2.1221,2.1221,2.1423,2.1612,2.1612,2.1812,2.2073,2.2061,2.2123,2.2123,2.2197,2.2041,2.2153,2.2725,2.2191,2.187,2.2252,2.2841,2.323,2.32,2.2944,2.2836,2.298,2.2751,2.2675,2.2795,2.2857,2.2888,2.2888,2.2888,2.3091,2.3557,2.3771,2.4217,2.4835,2.553,2.6001,2.6225,2.6931,2.7245,0.8498,0.9007,0.9425,1.0355,1.0364,1.0182,1.0567,0.9796,0.9299,1.0098,0.9424,0.8822,0.929,0.9134,0.9036,0.9281,0.9689,1.0074,1.0242,1.0513,1.0495,0.9954,1.014,1.0324,1.017,1.1108,1.1929,1.2526,1.33,1.3762,1.3967,1.4901,1.5443,1.5666,1.6656,1.7227,1.7466,1.7372,1.7441,1.7672,1.7657,1.7698,1.7843,1.768,1.7723,1.777,1.7442,1.7257,1.711,1.711,1.7266,1.7523,1.7789,1.8117,1.8519,1.9332,1.9779,2.0051,2.0884,2.1221,2.1221,2.1221,2.1221,2.1221,2.1221,2.1221,2.1221,2.1221,2.1221,2.1221,2.1221,2.1221,2.1221,2.1285,2.1486,2.1698,2.1761,2.2011,2.2197,2.2197,2.2197,2.2197,2.2197,2.2197,2.2297,2.2689,2.268,2.2591,2.2633,2.3178,2.3642,2.3812,2.3574,2.3547,2.3694,2.3435,2.3349,2.3504,2.3537,2.3583,2.3583,2.3583,2.3757,2.421,2.4461,2.4926,2.556,2.6281,2.6707,2.6946,2.743,2.7625,0.7869,0.8021,0.8151,0.8951,0.8792,0.8258,0.7612,0.7443,0.7546,0.7899,0.7588,0.7472,0.8192,0.8171,0.8117,0.8332,0.8743,0.9204,0.9647,0.955,0.9504,0.9868,0.976,0.9631,0.9631,1.0935,1.1974,1.2566,0.0,1.3996,1.4033,1.5073,1.5713,1.5729,1.6916,1.7492,1.7501,1.786,1.804,1.804,1.8273,1.8442,1.8425,1.8362,1.8348,1.8398,1.8152,1.7825,1.7532,1.7532,1.7523,1.7532,1.7568,1.7807,1.8156,1.849,1.9074,1.9781,2.0792,2.1158,2.1221,2.1221,2.1221,2.1221,2.1221,2.1221,2.1221,2.1221,2.1221,2.1221,2.1221,2.1221,2.1221,2.1336,2.1549,2.1761,2.1874,2.2061,2.2197,2.2197,2.2197,2.2197,2.2247,2.2185,2.2185,2.2309,2.275,2.3124,2.3163,2.367,2.3906,2.3441,2.3854,2.4261,2.4526,2.4547,2.4618,2.4785,2.4785,2.4849,2.4878,2.4863,2.48,2.4878,2.5106,2.5575,2.6267,2.6549,2.6961,2.7625,2.7625,2.7625,0.7726,0.791,0.8257,0.9266,0.9066,0.8496,0.8423,0.7833,0.7107,0.6779,0.6632,0.6535,0.6241,0.6885,0.753,0.7784,0.8735,0.9527,0.9818,1.011,1.0232,1.0218,1.0299,1.0369,1.0369,1.1504,1.2323,1.2479,1.3446,1.4194,1.467,1.5242,1.588,1.6452,1.7121,1.7574,1.7894,1.7989,1.804,1.804,1.8273,1.8442,1.8425,1.8275,1.8175,1.8148,1.7841,1.7683,1.7723,1.7723,1.7806,1.8018,1.8614,1.855,1.8221,1.9132,1.9511,1.9644,2.0194,2.0764,2.1221,2.1221,2.1221,2.1221,2.1221,2.1221,2.1221,2.1221,2.1221,2.1221,2.1221,2.1221,2.1221,2.1221,2.1486,2.1698,2.1761,2.2011,2.2197,2.2197,2.2197,2.2359,2.2811,2.2469,2.2482,2.3399,2.3267,2.3097,2.3124,2.4055,2.4762,2.4737,2.4836,2.5015,2.5271,2.4905,2.4667,2.4785,2.4785,2.4785,2.48,2.4863,2.513,2.5696,2.5844,2.6332,2.7098,2.727,2.741,2.7625,2.7625,2.7625,0.7354,0.7505,0.7693,0.8708,0.8391,0.7722,0.7737,0.7061,0.6375,0.5863,0.5758,0.5674,0.5346,0.6125,0.6875,0.7135,0.8258,0.9169,0.949,0.9781,1.0079,1.0299,1.0498,1.0638,1.0638,1.1849,1.2724,1.2717,1.378,1.456,1.4838,1.564,1.6288,1.673,1.731,1.7797,1.804,1.804,1.804,1.804,1.8112,1.8282,1.8434,1.8373,1.8433,1.8494,0.0,1.8226,1.8215,1.8215,1.8224,1.8421,1.9228,1.9288,1.8966,1.9728,2.0104,2.0054,2.0129,2.056,2.1256,2.1422,2.1342,2.1267,2.1422,2.1342,2.1221,2.1221,2.1221,2.1221,2.1221,2.1221,2.1233,2.136,2.1561,2.1761,2.1886,2.2073,2.2197,2.2197,2.2197,2.2309,2.2641,2.242,2.2531,2.3446,2.3374,2.3255,2.3564,2.4509,2.5203,2.5536,2.5624,2.5759,2.5954,2.5689,2.5539,2.5691,2.5691,2.5691,2.5691,2.5705,2.593,2.6331,2.6535,2.6864,2.7284,2.7539,2.7625,2.7625,2.7625,2.7625,0.6957,0.6864,0.6895,0.7701,0.7279,0.6583,0.6247,0.584,0.5463,0.5104,0.4965,0.4918,0.5008,0.5712,0.6346,0.6669,0.7577,0.8447,0.899,0.925,0.9647,1.0231,1.0541,1.0692,1.0729,1.1981,1.2858,1.301,1.4172,1.4844,1.4925,1.5919,1.6574,1.673,1.7546,1.804,1.804,1.804,1.804,1.804,1.804,1.8193,1.8442,1.8612,1.878,1.9002,1.9152,0.0,1.8711,1.8711,1.876,1.8791,1.9649,1.9902,1.9756,2.0237,2.0508,2.0662,2.026,2.056,2.1238,2.1686,2.1571,2.1353,2.1801,2.1617,2.1261,2.1261,2.1279,2.1221,2.1221,2.1221,2.1296,2.1624,2.1698,2.1824,2.2073,2.2185,2.2197,2.2197,2.2197,2.2247,2.2309,2.2247,2.242,2.3148,2.3255,2.3551,2.4337,2.4908,2.5412,2.5988,2.6218,2.6379,2.6525,2.651,2.663,2.6779,2.6779,2.6779,2.6832,2.6832,2.6832,2.6884,2.713,2.7233,2.7269,2.7473,2.7625,2.7625,2.7625,2.7625,0.6235,0.6471,0.6705,0.6895,0.6706,0.6369,0.583,0.5447,0.505,0.448,0.4535,0.4532,0.4174,0.5145,0.6138,0.6644,0.7504,0.8472,0.9336,0.9702,1.0007,1.0525,1.0783,1.1004,1.1123,1.1935,1.2723,1.3322,1.4072,1.4747,1.526,1.5477,1.5997,1.6656,1.7546,1.804,1.804,1.804,1.804,1.804,1.8201,1.8353,1.8442,1.8612,1.87,1.8772,1.8772,0.0,1.8973,1.8973,1.8861,1.8819,1.9985,1.9915,1.9355,2.0124,2.0508,2.0662,2.026,2.056,2.1244,2.1261,2.1525,2.1812,2.1904,2.1858,2.1801,2.1801,2.1491,2.1221,2.1336,2.14,2.14,2.1635,2.1749,2.1874,2.1937,2.2061,2.2197,2.2197,2.2197,2.2359,2.2859,2.2531,2.2604,2.3872,2.3623,2.3774,2.5063,2.5287,2.5467,2.5687,2.6122,2.6525,2.6712,2.6765,2.6779,2.6779,2.6779,2.6846,2.6951,2.6951,2.7041,2.7299,2.735,2.7437,2.7524,2.7575,2.7625,2.7625,2.7625,2.7625,0.5787,0.6067,0.6513,0.644,0.6394,0.6186,0.5504,0.5057,0.4616,0.4022,0.3978,0.3989,0.3839,0.4662,0.5529,0.6044,0.7086,0.8068,0.8896,0.9328,0.9814,1.0552,1.0735,1.0945,1.123,1.194,1.2711,1.3313,1.4062,1.4657,1.5347,1.5839,1.6492,1.7383,1.7789,1.804,1.804,1.804,1.804,1.804,1.8273,1.8442,1.8523,1.8772,1.8922,1.9002,1.9002,0.0,1.9152,1.9152,1.9113,1.9114,2.0081,2.0161,1.9817,2.0673,2.1,2.0938,2.0714,2.0892,2.1221,2.1221,2.133,2.1629,2.2157,2.195,2.1583,2.1847,2.1613,2.1336,2.1388,2.1463,2.1612,2.1749,2.1937,2.2061,2.2061,2.2123,2.2197,2.2197,2.2197,2.2309,2.258,2.2689,2.3113,2.4176,2.4425,2.4867,2.5837,2.6082,2.6082,2.6068,2.6418,2.6712,2.6779,2.6779,2.6779,2.6779,2.6779,2.6846,2.7003,2.7003,2.7107,2.7284,2.735,2.7437,2.7488,2.7575,2.7625,2.7625,2.7625,2.7769,0.5403,0.572,0.6192,0.6057,0.6015,0.5892,0.5142,0.4656,0.4246,0.3653,0.3496,0.3511,0.3626,0.4243,0.4901,0.5482,0.6514,0.7487,0.8215,0.8753,0.9472,1.0455,1.0606,1.0744,1.1219,1.186,1.254,1.3313,1.4146,1.4824,1.5347,1.6245,1.6976,1.7708,1.787,1.804,1.804,1.804,1.804,1.804,1.8193,1.8442,1.87,1.8851,1.9073,1.9301,1.9301,0.0,0.0,1.9301,1.9301,1.9371,2.012,2.0212,2.0083,2.1,2.1197,2.0967,2.1158,2.1221,2.1221,2.1221,2.1238,2.1491,2.2409,2.2053,2.1433,2.195,2.1758,2.14,2.1463,2.1549,2.1761,2.1937,2.2061,2.2197,2.2197,2.2309,2.242,2.242,2.2482,2.2604,2.2604,2.31,2.3682,2.4279,2.4951,2.5618,2.6297,2.6486,2.6606,2.6578,2.6712,2.6779,2.6779,2.6779,2.6779,2.6779,2.6779,2.6884,2.7055,2.7055,2.7144,2.7284,2.7386,2.7437,2.7437,2.7524,2.7625,2.7625,2.7625,2.7934,0.4942,0.5303,0.5532,0.5393,0.5422,0.523,0.4591,0.4262,0.3942,0.3497,0.3373,0.3342,0.3501,0.386,0.4479,0.546,0.5949,0.6662,0.7926,0.8455,0.9135,1.0234,1.0509,1.0744,1.1219,1.1348,1.1946,1.3307,1.458,1.534,1.5431,1.6245,1.673,1.682,1.7627,1.804,1.804,1.804,1.804,1.804,1.804,1.8282,1.87,1.87,1.8922,1.9301,1.9301,0.0,0.0,1.9301,1.9301,1.9335,1.9783,1.9658,1.9426,2.0557,2.0621,2.0302,2.0967,2.1221,2.1221,2.1221,2.1479,2.1962,2.2513,2.2294,2.1962,2.2467,2.1981,2.1296,2.1561,2.1698,2.1761,2.2073,2.2197,2.2197,2.2197,2.2641,2.3027,2.3027,2.3446,2.3846,2.3846,2.4047,2.4292,2.4452,2.4654,2.505,2.5825,2.5948,2.6179,2.6727,2.6779,2.6779,2.6779,2.6779,2.6779,2.6779,2.6779,2.6937,2.7181,2.7181,2.7284,2.7575,2.7575,2.7575,2.7575,2.7575,2.7625,2.7625,2.7625,2.7934,0.4356,0.4853,0.5137,0.5,0.5109,0.5135,0.4432,0.4092,0.3731,0.3317,0.31,0.3097,0.3444,0.3663,0.4081,0.4956,0.5341,0.595,0.6984,0.7535,0.8265,0.9646,0.9964,1.0426,1.1203,1.1262,1.186,1.3313,1.4237,1.5075,1.5756,1.6409,1.6976,1.7473,1.7789,1.804,1.804,1.804,1.804,1.804,1.8201,1.8362,1.87,1.8851,1.9002,1.9301,1.9301,0.0,0.0,1.9201,1.9017,1.8595,1.9041,1.9039,1.8929,1.9779,2.01,2.0237,2.0955,2.1221,2.1221,2.1221,2.1307,2.156,2.2076,2.187,2.1571,2.2088,2.1774,2.1411,2.1624,2.1824,2.2011,2.2197,2.2197,2.2197,2.2197,2.242,2.2702,2.3148,2.3433,2.3715,2.4239,2.4711,2.5119,2.5119,2.5632,2.6082,2.6394,2.6447,2.65,2.6779,2.6779,2.6779,2.6779,2.6779,2.6779,2.6779,2.6779,2.6937,2.7181,2.7181,2.7321,2.7575,2.7625,2.7625,2.7625,2.7625,2.7625,2.7625,2.7993,2.8547,0.3574,0.425,0.4745,0.4585,0.4807,0.4888,0.4279,0.3917,0.3576,0.3175,0.2815,0.274,0.3225,0.3352,0.3667,0.4431,0.4915,0.5462,0.624,0.6846,0.7626,0.8935,0.9392,0.9958,1.09,1.1348,1.2026,1.3052,1.4055,1.4977,1.5906,1.6566,1.7229,1.7797,1.7959,1.804,1.804,1.804,1.804,1.804,1.8193,1.8442,1.87,1.8851,1.9073,1.9301,1.9301,0.0,0.0,1.9017,1.8733,1.8137,1.8293,1.8294,1.8331,1.8953,1.937,1.9901,2.0635,2.1031,2.1221,2.1221,2.1285,2.1377,2.1908,2.1701,2.136,2.2016,2.1858,2.16,2.1749,2.2011,2.2197,2.2197,2.2197,2.2197,2.2197,2.2359,2.2702,2.3195,2.3492,2.3891,2.4641,2.5217,2.5673,2.5837,2.6379,2.6779,2.6779,2.6779,2.6779,2.6779,2.6779,2.6779,2.6779,2.6779,2.6832,2.6846,2.6846,2.6989,2.7233,2.7284,2.7386,2.7575,2.7625,2.773,2.7874,2.7874,2.7979,2.8225,2.8667,2.9235,0.2619,0.342,0.4306,0.4314,0.4352,0.4347,0.4131,0.3773,0.3442,0.3175,0.2564,0.2255,0.2794,0.2921,0.3145,0.3912,0.4649,0.5309,0.6019,0.663,0.7274,0.8112,0.8707,0.9321,1.0079,1.1478,1.2363,1.2448,1.4048,0.0,1.5696,1.6796,1.7392,1.74,1.7797,1.804,1.804,1.804,1.804,1.804,1.804,1.8282,1.87,1.87,1.8922,1.9301,0.0,0.0,0.0,1.8715,1.8485,1.8082,1.7669,1.7504,1.7512,1.786,1.8442,1.911,1.9835,2.056,2.1221,2.1336,2.1388,2.1556,2.2298,2.1905,2.1429,2.2564,2.2397,2.1925,2.1925,2.2061,2.2197,2.2197,2.2197,2.2197,2.2197,2.275,2.3314,2.3314,2.3962,2.4681,2.5287,2.5508,2.5783,2.6404,2.6659,2.6779,2.6779,2.6779,2.6779,2.6779,2.6779,2.6779,2.6779,2.6779,2.6846,2.7003,2.7003,2.7107,2.7401,2.7401,2.7437,2.7625,2.7625,2.7904,2.8592,2.8592,2.8921,2.9564,2.9564,2.9909,0.2208,0.2761,0.3058,0.2634,0.2555,0.2625,0.2801,0.2721,0.2565,0.2618,0.2418,0.2361,0.2755,0.3128,0.3585,0.419,0.4723,0.5304,0.591,0.6589,0.7345,0.8178,0.9535,1.0524,1.0916,1.1343,1.194,1.2534,1.3124,1.421,1.5884,1.6304,1.6886,1.7797,1.7951,1.804,1.804,1.804,1.804,1.804,1.804,1.8201,1.8523,1.8612,1.8851,0.0,0.0,0.0,0.0,1.8605,1.8146,1.7303,1.744,1.733,1.7213,1.8289,1.8844,1.9177,2.0431,2.1083,2.1336,2.1388,2.1707,2.2245,2.2815,2.2549,2.2157,2.2549,2.2787,2.2829,2.2115,2.2324,2.2642,2.2282,2.2197,2.2247,2.2309,2.2871,2.3479,2.4111,2.4811,2.5467,2.6204,2.6379,2.6486,2.6659,2.6779,2.6779,2.6779,2.6779,2.6779,2.6779,2.6779,2.6779,2.6779,2.6779,2.6846,2.7003,2.6899,2.7041,2.7401,2.7284,2.7594,2.8263,2.8278,2.8607,2.9265,2.9265,2.9594,3.0223,3.0223,3.0567,0.0897,0.1824,0.238,0.1515,0.1566,0.1804,0.199,0.2064,0.2134,0.2152,0.1995,0.1989,0.2399,0.2718,0.3158,0.3861,0.4416,0.5035,0.5789,0.648,0.7357,0.8421,0.9772,1.0651,1.0974,1.1161,1.1607,1.2283,1.3039,1.3957,1.513,1.6214,1.7041,1.7456,1.7789,1.804,1.804,1.8121,1.8112,1.8112,1.8201,1.8362,1.8603,1.8772,1.8922,0.0,0.0,0.0,0.0,1.8449,1.7954,1.7138,1.7238,1.7259,1.7442,1.8307,1.8977,1.9573,2.056,2.1146,2.1423,2.1748,2.2504,2.3297,2.3605,2.342,2.3136,2.2935,2.3102,2.3173,2.2464,2.2519,2.2606,2.227,2.242,2.2641,2.2689,2.3314,2.3995,2.457,2.5036,2.5632,2.6326,2.6447,2.6553,2.6779,2.6779,2.6779,2.6779,2.6779,2.6832,2.6899,2.6899,2.6884,2.6937,2.6884,2.6951,2.7041,2.7041,2.7144,2.7437,2.7639,2.8018,2.8592,2.8846,2.928,2.9924,3.0193,3.0507,3.0896,3.0896,3.112,0.0,0.0662,0.2012,0.0981,0.1252,0.1767,0.1565,0.1753,0.0,0.1798,0.1396,0.1254,0.1779,0.1926,0.219,0.3046,0.3815,0.4715,0.5782,0.6524,0.7461,0.8922,0.9555,1.0058,1.053,1.1052,1.1413,1.1677,1.3444,1.4371,1.3873,1.637,1.7538,1.678,1.7619,1.804,1.804,1.8282,1.8442,1.8442,1.8612,1.8772,1.9002,1.9002,1.9073,0.0,0.0,0.0,0.0,1.8284,1.788,1.7458,1.7125,1.7373,1.8037,1.8104,1.8967,2.0161,2.0355,2.088,2.1607,2.2515,2.3568,2.453,2.4566,2.4453,2.4276,2.3716,2.3305,2.3063,2.2955,2.2582,2.2246,2.2197,2.275,2.3255,2.3314,2.4053,2.4741,2.4741,2.4993,2.53,2.5893,2.5948,2.6165,2.6727,2.6779,2.6779,2.6779,2.6779,2.6846,2.7003,2.7047,2.7129,2.724,2.7122,2.7093,2.7233,2.7335,2.7437,2.7575,2.8233,2.8622,2.8667,2.937,2.9998,3.0582,3.1225,3.1482,3.1482,3.1482,3.1482,-0.0466,0.0,0.0,0.0522,0.0766,0.0878,0.0,0.0898,0.0997,0.1205,0.1188,0.1198,0.1533,0.1965,0.2448,0.2894,0.3931,0.4993,0.588,0.7274,0.869,0.9877,1.0146,1.03,1.053,1.0979,1.1405,1.1657,1.2505,1.3542,1.4887,1.5636,1.655,1.7619,1.8112,1.8282,1.8282,1.8362,1.8442,1.8612,1.87,1.8692,1.8772,1.8922,1.9002,0.0,0.0,0.0,1.8678,1.8284,1.788,1.7521,1.7662,1.7833,1.8104,1.9233,1.9901,2.042,2.0944,2.1463,2.1954,2.3149,2.4013,2.4602,2.4999,2.5061,2.4869,2.3958,2.3953,2.3893,2.2678,2.2582,2.2702,2.2294,2.242,2.275,2.3399,2.4124,2.4867,2.5522,2.6042,2.6433,2.6553,2.6621,2.6621,2.6779,2.6779,2.6779,2.6779,2.6779,2.6846,2.7003,2.7442,2.7842,2.7971,2.7476,2.7181,2.735,2.7284,2.7335,2.7575,2.8129,2.8725,2.934,3.0492,3.115,3.13,3.1392,3.1482,3.1482,3.1482,3.1482,-0.0418,-0.0424,-0.0336,0.0335,0.0536,0.0609,0.065,0.0604,0.0597,0.0773,0.0841,0.0946,0.1235,0.1914,0.2504,0.2717,0.4132,0.5615,0.6939,0.8015,0.913,1.0207,1.0293,1.0385,0.0,1.0996,1.1232,1.1647,1.2258,1.2997,1.3736,1.494,1.5823,1.646,1.7514,1.8188,1.8442,1.8603,1.8763,1.8851,1.8922,1.9002,1.9002,1.9073,1.9152,0.0,0.0,0.0,1.8669,1.8082,1.7697,1.7521,1.786,1.8172,1.8566,1.9694,2.042,2.0944,2.1411,2.2056,2.2874,2.358,2.4278,2.4939,2.5216,2.5143,2.4831,2.4266,2.4145,2.3929,2.2835,2.2582,2.2609,2.2382,2.2653,2.316,2.3962,2.4711,2.5467,2.6165,2.6568,2.6881,2.7171,2.6968,2.6881,2.7171,2.6968,2.6779,2.6779,2.6846,2.7053,2.7504,2.7948,2.834,2.8797,2.85,2.8292,2.8345,2.8292,2.8398,2.8487,2.9062,2.9719,3.0462,3.118,3.1482,3.1482,3.1482,3.1482,3.1482,3.1482,3.1482,-0.0514,-0.0192,0.0171,0.0348,0.0514,0.0631,0.0668,0.0607,0.0517,0.0517,0.0576,0.0732,0.1066,0.1837,0.2419,0.2628,0.4355,0.6336,0.8228,0.8723,0.915,1.0159,1.0239,1.0388,1.0743,1.0878,1.1141,1.17,1.2441,1.2778,1.2466,1.4484,1.5488,1.5088,1.6815,1.7943,1.8338,1.8726,1.8912,1.8991,1.9076,1.9118,1.9118,1.9118,1.9118,1.91,0.0,0.0,1.8568,1.7871,1.755,1.753,1.7937,1.8502,1.911,1.9901,2.0677,2.1526,2.1686,2.2579,2.3652,2.3652,2.4302,2.5071,2.5071,2.4759,2.4386,2.437,2.4044,2.352,2.3003,2.2597,2.2309,2.2469,2.3113,2.3859,2.4641,2.5412,2.6056,2.6674,2.6779,2.6982,2.7621,2.72,2.7026,2.7752,2.7331,2.6968,2.7108,2.7229,2.7592,2.8296,2.8551,2.8955,2.9684,2.9819,2.9824,2.9754,2.963,2.9624,2.9714,3.0223,3.0836,3.1467,3.1482,3.1482,3.1482,3.1482,3.1482,3.1482,3.1482,3.1482,-0.0488,0.0124,0.0695,0.0467,0.0599,0.0751,0.0641,0.0585,0.0576,0.0576,0.0639,0.09,0.1634,0.1785,0.209,0.2897,0.4728,0.673,0.8633,0.9202,0.9563,0.9938,0.9976,1.0068,1.0253,1.0684,1.1271,1.219,1.2792,1.3639,1.4964,1.5419,1.5964,1.6809,1.7264,1.7636,1.7907,1.8258,1.8583,1.872,1.8467,1.8302,1.8302,1.8302,1.8302,1.8302,0.0,1.821,1.8201,1.8082,1.7816,1.7558,1.8273,1.8841,1.9365,2.0096,2.1008,2.1862,2.2061,2.2594,2.3099,2.3099,2.3508,2.4068,2.419,2.4129,2.4037,2.3729,2.3417,2.2979,2.245,2.237,2.2469,2.3027,2.3446,2.4092,2.5217,2.5701,2.6056,2.6674,2.6779,2.6982,2.7621,2.72,2.7224,2.8499,2.8039,2.7821,2.862,2.8638,2.8737,2.9183,2.9688,3.0101,3.0357,3.0896,3.1183,3.1168,3.0193,2.9819,3.0342,3.0447,3.0836,3.1467,3.1482,3.1482,3.1482,3.1482,3.1482,3.1482,3.1482,3.1482,-0.05,0.0119,0.0771,0.0683,0.0732,0.0881,0.1136,0.1048,0.0979,0.1177,0.1088,0.1295,0.2198,0.2741,0.3669,0.5616,0.6443,0.7364,0.9067,0.928,0.9437,0.9965,0.0,1.0143,1.0513,1.0703,1.1223,1.2273,1.255,1.3223,1.4425,1.4946,1.5471,1.6066,1.694,1.7414,1.7624,1.7815,1.8099,1.8394,1.821,1.8128,1.8128,1.8128,1.8128,1.8109,0.0,1.7789,1.777,1.755,1.742,1.7376,1.8133,1.8826,1.9628,2.0752,2.1474,2.1925,2.2123,2.2534,2.2979,2.3095,2.3458,2.3959,2.4067,2.3937,2.3668,2.355,2.3362,2.3177,2.264,2.2787,2.3113,2.3505,2.3962,2.454,2.5522,2.5825,2.6056,2.6674,2.7055,2.7505,2.8129,2.7708,2.7661,2.8759,2.8309,2.8057,2.8552,2.8946,2.9356,2.9837,3.0175,3.06,3.0974,3.1287,3.1482,3.1482,3.0971,3.0761,3.1046,3.1061,3.121,3.1467,3.1482,3.1482,3.1482,3.1482,3.1482,3.1482,3.1482,3.1482,-0.0381,0.0114,0.0627,0.082,0.0793,0.09,0.1422,0.1357,0.1309,0.1572,0.1635,0.1914,0.2738,0.3738,0.521,0.759,0.7753,0.8089,0.9536,0.95,0.949,1.0121,1.0218,1.0438,1.0812,1.0887,1.1409,1.2592,1.2666,1.3098,1.4106,1.4832,1.5338,1.5551,1.6483,1.7144,1.7358,1.7358,1.7568,1.7981,1.788,1.7834,1.7908,1.7908,1.7908,1.7971,1.7639,1.75,1.7481,1.7278,1.7329,1.7579,1.8144,1.8993,2.0085,2.1463,2.1987,2.1999,2.2135,2.2462,2.285,2.2977,2.3308,2.3636,2.3818,2.3612,2.3355,2.3417,2.3417,2.3319,2.3021,2.3305,2.3741,2.4137,2.4584,2.5161,2.5934,2.6111,2.6233,2.6727,2.7302,2.7926,2.8565,2.833,2.8327,2.9241,2.8873,2.8616,2.8912,2.9481,3.0041,3.0547,3.069,3.0956,3.1437,3.1482,3.1482,3.1482,3.1482,3.1482,3.1482,3.1482,3.1482,3.1482,3.1482,3.1482,3.1482,3.1482,3.1482,3.1482,3.1482,3.1482,-0.0038,0.0157,0.0408,0.0645,0.0715,0.0733,0.0941,0.1133,0.1328,0.1424,0.2104,0.2793,0.304,0.4232,0.5639,0.6822,0.7628,0.8638,0.9974,1.0115,1.0126,1.0212,1.0368,1.0663,1.1037,1.1111,1.1842,1.3753,1.3897,1.4545,1.5982,1.6132,1.6263,1.6464,1.656,1.6727,1.6945,1.6945,1.7147,1.7541,1.7165,1.706,1.726,1.726,1.7338,1.7555,1.7527,1.7508,1.7536,1.7887,1.8141,1.8482,1.8883,1.979,2.0921,2.1851,2.2185,2.2185,2.2185,2.2221,2.2308,2.2419,2.2493,2.2604,2.2911,2.2996,2.2971,2.308,2.314,2.3175,2.3471,2.3636,2.4092,2.5217,2.5646,2.6002,2.6621,2.6727,2.6727,2.6779,2.7302,2.7926,2.8565,2.8791,2.9298,3.0748,3.0365,3.0273,3.1126,3.1172,3.1232,3.1407,3.1407,3.1422,3.1482,3.1482,3.1482,3.1482,3.1482,3.1482,3.1482,3.1482,3.1482,3.1482,3.1482,3.1482,3.1482,3.1482,3.1482,3.1482,3.1482,3.1482,0.0,0.0192,0.0418,0.0633,0.0716,0.0957,0.1622,0.1715,0.1758,0.2054,0.2653,0.3372,0.4006,0.6096,0.7598,0.7491,0.8518,0.9558,1.0036,1.0273,1.0438,1.0588,1.0738,1.0962,1.126,1.1409,1.2003,1.3251,1.376,1.4474,1.5559,1.6193,1.6542,1.6603,1.6751,1.683,1.6908,1.6908,1.7051,1.733,1.7042,1.7038,1.7166,1.7166,1.7314,1.747,1.747,1.747,1.7548,1.8095,1.8456,1.8777,2.0074,2.0758,2.1123,2.1975,2.2309,2.2309,2.2309,2.2432,2.2555,2.2665,2.2726,2.2726,2.2957,2.3017,2.3017,2.3078,2.3078,2.3138,2.3245,2.3649,2.4221,2.5007,2.5591,2.6111,2.6779,2.6899,2.6951,2.7026,2.7876,2.8653,2.8902,2.9325,2.9864,3.0495,3.0419,3.0386,3.081,3.1213,3.1409,3.1482,3.1482,3.1482,3.1482,3.1482,3.1482,3.1482,3.1482,3.1482,3.1482,3.1482,3.1482,3.1482,3.1482,3.1482,3.1482,3.1482,3.1482,3.1482,3.1482,3.1482,0.0311,0.0416,0.0669,0.0886,0.0953,0.1185,0.2125,0.2142,0.2039,0.2444,0.2998,0.3733,0.5061,0.6888,0.8209,0.801,0.9179,1.0128,1.0208,1.0433,1.0663,1.0887,1.1037,1.1335,1.1558,1.1706,1.215,1.3039,1.3753,1.4545,1.5338,1.6254,1.6742,1.6682,1.6899,1.6968,1.6908,1.6968,1.7038,1.7166,1.7107,1.7176,1.7373,1.7373,1.7451,1.7676,1.7676,1.7676,1.7735,1.8385,1.9034,1.9748,2.1187,2.1651,2.1714,2.2285,2.2482,2.2482,2.2482,2.2555,2.2739,2.2848,2.2909,2.2909,2.3078,2.3078,2.3138,2.3198,2.3198,2.3198,2.3258,2.3721,2.435,2.5175,2.5701,2.6218,2.6937,2.7041,2.7093,2.7181,2.8213,2.9098,2.9098,2.9876,3.0495,3.0624,3.0624,3.0738,3.0821,3.124,3.1482,3.1482,3.1482,3.1482,3.1482,3.1482,3.1482,3.1482,3.1482,3.1482,3.1482,3.1482,3.1482,3.1482,3.1482,3.1482,3.1482,3.1482,3.1482,3.1482,3.1482,3.1482,0.0984,0.0909,0.1166,0.136,0.1334,0.1508,0.2303,0.2237,0.2114,0.264,0.2956,0.3889,0.6001,0.6388,0.6832,0.8178,0.9314,1.0067,1.039,1.0648,1.0881,1.1105,1.1254,1.1558,1.1929,1.2003,1.2439,1.339,1.4178,1.4966,1.5762,1.6682,1.7107,1.6908,1.7107,1.7107,1.6908,1.7107,1.7166,1.7235,1.7392,1.7598,1.7706,1.7706,1.7784,1.8008,1.8008,1.8008,1.8076,1.8721,1.9955,2.1463,2.2161,2.2555,2.269,2.269,2.269,2.269,2.269,2.269,2.2739,2.2848,2.2909,2.2909,2.3078,2.3078,2.3138,2.333,2.3403,2.3463,2.3569,2.3956,2.4624,2.5783,2.6176,2.6457,2.7063,2.7181,2.7181,2.7181,2.8213,2.9098,2.9098,3.0288,3.1278,3.1278,3.1409,3.1482,3.1482,3.1482,3.1482,3.1482,3.1482,3.1482,3.1482,3.1482,3.1482,3.1482,3.1482,3.1482,3.1482,3.1482,3.1482,3.1482,3.1482,3.1482,3.1482,3.1482,3.1482,3.1482,3.1482,3.1482,0.1104,0.1136,0.1297,0.1899,0.1833,0.1886,0.2809,0.2533,0.2478,0.3916,0.4478,0.5134,0.6527,0.7572,0.8182,0.8113,0.9131,1.0012,1.0226,1.0627,1.1052,1.1197,1.1592,1.1855,1.2003,1.2157,1.2372,1.2813,1.4034,1.4974,1.5338,1.6682,1.7323,1.7107,1.7314,1.7314,1.7107,1.7314,1.7451,1.7569,1.7579,1.7647,1.7706,1.7706,1.7784,1.8008,1.8008,1.8008,1.8076,1.9365,2.0794,2.2161,2.2604,2.2739,2.2678,2.28,2.286,2.286,2.286,2.2909,2.2957,2.3017,2.3017,2.3078,2.3078,2.3078,2.3138,2.333,2.3403,2.3463,2.3569,2.3806,2.4261,2.5356,2.5618,2.596,2.7115,2.735,2.7386,2.7473,2.8174,2.8919,2.9381,3.0142,3.0914,3.1349,3.1467,3.1482,3.1482,3.1482,3.1482,3.1482,3.1482,3.1482,3.1482,3.1482,3.1482,3.1482,3.1482,3.1482,3.1482,3.1482,3.1482,3.1482,3.1482,3.1482,3.1482,3.1482,3.1482,3.1482,3.1482,3.1482,0.1278,0.1422,0.1585,0.2127,0.2156,0.2272,0.2951,0.3101,0.3412,0.4731,0.5335,0.5986,0.7312,0.8096,0.8619,0.8619,0.9425,1.0074,1.0207,1.0642,1.0987,1.1198,1.1488,1.1664,1.1735,1.1957,1.2101,1.2244,1.3434,1.4343,1.4759,1.6151,1.7002,1.7069,1.7366,1.7529,1.7314,1.752,1.7657,1.7706,1.7784,1.7784,1.7784,1.7784,1.7862,1.8008,1.8008,1.8337,1.8977,1.9944,2.1239,2.2604,2.2848,2.2848,2.2848,2.2969,2.2969,2.2969,2.2969,2.3017,2.3138,2.3198,2.321,2.321,2.3258,2.3318,2.3318,2.3522,2.3582,2.3641,2.376,2.3878,2.4216,2.5245,2.5508,2.5892,2.7203,2.7488,2.7473,2.7575,2.8338,2.9116,2.9505,3.0313,3.1046,3.1422,3.1482,3.1482,3.1482,3.1482,3.1482,3.1482,3.1482,3.1482,3.1482,3.1482,3.1482,3.1482,3.1482,3.1482,3.1482,3.1482,3.1482,3.1482,3.1482,3.1482,3.1482,3.1482,3.1482,3.1482,3.1482,3.1482,0.1408,0.163,0.1881,0.2155,0.246,0.2722,0.2967,0.3885,0.4809,0.5272,0.5796,0.6711,0.8291,0.8355,0.842,0.935,0.9878,1.017,1.023,1.0528,1.0835,1.1041,1.1136,1.1217,1.143,1.1635,1.1703,1.1771,1.2639,1.3502,1.409,1.5415,1.6363,1.6779,1.7331,1.7552,1.7482,1.759,1.7668,1.7706,1.793,1.8008,1.8008,1.8008,1.8008,1.8008,1.8008,1.8911,2.0333,2.0322,2.1353,2.2909,2.2909,2.2957,2.3078,2.3138,2.3138,2.3138,2.3138,2.3138,2.3198,2.333,2.3403,2.3463,2.3569,2.3628,2.3628,2.3832,2.3891,2.3949,2.4054,2.4112,2.4332,2.53,2.5687,2.6108,2.7357,2.7625,2.7625,2.7625,2.8562,2.9445,2.9564,3.0567,3.1405,3.1452,3.1482,3.1482,3.1482,3.1482,3.1482,3.1482,3.1482,3.1482,3.1482,3.1482,3.1482,3.1482,3.1482,3.1482,3.1482,3.1482,3.1482,3.1482,3.1482,3.1482,3.1482,3.1482,3.1482,3.1482,3.1482,3.1482,0.101,0.1352,0.1875,0.2435,0.3073,0.3534,0.3447,0.4749,0.5932,0.5793,0.651,0.7562,0.8877,0.9075,0.9204,0.9676,0.9848,0.9949,1.0271,1.0509,1.0816,1.1022,1.1357,1.1567,1.1635,1.1765,1.1901,1.2112,1.3294,1.4156,1.4493,1.5827,1.6536,1.6462,1.6751,1.7028,1.7159,1.7377,1.7609,0.0,1.8008,1.8008,1.8008,1.8008,1.8008,1.8008,1.8144,1.9044,2.0322,2.0568,2.1542,2.2909,2.3017,2.3078,2.3138,2.3271,2.333,2.333,2.345,2.3509,2.3509,2.3569,2.3569,2.3569,2.3569,2.3628,2.3628,2.3832,2.3891,2.3949,2.4054,2.4112,2.4274,2.4935,2.5481,2.6108,2.7357,2.7625,2.7625,2.7625,2.785,2.8338,2.94,2.9819,3.0357,3.1317,3.1482,3.1482,3.1482,3.1482,3.1482,3.1482,3.1482,3.1482,3.1482,3.1482,3.1482,3.1482,3.1482,3.1482,3.1482,3.1482,3.1482,3.1482,3.1482,3.1482,3.1482,3.1482,3.1482,3.1482,3.1482,3.1482,0.1151,0.1498,0.1932,0.2569,0.3189,0.3614,0.3535,0.5035,0.6396,0.6388,0.7432,0.8479,0.9204,0.9344,0.9478,0.974,0.9862,0.9989,1.0238,1.0496,1.0717,1.0911,1.1111,1.1338,1.1404,1.1528,1.179,1.2238,1.2996,1.3752,1.4533,1.5411,1.6023,1.6272,1.6611,1.6836,1.6922,1.7199,1.7481,1.7829,1.7829,1.7937,1.8134,1.8134,1.8212,1.8279,1.8347,1.9233,2.0579,2.076,2.1667,2.3017,2.321,2.3258,2.3271,2.345,2.3509,2.3509,2.3569,2.3628,2.3628,2.37,2.376,2.376,2.3819,2.3819,2.3865,2.3949,2.4008,2.4008,2.4054,2.4112,2.4229,2.4835,2.5425,2.6054,2.6982,2.7423,2.7625,2.7625,2.815,2.8757,2.946,3.0103,3.0746,3.1377,3.1482,3.1482,3.1482,3.1482,3.1482,3.1482,3.1482,3.1482,3.1482,3.1482,3.1482,3.1482,3.1482,3.1482,3.1482,3.1482,3.1482,3.1482,3.1482,3.1482,3.1482,3.1482,3.1482,3.1482,3.1482,3.1482,0.1346,0.1689,0.2069,0.2695,0.3108,0.3437,0.3665,0.5094,0.6555,0.685,0.8226,0.9338,0.9402,0.9478,0.9612,0.9868,0.9989,1.011,1.0301,1.0498,1.0681,1.0807,1.087,1.0926,1.1122,1.1365,1.1725,1.2266,1.2634,1.3364,1.4469,1.4963,1.5453,1.6077,1.6554,1.6792,1.6684,1.6924,1.7206,1.7496,1.7496,1.776,1.8185,1.8185,1.8265,1.8482,1.8674,1.9497,2.0812,2.0951,2.1842,2.3138,2.333,2.3403,2.3403,2.3569,2.3628,2.3628,2.3688,2.3688,2.3688,2.3891,2.3949,2.3949,2.4054,2.4112,2.4112,2.4112,2.4112,2.4112,2.4112,2.4112,2.4229,2.4835,2.5425,2.596,2.6563,2.7152,2.7625,2.7625,2.8652,2.9609,2.9684,3.0717,3.1482,3.1482,3.1482,3.1482,3.1482,3.1482,3.1482,3.1482,3.1482,3.1482,3.1482,3.1482,3.1482,3.1482,3.1482,3.1482,3.1482,3.1482,3.1482,3.1482,3.1482,3.1482,3.1482,3.1482,3.1482,3.1482,3.1482,3.1482,0.095,0.1492,0.2151,0.2726,0.3076,0.344,0.3943,0.5392,0.6781,0.708,0.8291,0.9402,0.967,0.9734,0.9862,1.018,1.0244,1.0308,1.0561,1.0681,1.0807,1.0807,1.1059,1.124,1.124,1.1903,1.2389,1.2451,1.3554,1.435,1.4647,1.5303,1.5703,1.5946,1.5996,1.6207,1.6527,1.6588,1.6818,1.7249,1.7249,1.7405,1.7592,1.7592,1.7944,1.8549,1.933,2.0074,2.0887,2.1592,2.2372,2.3138,2.333,2.3403,2.3463,2.3772,2.3832,2.3891,2.3995,2.4054,2.4054,2.4054,2.4054,2.4054,2.4112,2.4112,2.4112,2.4112,2.4112,2.4112,2.4112,2.4112,2.4229,2.4835,2.5425,2.596,2.6563,2.7152,2.7625,2.7625,2.8652,2.9699,3.0073,3.0869,3.1482,3.1482,3.1482,3.1482,3.1482,3.1482,3.1482,3.1482,3.1482,3.1482,3.1482,3.1482,3.1482,3.1482,3.1482,3.1482,3.1482,3.1482,3.1482,3.1482,3.1482,3.1482,3.1482,3.1482,3.1482,3.1482,3.1482,3.1482,0.1143,0.165,0.2181,0.2803,0.3186,0.353,0.4231,0.5483,0.6709,0.7409,0.8537,0.9418,0.9582,0.974,0.9868,1.011,1.0238,1.0428,1.0681,1.0744,1.0863,1.1059,1.1178,1.1483,1.1911,1.2266,1.281,1.3674,1.4282,1.4834,1.5371,1.5672,1.5856,1.5914,1.5961,1.6052,1.6137,1.6372,1.6595,1.6972,1.7482,1.7729,1.7709,1.8027,1.83,1.8607,1.8985,1.9711,2.0649,2.1367,2.2102,2.29,2.3323,2.3582,2.3713,2.3949,2.4008,2.4008,2.4054,2.4112,2.4112,2.4112,2.4112,2.4112,2.4112,2.4112,2.4112,2.4112,2.4112,2.4171,2.4505,2.462,2.4677,2.5061,2.5756,2.6336,2.651,2.7086,2.785,2.8547,2.8966,2.9564,3.0761,3.1228,3.1482,3.1482,3.1482,3.1482,3.1482,3.1482,3.1482,3.1482,3.1482,3.1482,3.1482,3.1482,3.1482,3.1482,3.1482,3.1482,3.1482,3.1482,3.1482,3.1482,3.1482,3.1482,3.1482,3.1482,3.1482,3.1482,3.1482,3.1482,0.1287,0.169,0.2086,0.2728,0.3096,0.349,0.4286,0.5401,0.6506,0.7365,0.8465,0.9333,0.9363,0.9705,0.9989,1.0117,1.0301,1.0491,1.0737,1.0863,1.0989,1.124,1.1483,1.1849,1.2451,1.2818,1.3485,1.4588,1.4834,1.5254,1.5904,1.5961,1.5972,1.6029,1.6134,1.6134,1.6029,1.6316,1.6597,1.6801,1.7571,1.786,1.7719,1.8208,1.8493,1.8647,1.8903,1.9608,2.0656,2.1217,2.1853,2.2458,2.3039,2.3322,2.3476,2.378,2.389,2.3903,2.406,2.4112,2.4112,2.4112,2.4112,2.4112,2.4112,2.4112,2.4112,2.4112,2.4229,2.4447,2.4892,2.5005,2.5061,2.5384,2.5865,2.6351,2.6669,2.7336,2.8173,2.9355,2.9385,2.9714,3.127,3.1482,3.1482,3.1482,3.1482,3.1482,3.1482,3.1482,3.1482,3.1482,3.1482,3.1482,3.1482,3.1482,3.1482,3.1482,3.1482,3.1482,3.1482,3.1482,3.1482,3.1482,3.1482,3.1482,3.1482,3.1482,3.1482,3.1482,3.1482,3.1482,0.1103,0.1338,0.1621,0.2428,0.2753,0.3115,0.3944,0.5191,0.6355,0.6762,0.8038,0.8999,0.9011,0.9691,1.0371,1.0561,1.0681,1.0807,1.0807,1.1052,1.1303,1.1303,1.1965,1.2451,1.2512,1.3674,1.4469,1.4647,1.5313,1.5778,1.6056,1.6114,1.6181,1.6384,1.6374,1.6374,1.6384,1.6648,1.6772,1.6793,1.7086,1.7266,1.7266,1.7701,1.8239,1.875,1.9767,2.0493,2.0949,2.163,2.189,2.1946,2.2124,2.2192,2.2257,2.3011,2.3263,2.3341,2.3916,2.4112,2.4112,2.4112,2.4112,2.4112,2.4112,2.4112,2.4112,2.4112,2.4505,2.4948,2.5005,2.5005,2.5104,2.5632,2.5425,2.5536,2.7188,2.8083,2.8757,2.9445,2.9894,3.0391,3.1317,3.1482,3.1482,3.1482,3.1482,3.1482,3.1482,3.1482,3.1482,3.1482,3.1482,3.1482,3.1482,3.1482,3.1482,3.1482,3.1482,3.1482,3.1482,3.1482,3.1482,3.1482,3.1482,3.1482,3.1482,3.1482,3.1482,3.1482,3.1482,3.1482,0.1126,0.1393,0.1707,0.2254,0.2867,0.3576,0.4405,0.5557,0.6622,0.7323,0.8247,0.8934,0.9234,0.9706,1.0096,1.0274,1.0559,1.087,1.1115,1.124,1.1365,1.1498,1.222,1.2818,1.3235,1.4195,1.4982,1.5584,0.0,1.6066,1.6306,1.6306,1.6316,1.6384,1.6602,1.6761,1.692,1.7043,1.7099,1.7088,1.7368,1.7534,1.7534,1.8193,1.8721,1.921,1.9842,2.0229,2.0479,2.1138,2.1412,2.1545,2.196,2.2156,2.2333,2.2609,2.2688,2.2753,2.3341,2.3537,2.3602,2.3995,2.4112,2.4112,2.4112,2.4112,2.4171,2.4563,2.4563,2.4607,2.5314,2.5272,2.5216,2.619,2.651,2.6826,2.7473,2.8113,2.8801,2.946,2.9714,3.0178,3.1345,3.1482,3.1482,3.1482,3.1482,3.1482,3.1482,3.1482,3.1482,3.1482,3.1482,3.1482,3.1482,3.1482,3.1482,3.1482,3.1482,3.1482,3.1482,3.1482,3.1482,3.1482,3.1482,3.1482,3.1482,3.1482,3.1482,3.1482,3.1482,3.1482,0.1075,0.1342,0.1648,0.2062,0.2651,0.3354,0.4385,0.5334,0.6279,0.7356,0.8055,0.8645,0.9108,0.951,0.9794,1.0073,1.043,1.0744,1.1109,1.1265,1.1453,1.1699,1.2639,1.3425,1.3837,1.4678,1.5468,1.6056,0.0,0.0,1.6374,1.6488,1.6602,1.6648,1.6807,1.7032,1.719,1.7379,1.7434,1.7368,1.7865,1.8096,1.8096,1.8881,1.9356,1.9617,2.0067,2.0271,2.0423,2.0824,2.103,2.1108,2.1497,2.1693,2.1865,2.2021,2.214,2.2312,2.285,2.3165,2.3388,2.3795,2.4,2.4112,2.4112,2.4112,2.4171,2.462,2.4563,2.4607,2.5577,2.5701,2.5701,2.6297,2.6878,2.7306,2.7306,2.7995,2.8801,2.946,2.9939,3.0507,3.1317,3.1482,3.1482,3.1482,3.1482,3.1482,3.1482,3.1482,3.1482,3.1482,3.1482,3.1482,3.1482,3.1482,3.1482,3.1482,3.1482,3.1482,3.1482,3.1482,3.1482,3.1482,3.1482,3.1482,3.1482,3.1482,3.1482,3.1482,3.1482,3.1482,0.0,0.0,0.0,0.1813,0.2026,0.2448,0.3681,0.4504,0.5351,0.6596,0.7464,0.8126,0.8672,0.9119,0.9521,0.998,1.0222,1.0408,1.0751,1.1267,1.1716,1.1945,1.3296,1.4177,1.4195,1.5225,1.5951,0.0,1.6114,1.6181,1.6431,1.6648,1.692,1.719,1.719,1.719,1.7245,1.7534,1.7711,1.7767,1.8476,1.8798,1.8851,1.9643,1.9991,2.0042,2.0485,2.0699,2.0699,2.0699,2.0699,2.0699,2.0699,2.0699,2.0777,2.1276,2.1628,2.1965,2.2591,2.3096,2.3548,2.3561,2.3817,2.4086,2.4086,2.4099,2.4112,2.4112,2.4563,2.5118,2.5632,2.6229,2.651,2.596,2.6283,2.6736,2.6736,2.772,2.8771,2.943,3.0627,3.1482,3.1482,3.1482,3.1482,3.1482,3.1482,3.1482,3.1482,3.1482,3.1482,3.1482,3.1482,3.1482,3.1482,3.1482,3.1482,3.1482,3.1482,3.1482,3.1482,3.1482,3.1482,3.1482,3.1482,3.1482,3.1482,3.1482,3.1482,3.1482,3.1482,3.1482,0.1214,0.0,0.0,0.0,0.0,0.0,0.333,0.416,0.5119,0.6052,0.6643,0.7238,0.811,0.8655,0.9095,0.9393,1.0133,1.0758,1.0944,1.1249,1.1581,1.1955,1.2884,1.3746,1.4383,1.5391,1.6224,0.0,1.6581,1.6694,1.6976,1.7032,1.7256,1.7534,1.7534,1.7645,1.7865,1.792,1.8139,1.8476,1.8691,1.8958,1.9263,1.9747,1.9991,2.0042,2.0485,2.0699,2.0699,2.0699,2.0699,2.0699,2.0848,2.0947,2.0961,2.1318,2.1471,2.1601,2.2258,2.2414,2.2458,2.2857,2.3223,2.3472,2.3472,2.3772,2.4171,2.462,2.4563,2.4505,2.5048,2.5632,2.6122,2.6404,2.693,2.7357,2.7357,2.7607,2.8053,2.8742,3.0313,3.1482,3.1482,3.1482,3.1482,3.1482,3.1482,3.1482,3.1482,3.1482,3.1482,3.1482,3.1482,3.1482,3.1482,3.1482,3.1482,3.1482,3.1482,3.1482,3.1482,3.1482,3.1482,3.1482,3.1482,3.1482,3.1482,3.1482,3.1482,3.1482,3.1482,3.1482,0.1427,0.1589,0.1775,0.1822,0.0,0.0,0.3452,0.4051,0.4821,0.5932,0.6477,0.702,0.7866,0.8452,0.8859,0.9108,0.9944,1.0624,1.0787,1.1146,1.1611,1.2124,1.2915,1.3714,1.4517,1.5316,1.6052,1.6643,1.6675,1.6872,1.7357,1.7423,1.7534,1.7877,1.7865,1.792,1.8084,1.8302,1.853,1.8798,1.9146,1.9396,1.9656,2.0118,2.0271,2.0321,2.0586,2.0749,2.0848,2.0848,2.0848,2.0848,2.0947,2.1082,2.118,2.1326,2.1471,2.1609,2.1866,2.2001,2.2119,2.2325,2.2616,2.2858,2.2858,2.3276,2.3791,2.412,2.4563,2.4964,2.5258,2.596,2.6707,2.6982,2.7357,2.7625,2.7625,2.7625,2.7745,2.8098,2.9101,3.0238,3.1287,3.1482,3.1482,3.1482,3.1482,3.1482,3.1482,3.1482,3.1482,3.1482,3.1482,3.1482,3.1482,3.1482,3.1482,3.1482,3.1482,3.1482,3.1482,3.1482,3.1482,3.1482,3.1482,3.1482,3.1482,3.1482,3.1482,3.1482,3.1482,3.1482,0.1635,0.177,0.1965,0.2024,0.212,0.0,0.3671,0.3953,0.4382,0.588,0.6459,0.6926,0.7586,0.8207,0.8647,0.8777,0.9549,1.0229,1.0452,1.1023,1.1614,1.2322,1.3113,1.3888,1.4623,1.5153,1.5717,1.6404,1.6545,1.6872,1.7599,1.7678,1.7865,1.8084,1.8084,1.8084,1.8084,1.8583,1.8798,1.8851,1.9643,2.0042,2.0093,2.0485,2.0699,2.0749,2.0749,2.0848,2.1033,2.1033,2.1033,2.1033,2.1082,2.1229,2.1471,2.1471,2.1616,2.1746,2.152,2.1762,2.2109,2.1856,2.2062,2.2323,2.2323,2.2769,2.3336,2.3458,2.4682,2.5972,2.5946,2.6759,2.7625,2.7625,2.7625,2.7625,2.7625,2.7625,2.7675,2.7675,2.7625,2.8323,3.0687,3.1345,3.1482,3.1482,3.1482,3.1482,3.1482,3.1482,3.1482,3.1482,3.1482,3.1482,3.1482,3.1482,3.1482,3.1482,3.1482,3.1482,3.1482,3.1482,3.1482,3.1482,3.1482,3.1482,3.1482,3.1482,3.1482,3.1482,3.1482,3.1482,0.2091,0.2235,0.2373,0.2329,0.2522,0.0,0.2795,0.2937,0.3381,0.4536,0.4842,0.5247,0.6404,0.6971,0.7297,0.7452,0.8404,0.9431,1.0229,1.0889,1.1633,1.2386,1.278,1.3412,1.4608,1.5186,1.5681,1.6232,1.6882,1.7206,1.7073,1.7693,1.803,1.8084,1.8084,1.8084,1.8084,1.8583,1.8946,1.9263,1.9747,2.0207,2.0549,2.0649,2.0799,2.0947,2.0947,2.1082,2.1326,2.1326,2.1326,2.1326,2.1568,2.1664,2.1746,2.1949,2.1949,2.1793,2.1746,2.1491,2.1255,2.1206,2.1555,2.1981,2.1981,2.2884,2.4095,2.4874,2.5562,2.6133,2.6573,2.6707,2.6826,2.7458,2.7625,2.7625,2.7625,2.794,2.825,2.825,2.789,2.779,2.8248,3.0118,3.1482,3.1482,3.1482,3.1482,3.1482,3.1482,3.1482,3.1482,3.1482,3.1482,3.1482,3.1482,3.1482,3.1482,3.1482,3.1482,3.1482,3.1482,3.1482,3.1482,3.1482,3.1482,3.1482,3.1482,3.1482,3.1482,3.1482,3.1482,0.235,0.246,0.2636,0.26,0.2763,0.0,0.0,0.3235,0.3638,0.4576,0.4946,0.5414,0.6252,0.6691,0.6973,0.716,0.8222,0.9123,0.9375,1.0397,1.1302,1.1929,1.2513,1.3294,1.4269,1.4791,1.5362,1.6015,1.6665,1.7054,1.7138,1.7516,1.7875,1.8084,1.8084,1.8193,1.8476,1.8893,1.9316,1.9708,2.0118,2.0536,2.0848,2.0848,2.0997,2.118,2.118,2.1375,2.1616,2.1471,2.1568,2.1793,2.1793,2.1888,2.1996,2.1996,2.1949,2.1793,2.1664,2.1423,2.118,2.118,2.1381,2.1672,2.1672,2.2736,2.4116,2.5031,2.5891,2.6625,2.6849,2.7004,2.7174,2.7509,2.7625,2.7675,2.794,2.8201,2.8411,2.8411,2.7989,2.7675,2.794,2.8839,3.0013,3.1273,3.1482,3.1482,3.1482,3.1482,3.1482,3.1482,3.1482,3.1482,3.1482,3.1482,3.1482,3.1482,3.1482,3.1482,3.1482,3.1482,3.1482,3.1482,3.1482,3.1482,3.1482,3.1482,3.1482,3.1482,3.1482,3.1597,0.2697,0.2769,0.0,0.0,0.0,0.3151,0.0,0.0,0.0,0.4876,0.5382,0.5828,0.6229,0.652,0.0,0.697,0.0,0.0,0.0,0.9457,0.0,1.1099,1.2179,1.3137,1.3684,1.4105,1.4744,1.567,1.5923,1.6348,1.7048,1.7278,1.7565,1.7924,1.8147,1.841,1.8798,1.9263,1.9656,1.9991,2.0536,2.0848,2.0997,2.1033,2.1229,2.1471,2.1471,2.1616,2.1841,2.1616,2.1746,2.2184,2.1902,2.1949,2.2184,2.1949,2.1841,2.1746,2.1568,2.1423,2.1423,2.1423,2.1458,2.163,2.1787,2.2867,2.4191,2.5083,2.6199,2.7113,2.7129,2.7479,2.781,2.7725,2.7725,2.7875,2.8299,2.8411,2.8411,2.8411,2.8039,2.789,2.8201,2.789,2.8293,3.0447,3.0776,3.0776,3.0776,3.0776,3.0971,3.1422,3.1482,3.1482,3.1482,3.1482,3.1482,3.1482,3.1482,3.1482,3.1482,3.1482,3.1482,3.1482,3.1482,3.1582,3.1697,3.1582,3.1482,3.1482,3.1539,3.1712,0.3506,0.0,0.0,0.0,0.3368,0.0,0.0,0.0,0.396,0.4678,0.0,0.5068,0.5525,0.0,0.0,0.0,0.0,0.0,0.6442,0.7867,0.9151,0.9741,1.1489,1.268,1.2828,1.3017,1.3696,1.5085,1.4408,1.4557,1.5992,1.6899,1.7404,1.7461,1.8283,1.8744,1.8798,1.954,1.994,1.9991,2.0673,2.0997,2.0997,2.1229,2.152,2.1746,2.1746,2.1902,2.2137,2.1841,2.1949,2.2184,2.1902,2.1949,2.2184,2.2184,2.1996,2.1793,2.1746,2.1616,2.1423,2.1423,2.1779,2.2334,2.3212,2.4034,2.4956,2.6135,2.6859,2.7326,2.792,2.8073,2.8024,2.7955,2.8152,2.8348,2.8411,2.8411,2.8411,2.8411,2.8348,2.8201,2.7775,2.7625,2.773,2.7979,2.8023,2.8023,2.8023,2.8023,2.8921,3.1285,3.1482,3.1482,3.1482,3.1482,3.1482,3.1482,3.1482,3.1482,3.1482,3.1482,3.1482,3.1482,3.1482,3.1739,3.2287,3.1739,3.1482,3.1524,3.1697,3.1868,0.0,0.0,0.0,0.0,0.0,0.0,0.3981,0.0,0.4197,0.0,0.0,0.0,0.0,0.0,0.0,0.0,0.6626,0.0,0.0,0.0,0.8852,0.0,0.0,0.0,1.256,0.0,0.0,0.0,1.3529,1.3792,1.536,1.613,1.6784,1.7358,1.7996,1.857,1.9158,1.9695,2.0207,2.0573,2.0885,2.118,2.1471,2.1568,2.1793,2.2044,2.2044,2.2091,2.2184,2.1902,2.1949,2.2184,2.1902,2.1949,2.2184,2.2044,2.1902,2.1793,2.1793,2.1746,2.1698,2.2063,2.2328,2.2706,2.3495,2.4253,2.5017,2.6122,2.6778,2.733,2.8018,2.8137,2.8122,2.8201,2.8314,2.8411,2.8411,2.8411,2.8299,2.7989,2.794,2.7875,2.7625,2.7625,2.7625,2.7625,2.7625,2.7625,2.7625,2.7625,2.7993,2.9116,3.0612,3.1482,3.1482,3.1482,3.1482,3.1482,3.1482,3.1482,3.1482,3.1482,3.1482,3.1482,3.1853,3.212,3.2398,3.212,3.1966,3.1769,3.1811,3.1868,0.5156,0.0,0.0,0.0,0.0,0.0,0.0,0.0,0.0,0.0,0.0,0.0,0.0,0.0,0.6216,0.6403,0.0,0.6992,0.0,0.7451,0.0,0.0,0.0,0.0,0.0,0.0,0.0,0.0,0.0,1.278,1.4809,1.5406,1.6132,1.7085,1.7772,1.8515,1.9354,1.994,2.0523,2.0997,2.1131,2.1423,2.1793,2.1888,2.2044,2.2184,2.2184,2.2184,2.2184,2.1902,2.1949,2.2184,2.1902,2.1949,2.2184,2.1996,2.1902,2.1902,2.1902,2.1902,2.203,2.2663,2.2844,2.2979,2.361,2.4215,2.4878,2.5939,2.6581,2.7148,2.8021,2.8235,2.8235,2.8348,2.8411,2.8411,2.8411,2.8348,2.8201,2.789,2.7675,2.7625,2.7775,2.7825,2.7775,2.7625,2.7725,2.7775,2.7625,2.7725,2.7775,2.7625,2.9295,3.0746,3.1422,3.164,3.1754,3.1754,3.1582,3.1482,3.1482,3.164,3.1754,3.1754,3.2176,3.2398,3.2398,3.2342,3.2247,3.2038,3.1966,3.1981,0.0,0.0,0.0,0.5214,0.0,0.0,0.0,0.0,0.5881,0.0,0.0,0.0,0.0,0.7001,0.7209,0.6849,0.6975,0.0,0.0,0.0,0.0,0.0,0.0,0.0,0.0,0.9544,0.9945,0.0,1.0921,0.0,1.4247,1.4867,1.5556,1.6397,1.7824,1.8784,1.9181,2.0361,2.0997,2.0997,2.152,2.1793,2.1793,2.2091,2.2184,2.2184,2.2184,2.2184,2.2184,2.1902,2.1949,2.2184,2.1902,2.1949,2.2184,2.2184,2.2184,2.2184,2.2184,2.2184,2.2324,2.3038,2.3275,2.3363,2.3696,2.4024,2.4625,2.5995,2.638,2.6627,2.8042,2.8411,2.8411,2.8411,2.8411,2.8411,2.8411,2.8217,2.8054,2.8314,2.794,2.7775,2.8299,2.8348,2.8201,2.7675,2.8039,2.8201,2.7675,2.8039,2.8201,2.7675,2.77,2.8742,3.1258,3.2023,3.2398,3.2398,3.1796,3.1482,3.1482,3.2064,3.2398,3.2398,3.2398,3.2398,3.2398,3.2176,3.2135,3.2191,3.2191,3.2191,0.0,0.0,0.7544,0.6796,0.0,0.0,0.0,0.0,0.0,0.0,0.0,0.0,0.0,0.7113,0.7303,0.704,0.7049,0.6865,0.0,0.0,0.0,0.0,0.0,0.8674,0.0,0.0,0.0,0.0,1.0796,0.0,0.0,1.4409,1.5262,1.584,1.7585,1.8776,1.9484,2.0496,2.118,2.152,2.1712,2.1902,2.2091,2.2184,2.2184,2.2184,2.2184,2.2184,2.2184,2.2091,2.2137,2.2184,2.2091,2.2137,2.2184,2.2184,2.2184,2.2184,2.2184,2.2356,2.2618,2.3127,2.3451,2.3696,2.4051,2.4219,2.4594,2.5995,2.6349,2.6596,2.8042,2.8411,2.8411,2.8411,2.8411,2.8411,2.8411,2.8314,2.8314,2.8396,2.825,2.8201,2.8363,2.8411,2.8348,2.8152,2.8299,2.8201,2.7675,2.7775,2.794,2.8088,2.8137,2.922,3.1891,3.2287,3.2231,3.1853,3.1966,3.1287,2.9535,3.1351,3.2398,3.2398,3.2398,3.2398,3.2398,3.2342,3.2287,3.2342,3.2342,3.2287,0.8428,0.8659,0.0,0.8214,0.8273,0.0,0.6965,0.0,0.7303,0.0,0.0,0.0,0.0,0.0,0.7711,0.7904,0.7525,0.7011,0.0,0.6624,0.0,0.0,0.7559,0.8077,0.8827,0.7997,0.835,1.0546,1.0038,0.0,0.0,0.0,1.4899,1.5512,1.73,1.8621,1.946,2.0468,2.1254,2.1793,2.1902,2.2044,2.2184,2.2184,2.2184,2.2184,2.2184,2.2184,2.2184,2.2184,2.2184,2.2184,2.2184,2.2184,2.2184,2.2184,2.2184,2.2231,2.2356,2.2434,2.2618,2.326,2.3538,2.3711,2.4177,2.4302,2.4548,2.5687,2.6164,2.6611,2.775,2.8227,2.8411,2.8411,2.8411,2.8411,2.8411,2.8411,2.8411,2.8411,2.8411,2.8411,2.8411,2.8411,2.8411,2.8411,2.8411,2.8299,2.794,2.7875,2.8039,2.8348,2.8411,2.9104,3.0828,3.0982,3.0823,3.0407,3.0769,3.0197,2.8473,3.0058,3.0982,3.0982,3.1905,3.2398,3.2398,3.2398,3.2398,3.2398,3.2398,3.2342]}]]